<?xml version='1.0' encoding='UTF-8'?><gpx version="1.1" creator="JPX - https://github.com/jenetics/jpx" xmlns="http://www.topografix.com/GPX/1/1"><trk><trkseg><trkpt lat="42.42618026141151" lon="-8.083326676041244"><ele>400.0</ele><time>2026-03-23T15:09:17Z</time></trkpt><trkpt lat="42.42622818368262" lon="-8.0832104140618"><ele>399.0</ele><time>2026-03-23T15:09:18Z</time></trkpt><trkpt lat="42.426267637413574" lon="-8.083089233201944"><ele>398.0</ele><time>2026-03-23T15:09:19Z</time></trkpt><trkpt lat="42.42630565207935" lon="-8.082970681626216"><ele>397.0</ele><time>2026-03-23T15:09:20Z</time></trkpt><trkpt lat="42.426350517797154" lon="-8.082872374665556"><ele>396.0</ele><time>2026-03-23T15:09:21Z</time></trkpt><trkpt lat="42.4263891880335" lon="-8.082760547073459"><ele>395.8333333333333</ele><time>2026-03-23T15:09:22Z</time></trkpt><trkpt lat="42.426426434565435" lon="-8.082659074015378"><ele>395.66666666666663</ele><time>2026-03-23T15:09:23Z</time></trkpt><trkpt lat="42.42645730431215" lon="-8.082561256539156"><ele>395.5</ele><time>2026-03-23T15:09:24Z</time></trkpt><trkpt lat="42.42649057743209" lon="-8.082478049785005"><ele>395.3333333333333</ele><time>2026-03-23T15:09:25Z</time></trkpt><trkpt lat="42.426511492647535" lon="-8.08239538013404"><ele>395.16666666666663</ele><time>2026-03-23T15:09:26Z</time></trkpt><trkpt lat="42.426539702048984" lon="-8.082314492444786"><ele>395.0</ele><time>2026-03-23T15:09:27Z</time></trkpt><trkpt lat="42.42659236996503" lon="-8.08216664546569"><ele>395.0</ele><time>2026-03-23T15:09:29Z</time></trkpt><trkpt lat="42.42668908786274" lon="-8.082187611696085"><ele>395.0</ele><time>2026-03-23T15:09:31Z</time></trkpt><trkpt lat="42.42676981860457" lon="-8.08211489868006"><ele>395.0</ele><time>2026-03-23T15:09:32Z</time></trkpt><trkpt lat="42.42687979236134" lon="-8.082064184261677"><ele>395.0</ele><time>2026-03-23T15:09:33Z</time></trkpt><trkpt lat="42.42671804867242" lon="-8.082043252472625"><ele>395.0</ele><time>2026-03-23T15:09:34Z</time></trkpt><trkpt lat="42.42678796592448" lon="-8.08221004409533"><ele>395.0</ele><time>2026-03-23T15:09:36Z</time></trkpt><trkpt lat="42.42678721285272" lon="-8.082295789269343"><ele>395.0</ele><time>2026-03-23T15:09:37Z</time></trkpt><trkpt lat="42.42679104004195" lon="-8.082420808855515"><ele>395.0</ele><time>2026-03-23T15:09:39Z</time></trkpt><trkpt lat="42.42700238954279" lon="-8.082387309164275"><ele>394.99999999999994</ele><time>2026-03-23T15:09:41.999Z</time></trkpt><trkpt lat="42.42706328918102" lon="-8.082330727113204"><ele>395.0</ele><time>2026-03-23T15:09:42.999Z</time></trkpt><trkpt lat="42.4271334989765" lon="-8.082269560010227"><ele>395.0</ele><time>2026-03-23T15:09:43.999Z</time></trkpt><trkpt lat="42.42719894560664" lon="-8.082209964775785"><ele>395.0</ele><time>2026-03-23T15:09:44.999Z</time></trkpt><trkpt lat="42.427266125148186" lon="-8.08215076894925"><ele>394.99999999999994</ele><time>2026-03-23T15:09:45.999Z</time></trkpt><trkpt lat="42.42732407395249" lon="-8.082097886175827"><ele>395.0</ele><time>2026-03-23T15:09:46.999Z</time></trkpt><trkpt lat="42.427393897881394" lon="-8.082055057041059"><ele>394.66666666666663</ele><time>2026-03-23T15:09:47.999Z</time></trkpt><trkpt lat="42.427450604032174" lon="-8.081998506085382"><ele>394.3333333333333</ele><time>2026-03-23T15:09:48.999Z</time></trkpt><trkpt lat="42.4275094335102" lon="-8.081957833973242"><ele>394.0</ele><time>2026-03-23T15:09:49.999Z</time></trkpt><trkpt lat="42.42757374837288" lon="-8.081910145079735"><ele>393.66666666666663</ele><time>2026-03-23T15:09:50.999Z</time></trkpt><trkpt lat="42.42762724092725" lon="-8.081862844220332"><ele>393.3333333333333</ele><time>2026-03-23T15:09:51.999Z</time></trkpt><trkpt lat="42.42773427396046" lon="-8.081771882773491"><ele>393.0</ele><time>2026-03-23T15:09:53.999Z</time></trkpt><trkpt lat="42.42784164216854" lon="-8.081675917354634"><ele>393.0</ele><time>2026-03-23T15:09:55.999Z</time></trkpt><trkpt lat="42.42794361612392" lon="-8.081596259345938"><ele>393.0</ele><time>2026-03-23T15:09:57.999Z</time></trkpt><trkpt lat="42.42804293828535" lon="-8.08148924406007"><ele>393.0</ele><time>2026-03-23T15:09:59.999Z</time></trkpt><trkpt lat="42.42810645223899" lon="-8.081430433874008"><ele>393.0</ele><time>2026-03-23T15:10:00.999Z</time></trkpt><trkpt lat="42.42817747838538" lon="-8.081384102816266"><ele>393.0</ele><time>2026-03-23T15:10:01.999Z</time></trkpt><trkpt lat="42.428243380074896" lon="-8.08132953330765"><ele>392.8333333333333</ele><time>2026-03-23T15:10:02.999Z</time></trkpt><trkpt lat="42.428311146993366" lon="-8.08125536812058"><ele>392.66666666666663</ele><time>2026-03-23T15:10:03.999Z</time></trkpt><trkpt lat="42.428374062914465" lon="-8.081184093673254"><ele>392.5</ele><time>2026-03-23T15:10:04.999Z</time></trkpt><trkpt lat="42.42844173118255" lon="-8.081128811679728"><ele>392.3333333333333</ele><time>2026-03-23T15:10:05.999Z</time></trkpt><trkpt lat="42.428503373622064" lon="-8.081065773046513"><ele>392.16666666666663</ele><time>2026-03-23T15:10:06.999Z</time></trkpt><trkpt lat="42.42857727021582" lon="-8.081014428526624"><ele>392.0</ele><time>2026-03-23T15:10:07.999Z</time></trkpt><trkpt lat="42.428643974390766" lon="-8.08095675810319"><ele>391.99999999999994</ele><time>2026-03-23T15:10:08.999Z</time></trkpt><trkpt lat="42.42870220380568" lon="-8.080903559238198"><ele>392.0</ele><time>2026-03-23T15:10:09.999Z</time></trkpt><trkpt lat="42.42877461892756" lon="-8.080837942380317"><ele>392.0</ele><time>2026-03-23T15:10:10.999Z</time></trkpt><trkpt lat="42.42883400140666" lon="-8.080791563141622"><ele>392.0</ele><time>2026-03-23T15:10:11.999Z</time></trkpt><trkpt lat="42.4288868403896" lon="-8.08072715807173"><ele>391.99999999999994</ele><time>2026-03-23T15:10:14.999Z</time></trkpt><trkpt lat="42.42896034607462" lon="-8.080664088408323"><ele>392.0</ele><time>2026-03-23T15:10:16.999Z</time></trkpt><trkpt lat="42.42905136647282" lon="-8.080585990744076"><ele>392.66666666666663</ele><time>2026-03-23T15:10:17.999Z</time></trkpt><trkpt lat="42.42910466620489" lon="-8.080540259777251"><ele>393.3333333333333</ele><time>2026-03-23T15:10:18.999Z</time></trkpt><trkpt lat="42.42915831153262" lon="-8.080494938622657"><ele>394.0</ele><time>2026-03-23T15:10:19.999Z</time></trkpt><trkpt lat="42.429246085637345" lon="-8.080420348711442"><ele>394.66666666666663</ele><time>2026-03-23T15:10:21.999Z</time></trkpt><trkpt lat="42.429333055733835" lon="-8.08034644193289"><ele>395.3333333333333</ele><time>2026-03-23T15:10:23.999Z</time></trkpt><trkpt lat="42.42942504778173" lon="-8.080271401383529"><ele>396.0</ele><time>2026-03-23T15:10:25.999Z</time></trkpt><trkpt lat="42.42950433034746" lon="-8.080207735084622"><ele>396.0</ele><time>2026-03-23T15:10:27.999Z</time></trkpt><trkpt lat="42.42958495179374" lon="-8.080143000326133"><ele>396.0</ele><time>2026-03-23T15:10:29.999Z</time></trkpt><trkpt lat="42.42967811564458" lon="-8.080080365535062"><ele>396.0</ele><time>2026-03-23T15:10:31.999Z</time></trkpt><trkpt lat="42.429735312633014" lon="-8.080041342890231"><ele>396.0</ele><time>2026-03-23T15:10:32.999Z</time></trkpt><trkpt lat="42.429781615954184" lon="-8.079976791980906"><ele>396.0</ele><time>2026-03-23T15:10:33.999Z</time></trkpt><trkpt lat="42.4298815996623" lon="-8.079885675687112"><ele>396.0</ele><time>2026-03-23T15:10:35.999Z</time></trkpt><trkpt lat="42.42993600369697" lon="-8.079835628086142"><ele>397.1666666666667</ele><time>2026-03-23T15:10:36.999Z</time></trkpt><trkpt lat="42.430042638292704" lon="-8.079740434660778"><ele>398.33333333333337</ele><time>2026-03-23T15:10:38.999Z</time></trkpt><trkpt lat="42.43010047214092" lon="-8.079690459795842"><ele>399.5</ele><time>2026-03-23T15:10:39.999Z</time></trkpt><trkpt lat="42.43016041184056" lon="-8.079641933813162"><ele>400.6666666666667</ele><time>2026-03-23T15:10:40.999Z</time></trkpt><trkpt lat="42.43021950022491" lon="-8.079594544348495"><ele>401.83333333333337</ele><time>2026-03-23T15:10:41.999Z</time></trkpt><trkpt lat="42.43027728646633" lon="-8.07954819920948"><ele>403.0</ele><time>2026-03-23T15:10:42.999Z</time></trkpt><trkpt lat="42.430332967555685" lon="-8.079503542403996"><ele>403.0</ele><time>2026-03-23T15:10:43.999Z</time></trkpt><trkpt lat="42.43039054027725" lon="-8.079457368509495"><ele>403.0</ele><time>2026-03-23T15:10:44.999Z</time></trkpt><trkpt lat="42.43049090329218" lon="-8.079376876375058"><ele>403.0</ele><time>2026-03-23T15:10:46.999Z</time></trkpt><trkpt lat="42.430592120202185" lon="-8.079307453936474"><ele>403.0</ele><time>2026-03-23T15:10:48.999Z</time></trkpt><trkpt lat="42.43069613800957" lon="-8.079219610435334"><ele>403.0</ele><time>2026-03-23T15:10:50.999Z</time></trkpt><trkpt lat="42.43075564908502" lon="-8.079162476168891"><ele>404.0</ele><time>2026-03-23T15:10:51.999Z</time></trkpt><trkpt lat="42.430850295614526" lon="-8.079078858517578"><ele>405.0</ele><time>2026-03-23T15:10:53.999Z</time></trkpt><trkpt lat="42.43096669383302" lon="-8.07899485667041"><ele>406.0</ele><time>2026-03-23T15:10:55.999Z</time></trkpt><trkpt lat="42.4310610165367" lon="-8.078886472657054"><ele>407.0</ele><time>2026-03-23T15:10:57.999Z</time></trkpt><trkpt lat="42.43111689681775" lon="-8.07883960632863"><ele>408.0</ele><time>2026-03-23T15:10:58.999Z</time></trkpt><trkpt lat="42.43121615882654" lon="-8.078757639830883"><ele>408.0</ele><time>2026-03-23T15:11:00.998Z</time></trkpt><trkpt lat="42.43127848020707" lon="-8.078710193542875"><ele>408.0</ele><time>2026-03-23T15:11:01.998Z</time></trkpt><trkpt lat="42.43131880870632" lon="-8.078642513946845"><ele>408.0</ele><time>2026-03-23T15:11:02.998Z</time></trkpt><trkpt lat="42.431382465174465" lon="-8.078511938156472"><ele>408.0</ele><time>2026-03-23T15:11:04.998Z</time></trkpt><trkpt lat="42.431415867614035" lon="-8.078354821014356"><ele>408.0</ele><time>2026-03-23T15:11:06.998Z</time></trkpt><trkpt lat="42.43142198999067" lon="-8.078252905952613"><ele>408.0</ele><time>2026-03-23T15:11:08.998Z</time></trkpt><trkpt lat="42.431415599704245" lon="-8.078121860630057"><ele>408.0</ele><time>2026-03-23T15:11:15.999Z</time></trkpt><trkpt lat="42.43140485759003" lon="-8.078031667062286"><ele>408.0</ele><time>2026-03-23T15:11:17.999Z</time></trkpt><trkpt lat="42.43136767647501" lon="-8.077934068115788"><ele>408.0</ele><time>2026-03-23T15:11:20.999Z</time></trkpt><trkpt lat="42.43130555203911" lon="-8.077843452864286"><ele>408.0</ele><time>2026-03-23T15:11:23.999Z</time></trkpt><trkpt lat="42.43124734106683" lon="-8.077772949022231"><ele>408.0</ele><time>2026-03-23T15:11:25.999Z</time></trkpt><trkpt lat="42.431223792245184" lon="-8.077682632351499"><ele>408.0</ele><time>2026-03-23T15:11:27.999Z</time></trkpt><trkpt lat="42.431279150905226" lon="-8.077580299182287"><ele>408.6666666666667</ele><time>2026-03-23T15:11:30.999Z</time></trkpt><trkpt lat="42.43135425718934" lon="-8.077592536532627"><ele>409.33333333333337</ele><time>2026-03-23T15:11:32.999Z</time></trkpt><trkpt lat="42.43144145337156" lon="-8.077556598328902"><ele>410.0</ele><time>2026-03-23T15:11:34.999Z</time></trkpt><trkpt lat="42.43147346927657" lon="-8.07764752478082"><ele>410.6666666666667</ele><time>2026-03-23T15:11:35.999Z</time></trkpt><trkpt lat="42.43154802489592" lon="-8.077660502955021"><ele>411.33333333333337</ele><time>2026-03-23T15:11:37.999Z</time></trkpt><trkpt lat="42.4316125962781" lon="-8.07767102429985"><ele>412.0</ele><time>2026-03-23T15:11:39.999Z</time></trkpt><trkpt lat="42.43170093792309" lon="-8.07766020958604"><ele>412.00000000000006</ele><time>2026-03-23T15:11:41.999Z</time></trkpt><trkpt lat="42.43177438476423" lon="-8.077686324822729"><ele>412.0</ele><time>2026-03-23T15:11:43.999Z</time></trkpt><trkpt lat="42.43186677111352" lon="-8.077692602034821"><ele>412.0</ele><time>2026-03-23T15:11:45.999Z</time></trkpt><trkpt lat="42.43194645319905" lon="-8.077693452787548"><ele>412.0</ele><time>2026-03-23T15:11:47.999Z</time></trkpt><trkpt lat="42.432041910451346" lon="-8.077719998347018"><ele>412.00000000000006</ele><time>2026-03-23T15:11:49.999Z</time></trkpt><trkpt lat="42.432140523135786" lon="-8.077724721054773"><ele>412.0</ele><time>2026-03-23T15:11:52.999Z</time></trkpt><trkpt lat="42.43227831458952" lon="-8.077715243824892"><ele>411.33333333333337</ele><time>2026-03-23T15:11:55.999Z</time></trkpt><trkpt lat="42.432355822825535" lon="-8.077712951872838"><ele>410.6666666666667</ele><time>2026-03-23T15:11:56.999Z</time></trkpt><trkpt lat="42.43243695776409" lon="-8.077719170566324"><ele>410.0</ele><time>2026-03-23T15:11:57.999Z</time></trkpt><trkpt lat="42.43251949180424" lon="-8.077724168695937"><ele>409.33333333333337</ele><time>2026-03-23T15:11:58.999Z</time></trkpt><trkpt lat="42.43259149197847" lon="-8.077735285076898"><ele>408.6666666666667</ele><time>2026-03-23T15:11:59.999Z</time></trkpt><trkpt lat="42.432670849052414" lon="-8.077734753611194"><ele>408.0</ele><time>2026-03-23T15:12:00.999Z</time></trkpt><trkpt lat="42.43276400692387" lon="-8.077735872744665"><ele>408.0</ele><time>2026-03-23T15:12:01.999Z</time></trkpt><trkpt lat="42.432858398660706" lon="-8.077725141627983"><ele>408.0</ele><time>2026-03-23T15:12:02.999Z</time></trkpt><trkpt lat="42.43294840305537" lon="-8.077704643826827"><ele>408.0</ele><time>2026-03-23T15:12:04.999Z</time></trkpt><trkpt lat="42.43314182772016" lon="-8.077725066893821"><ele>408.0</ele><time>2026-03-23T15:12:06.999Z</time></trkpt><trkpt lat="42.433228149199024" lon="-8.077731239087724"><ele>407.3333333333333</ele><time>2026-03-23T15:12:07.999Z</time></trkpt><trkpt lat="42.43331398746694" lon="-8.077745281656995"><ele>406.66666666666663</ele><time>2026-03-23T15:12:08.999Z</time></trkpt><trkpt lat="42.433393538266344" lon="-8.077740197743763"><ele>406.0</ele><time>2026-03-23T15:12:09.999Z</time></trkpt><trkpt lat="42.4334743132212" lon="-8.077735324594025"><ele>405.3333333333333</ele><time>2026-03-23T15:12:10.999Z</time></trkpt><trkpt lat="42.43354614854479" lon="-8.07774652651069"><ele>404.66666666666663</ele><time>2026-03-23T15:12:11.999Z</time></trkpt><trkpt lat="42.433648175674726" lon="-8.077741833943156"><ele>404.0</ele><time>2026-03-23T15:12:12.999Z</time></trkpt><trkpt lat="42.4337208106562" lon="-8.077743854534548"><ele>403.99999999999994</ele><time>2026-03-23T15:12:13.999Z</time></trkpt><trkpt lat="42.43379644995624" lon="-8.077753369679732"><ele>404.0</ele><time>2026-03-23T15:12:14.999Z</time></trkpt><trkpt lat="42.433885503165854" lon="-8.07775300297503"><ele>404.0</ele><time>2026-03-23T15:12:15.999Z</time></trkpt><trkpt lat="42.433975216711126" lon="-8.077756833954494"><ele>404.0</ele><time>2026-03-23T15:12:16.999Z</time></trkpt><trkpt lat="42.434058132931796" lon="-8.077762795492077"><ele>403.99999999999994</ele><time>2026-03-23T15:12:17.999Z</time></trkpt><trkpt lat="42.43412491910055" lon="-8.077757622028226"><ele>404.0</ele><time>2026-03-23T15:12:18.999Z</time></trkpt><trkpt lat="42.434241798861066" lon="-8.077760644741716"><ele>403.99999999999994</ele><time>2026-03-23T15:12:20.999Z</time></trkpt><trkpt lat="42.43437273708322" lon="-8.077767282122672"><ele>404.0</ele><time>2026-03-23T15:12:22.999Z</time></trkpt><trkpt lat="42.434445034700424" lon="-8.07775476488845"><ele>404.0</ele><time>2026-03-23T15:12:23.999Z</time></trkpt><trkpt lat="42.43451326687054" lon="-8.077760475602975"><ele>404.0</ele><time>2026-03-23T15:12:24.999Z</time></trkpt><trkpt lat="42.43457878364796" lon="-8.077753390543355"><ele>403.99999999999994</ele><time>2026-03-23T15:12:25.999Z</time></trkpt><trkpt lat="42.43463866571261" lon="-8.07771120058391"><ele>404.0</ele><time>2026-03-23T15:12:26.999Z</time></trkpt><trkpt lat="42.43468586982016" lon="-8.077635035096694"><ele>403.99999999999994</ele><time>2026-03-23T15:12:27.999Z</time></trkpt><trkpt lat="42.43471395538188" lon="-8.077527220113636"><ele>404.0</ele><time>2026-03-23T15:12:28.999Z</time></trkpt><trkpt lat="42.43472662431532" lon="-8.077428186843697"><ele>404.0</ele><time>2026-03-23T15:12:29.999Z</time></trkpt><trkpt lat="42.43471868454895" lon="-8.077324171495205"><ele>404.0</ele><time>2026-03-23T15:12:30.999Z</time></trkpt><trkpt lat="42.434676686027935" lon="-8.077236400866532"><ele>403.99999999999994</ele><time>2026-03-23T15:12:31.999Z</time></trkpt><trkpt lat="42.43462741189317" lon="-8.07715681050591"><ele>404.0</ele><time>2026-03-23T15:12:32.999Z</time></trkpt><trkpt lat="42.43458962472333" lon="-8.077068468190605"><ele>404.49999999999994</ele><time>2026-03-23T15:12:33.999Z</time></trkpt><trkpt lat="42.43455013622801" lon="-8.07697264910844"><ele>405.0</ele><time>2026-03-23T15:12:34.999Z</time></trkpt><trkpt lat="42.4345093332321" lon="-8.076876917342796"><ele>405.5</ele><time>2026-03-23T15:12:35.999Z</time></trkpt><trkpt lat="42.4344665993038" lon="-8.076784669179101"><ele>406.0</ele><time>2026-03-23T15:12:36.999Z</time></trkpt><trkpt lat="42.434412883747626" lon="-8.076691977090567"><ele>406.49999999999994</ele><time>2026-03-23T15:12:37.999Z</time></trkpt><trkpt lat="42.434368857837214" lon="-8.07659113227703"><ele>407.0</ele><time>2026-03-23T15:12:38.999Z</time></trkpt><trkpt lat="42.43431464217433" lon="-8.076477121404107"><ele>407.20000000000005</ele><time>2026-03-23T15:12:39.999Z</time></trkpt><trkpt lat="42.43426327635699" lon="-8.076340994137535"><ele>407.4</ele><time>2026-03-23T15:12:40.999Z</time></trkpt><trkpt lat="42.43419651530607" lon="-8.076200986748244"><ele>407.6</ele><time>2026-03-23T15:12:41.999Z</time></trkpt><trkpt lat="42.43413412629493" lon="-8.076087718085844"><ele>407.79999999999995</ele><time>2026-03-23T15:12:42.999Z</time></trkpt><trkpt lat="42.434080290805625" lon="-8.075972668756297"><ele>408.0</ele><time>2026-03-23T15:12:43.999Z</time></trkpt><trkpt lat="42.434033161496515" lon="-8.07586876087478"><ele>408.0</ele><time>2026-03-23T15:12:44.999Z</time></trkpt><trkpt lat="42.43399318195505" lon="-8.075775567604806"><ele>408.0</ele><time>2026-03-23T15:12:45.999Z</time></trkpt><trkpt lat="42.433947460312574" lon="-8.075680285518043"><ele>408.0</ele><time>2026-03-23T15:12:46.999Z</time></trkpt><trkpt lat="42.43390411661082" lon="-8.07558733610224"><ele>408.0</ele><time>2026-03-23T15:12:47.999Z</time></trkpt><trkpt lat="42.43385927888345" lon="-8.07549273987561"><ele>408.0</ele><time>2026-03-23T15:12:48.999Z</time></trkpt><trkpt lat="42.433812082381806" lon="-8.07539618116968"><ele>408.0</ele><time>2026-03-23T15:12:49.999Z</time></trkpt><trkpt lat="42.43376845130152" lon="-8.075292637805344"><ele>408.0</ele><time>2026-03-23T15:12:50.999Z</time></trkpt><trkpt lat="42.43372263988336" lon="-8.075192264231683"><ele>408.0</ele><time>2026-03-23T15:12:51.999Z</time></trkpt><trkpt lat="42.433680400806274" lon="-8.075097003900686"><ele>408.0</ele><time>2026-03-23T15:12:52.999Z</time></trkpt><trkpt lat="42.43360875703832" lon="-8.074973722804483"><ele>408.0</ele><time>2026-03-23T15:12:53.999Z</time></trkpt><trkpt lat="42.43355694626375" lon="-8.074861937440158"><ele>408.0</ele><time>2026-03-23T15:12:54.999Z</time></trkpt><trkpt lat="42.43349810395154" lon="-8.074755496217804"><ele>408.0</ele><time>2026-03-23T15:12:55.999Z</time></trkpt><trkpt lat="42.43348168290274" lon="-8.074660315178905"><ele>408.0</ele><time>2026-03-23T15:12:56.999Z</time></trkpt><trkpt lat="42.43343817221151" lon="-8.07456206091399"><ele>408.0</ele><time>2026-03-23T15:12:57.999Z</time></trkpt><trkpt lat="42.433391544431366" lon="-8.074457163703602"><ele>408.0</ele><time>2026-03-23T15:12:58.999Z</time></trkpt><trkpt lat="42.43334524545395" lon="-8.074353266005735"><ele>408.0</ele><time>2026-03-23T15:12:59.999Z</time></trkpt><trkpt lat="42.43329831413425" lon="-8.074247949290017"><ele>408.0</ele><time>2026-03-23T15:13:00.999Z</time></trkpt><trkpt lat="42.43325300038925" lon="-8.074146262509402"><ele>407.1666666666667</ele><time>2026-03-23T15:13:01.999Z</time></trkpt><trkpt lat="42.433208177028014" lon="-8.074045676200296"><ele>406.33333333333337</ele><time>2026-03-23T15:13:02.999Z</time></trkpt><trkpt lat="42.43316529133055" lon="-8.073949438099218"><ele>405.5</ele><time>2026-03-23T15:13:03.999Z</time></trkpt><trkpt lat="42.43312372013082" lon="-8.073856149814898"><ele>404.6666666666667</ele><time>2026-03-23T15:13:04.999Z</time></trkpt><trkpt lat="42.43308320349601" lon="-8.073765228052139"><ele>403.83333333333337</ele><time>2026-03-23T15:13:05.999Z</time></trkpt><trkpt lat="42.43304500470012" lon="-8.07367950766074"><ele>403.0</ele><time>2026-03-23T15:13:06.999Z</time></trkpt><trkpt lat="42.43301989417838" lon="-8.073582256462638"><ele>403.00000000000006</ele><time>2026-03-23T15:13:07.999Z</time></trkpt><trkpt lat="42.43297844140029" lon="-8.07350947461155"><ele>403.0</ele><time>2026-03-23T15:13:08.999Z</time></trkpt><trkpt lat="42.43294355283524" lon="-8.073434604365866"><ele>403.0</ele><time>2026-03-23T15:13:09.999Z</time></trkpt><trkpt lat="42.43290841188216" lon="-8.073360560434468"><ele>403.0</ele><time>2026-03-23T15:13:10.999Z</time></trkpt><trkpt lat="42.43284334082514" lon="-8.073212019783966"><ele>403.00000000000006</ele><time>2026-03-23T15:13:12.999Z</time></trkpt><trkpt lat="42.432804477637944" lon="-8.073127612133893"><ele>403.0</ele><time>2026-03-23T15:13:13.999Z</time></trkpt><trkpt lat="42.43276407811371" lon="-8.073040882386552"><ele>402.50000000000006</ele><time>2026-03-23T15:13:14.999Z</time></trkpt><trkpt lat="42.43272284860133" lon="-8.072945661322068"><ele>402.0</ele><time>2026-03-23T15:13:15.999Z</time></trkpt><trkpt lat="42.43268358384738" lon="-8.072845247747015"><ele>401.5</ele><time>2026-03-23T15:13:16.999Z</time></trkpt><trkpt lat="42.432628906922915" lon="-8.072749002784029"><ele>401.0</ele><time>2026-03-23T15:13:17.999Z</time></trkpt><trkpt lat="42.43258241395318" lon="-8.072639483222106"><ele>400.50000000000006</ele><time>2026-03-23T15:13:18.999Z</time></trkpt><trkpt lat="42.432539389447186" lon="-8.07252941920888"><ele>400.0</ele><time>2026-03-23T15:13:19.999Z</time></trkpt><trkpt lat="42.43249042047924" lon="-8.072426637841296"><ele>399.6</ele><time>2026-03-23T15:13:20.999Z</time></trkpt><trkpt lat="42.432437437371455" lon="-8.072322526824884"><ele>399.2</ele><time>2026-03-23T15:13:21.999Z</time></trkpt><trkpt lat="42.43238370663134" lon="-8.072212896501812"><ele>398.79999999999995</ele><time>2026-03-23T15:13:22.999Z</time></trkpt><trkpt lat="42.43233790348983" lon="-8.072107808420197"><ele>398.4</ele><time>2026-03-23T15:13:23.999Z</time></trkpt><trkpt lat="42.432285073778395" lon="-8.071993218592496"><ele>398.0</ele><time>2026-03-23T15:13:24.999Z</time></trkpt><trkpt lat="42.43223765693024" lon="-8.071895610312698"><ele>397.99999999999994</ele><time>2026-03-23T15:13:25.999Z</time></trkpt><trkpt lat="42.43220307320403" lon="-8.07182192478751"><ele>398.0</ele><time>2026-03-23T15:13:26.999Z</time></trkpt><trkpt lat="42.4321647767141" lon="-8.071740387465583"><ele>398.0</ele><time>2026-03-23T15:13:27.999Z</time></trkpt><trkpt lat="42.43211144086776" lon="-8.071599681017267"><ele>398.0</ele><time>2026-03-23T15:13:29.999Z</time></trkpt><trkpt lat="42.43206712359143" lon="-8.071515271175526"><ele>397.99999999999994</ele><time>2026-03-23T15:13:32.999Z</time></trkpt><trkpt lat="42.43202904786229" lon="-8.071445970779811"><ele>398.0</ele><time>2026-03-23T15:13:36.999Z</time></trkpt><trkpt lat="42.43198997845388" lon="-8.071355878960086"><ele>397.66666666666663</ele><time>2026-03-23T15:13:38.999Z</time></trkpt><trkpt lat="42.431930268753206" lon="-8.071218469381403"><ele>397.3333333333333</ele><time>2026-03-23T15:13:40.999Z</time></trkpt><trkpt lat="42.43189204303744" lon="-8.071132997382874"><ele>397.0</ele><time>2026-03-23T15:13:41.999Z</time></trkpt><trkpt lat="42.43184256546829" lon="-8.071037870281488"><ele>396.66666666666663</ele><time>2026-03-23T15:13:42.999Z</time></trkpt><trkpt lat="42.431802158192525" lon="-8.070949389420974"><ele>396.3333333333333</ele><time>2026-03-23T15:13:43.999Z</time></trkpt><trkpt lat="42.4317546877446" lon="-8.070845901055272"><ele>396.0</ele><time>2026-03-23T15:13:44.999Z</time></trkpt><trkpt lat="42.4317073185174" lon="-8.07073437599006"><ele>396.0</ele><time>2026-03-23T15:13:45.999Z</time></trkpt><trkpt lat="42.43165893626288" lon="-8.070631072639243"><ele>396.0</ele><time>2026-03-23T15:13:46.999Z</time></trkpt><trkpt lat="42.43160897363591" lon="-8.070514070529308"><ele>396.0</ele><time>2026-03-23T15:13:47.999Z</time></trkpt><trkpt lat="42.431566769486196" lon="-8.070408662523704"><ele>396.0</ele><time>2026-03-23T15:13:48.999Z</time></trkpt><trkpt lat="42.43152326891634" lon="-8.07030254482374"><ele>396.0</ele><time>2026-03-23T15:13:49.999Z</time></trkpt><trkpt lat="42.43147203079716" lon="-8.07018993028087"><ele>396.0</ele><time>2026-03-23T15:13:50.999Z</time></trkpt><trkpt lat="42.4314362575365" lon="-8.07009510991971"><ele>396.0</ele><time>2026-03-23T15:13:51.999Z</time></trkpt><trkpt lat="42.43139216733388" lon="-8.069996345682718"><ele>396.0</ele><time>2026-03-23T15:13:52.999Z</time></trkpt><trkpt lat="42.4313546411792" lon="-8.06989979699762"><ele>396.0</ele><time>2026-03-23T15:13:53.999Z</time></trkpt><trkpt lat="42.4313109299314" lon="-8.069798691423841"><ele>396.0</ele><time>2026-03-23T15:13:54.999Z</time></trkpt><trkpt lat="42.431272327765946" lon="-8.069709320371006"><ele>396.0</ele><time>2026-03-23T15:13:55.999Z</time></trkpt><trkpt lat="42.43122998262853" lon="-8.069618289368666"><ele>396.0</ele><time>2026-03-23T15:13:56.999Z</time></trkpt><trkpt lat="42.4311898713455" lon="-8.069531116630007"><ele>396.0</ele><time>2026-03-23T15:13:57.999Z</time></trkpt><trkpt lat="42.4311562997217" lon="-8.069443972270987"><ele>396.0</ele><time>2026-03-23T15:13:58.999Z</time></trkpt><trkpt lat="42.43111664780137" lon="-8.06935668657816"><ele>396.0</ele><time>2026-03-23T15:13:59.999Z</time></trkpt><trkpt lat="42.43107301855735" lon="-8.069265402596946"><ele>396.0</ele><time>2026-03-23T15:14:00.999Z</time></trkpt><trkpt lat="42.4310311860361" lon="-8.069182392469415"><ele>396.0</ele><time>2026-03-23T15:14:01.999Z</time></trkpt><trkpt lat="42.43098843149017" lon="-8.069085312558373"><ele>396.0</ele><time>2026-03-23T15:14:02.999Z</time></trkpt><trkpt lat="42.43094807444683" lon="-8.06899499266243"><ele>396.0</ele><time>2026-03-23T15:14:03.999Z</time></trkpt><trkpt lat="42.43091038327123" lon="-8.068899240561972"><ele>396.0</ele><time>2026-03-23T15:14:04.999Z</time></trkpt><trkpt lat="42.430875930564966" lon="-8.068802262606017"><ele>396.0</ele><time>2026-03-23T15:14:05.999Z</time></trkpt><trkpt lat="42.43084163848841" lon="-8.06872531160092"><ele>396.0</ele><time>2026-03-23T15:14:06.999Z</time></trkpt><trkpt lat="42.43075266815026" lon="-8.068633006359631"><ele>396.0</ele><time>2026-03-23T15:14:08.999Z</time></trkpt><trkpt lat="42.43068585832672" lon="-8.06859169781672"><ele>396.0</ele><time>2026-03-23T15:14:10.999Z</time></trkpt><trkpt lat="42.43057193730873" lon="-8.068716220938663"><ele>396.0</ele><time>2026-03-23T15:14:11.999Z</time></trkpt><trkpt lat="42.430503680069506" lon="-8.068737180831167"><ele>396.0</ele><time>2026-03-23T15:14:12.999Z</time></trkpt><trkpt lat="42.43043375399193" lon="-8.06875865308477"><ele>396.0</ele><time>2026-03-23T15:14:13.999Z</time></trkpt><trkpt lat="42.43036625757991" lon="-8.068779379258256"><ele>396.0</ele><time>2026-03-23T15:14:14.999Z</time></trkpt><trkpt lat="42.43030104237427" lon="-8.068799404942515"><ele>396.0</ele><time>2026-03-23T15:14:15.999Z</time></trkpt><trkpt lat="42.43021994741235" lon="-8.06882319884852"><ele>394.8333333333333</ele><time>2026-03-23T15:14:16.999Z</time></trkpt><trkpt lat="42.43014305431654" lon="-8.068844989522661"><ele>393.66666666666663</ele><time>2026-03-23T15:14:17.999Z</time></trkpt><trkpt lat="42.43006047704716" lon="-8.06886839097821"><ele>392.5</ele><time>2026-03-23T15:14:18.999Z</time></trkpt><trkpt lat="42.429970316423955" lon="-8.068893941524891"><ele>391.3333333333333</ele><time>2026-03-23T15:14:19.999Z</time></trkpt><trkpt lat="42.42989439239921" lon="-8.068915457431418"><ele>390.16666666666663</ele><time>2026-03-23T15:14:20.999Z</time></trkpt><trkpt lat="42.42982269272697" lon="-8.068913840359153"><ele>389.0</ele><time>2026-03-23T15:14:21.999Z</time></trkpt><trkpt lat="42.429750977895054" lon="-8.068948089669277"><ele>389.0</ele><time>2026-03-23T15:14:22.999Z</time></trkpt><trkpt lat="42.429662345656695" lon="-8.068961573499527"><ele>389.0</ele><time>2026-03-23T15:14:24.999Z</time></trkpt><trkpt lat="42.42959488884891" lon="-8.06874468589685"><ele>389.0</ele><time>2026-03-23T15:14:29.999Z</time></trkpt><trkpt lat="42.42959952448525" lon="-8.068652299219735"><ele>389.0</ele><time>2026-03-23T15:14:30.999Z</time></trkpt><trkpt lat="42.42959124206081" lon="-8.06849753774914"><ele>389.0</ele><time>2026-03-23T15:14:32.999Z</time></trkpt><trkpt lat="42.42959274915355" lon="-8.068370686894665"><ele>383.0</ele><time>2026-03-23T15:14:34.999Z</time></trkpt><trkpt lat="42.429576855124346" lon="-8.068266566027964"><ele>384.0</ele><time>2026-03-23T15:14:36.999Z</time></trkpt></trkseg><trkseg><trkpt lat="42.42964194565372" lon="-8.068793452399868"><ele>384.2</ele><time>2026-03-23T16:08:39.998Z</time></trkpt><trkpt lat="42.429648956960335" lon="-8.068923005037716"><ele>385.4</ele><time>2026-03-23T16:08:40.998Z</time></trkpt><trkpt lat="42.42965146813751" lon="-8.069071906424869"><ele>386.59999999999997</ele><time>2026-03-23T16:08:41.998Z</time></trkpt><trkpt lat="42.4296566613561" lon="-8.06920087201009"><ele>387.79999999999995</ele><time>2026-03-23T16:08:42.998Z</time></trkpt><trkpt lat="42.429658751501705" lon="-8.069349065124856"><ele>389.0</ele><time>2026-03-23T16:08:43.999Z</time></trkpt><trkpt lat="42.42964843848656" lon="-8.069488917093635"><ele>389.0</ele><time>2026-03-23T16:08:44.999Z</time></trkpt><trkpt lat="42.42963987427248" lon="-8.069621646116099"><ele>389.0</ele><time>2026-03-23T16:08:45.999Z</time></trkpt><trkpt lat="42.4296365643701" lon="-8.069765036935708"><ele>389.0</ele><time>2026-03-23T16:08:46.999Z</time></trkpt><trkpt lat="42.42962999608984" lon="-8.069910680532363"><ele>389.0</ele><time>2026-03-23T16:08:47.999Z</time></trkpt><trkpt lat="42.42963974517228" lon="-8.070061679117558"><ele>389.0</ele><time>2026-03-23T16:08:48.999Z</time></trkpt><trkpt lat="42.42965008136111" lon="-8.070213384933835"><ele>389.0</ele><time>2026-03-23T16:08:49.999Z</time></trkpt><trkpt lat="42.42966177853345" lon="-8.07036420745067"><ele>389.0</ele><time>2026-03-23T16:08:50.999Z</time></trkpt><trkpt lat="42.429674757668195" lon="-8.070516133431427"><ele>389.0</ele><time>2026-03-23T16:08:51.999Z</time></trkpt><trkpt lat="42.42968646435399" lon="-8.070667903466818"><ele>389.0</ele><time>2026-03-23T16:08:52.999Z</time></trkpt><trkpt lat="42.42970632417196" lon="-8.07081488664781"><ele>389.0</ele><time>2026-03-23T16:08:53.999Z</time></trkpt><trkpt lat="42.42973375340754" lon="-8.0709751377172"><ele>389.0</ele><time>2026-03-23T16:08:54.999Z</time></trkpt><trkpt lat="42.42976126248782" lon="-8.071138528393705"><ele>389.0</ele><time>2026-03-23T16:08:55.999Z</time></trkpt><trkpt lat="42.429805215232435" lon="-8.071297898866986"><ele>389.0</ele><time>2026-03-23T16:08:56.999Z</time></trkpt><trkpt lat="42.429835186627386" lon="-8.071455099650645"><ele>389.0</ele><time>2026-03-23T16:08:57.999Z</time></trkpt><trkpt lat="42.42986374594624" lon="-8.071593571641003"><ele>389.16666666666663</ele><time>2026-03-23T16:08:58.999Z</time></trkpt><trkpt lat="42.42989195456631" lon="-8.071728096040008"><ele>389.3333333333333</ele><time>2026-03-23T16:08:59.999Z</time></trkpt><trkpt lat="42.42991959512764" lon="-8.07183921800558"><ele>389.5</ele><time>2026-03-23T16:09:00.999Z</time></trkpt><trkpt lat="42.4299430185438" lon="-8.071948941564152"><ele>389.66666666666663</ele><time>2026-03-23T16:09:01.999Z</time></trkpt><trkpt lat="42.429954834766626" lon="-8.072040722407941"><ele>389.8333333333333</ele><time>2026-03-23T16:09:02.999Z</time></trkpt><trkpt lat="42.42998334965778" lon="-8.07213299653794"><ele>390.0</ele><time>2026-03-23T16:09:03.999Z</time></trkpt><trkpt lat="42.43001723876163" lon="-8.07221735838734"><ele>390.0</ele><time>2026-03-23T16:09:04.999Z</time></trkpt><trkpt lat="42.430038922306466" lon="-8.07233134942909"><ele>390.0</ele><time>2026-03-23T16:09:05.999Z</time></trkpt><trkpt lat="42.43003455637408" lon="-8.072532362775178"><ele>390.0</ele><time>2026-03-23T16:09:06.999Z</time></trkpt><trkpt lat="42.430083624694724" lon="-8.072676208764262"><ele>390.0</ele><time>2026-03-23T16:09:07.999Z</time></trkpt><trkpt lat="42.43011390551811" lon="-8.072845573805454"><ele>391.0</ele><time>2026-03-23T16:09:08.999Z</time></trkpt><trkpt lat="42.430155002004305" lon="-8.073032395533536"><ele>392.0</ele><time>2026-03-23T16:09:09.999Z</time></trkpt><trkpt lat="42.430197076412895" lon="-8.073225394753974"><ele>393.0</ele><time>2026-03-23T16:09:10.999Z</time></trkpt><trkpt lat="42.43024233208265" lon="-8.073418616586812"><ele>394.0</ele><time>2026-03-23T16:09:11.999Z</time></trkpt><trkpt lat="42.43028266258621" lon="-8.07360789073517"><ele>395.0</ele><time>2026-03-23T16:09:12.999Z</time></trkpt><trkpt lat="42.43032812740668" lon="-8.073809213947534"><ele>396.0</ele><time>2026-03-23T16:09:13.999Z</time></trkpt><trkpt lat="42.430373145677066" lon="-8.074010768230718"><ele>397.0</ele><time>2026-03-23T16:09:14.999Z</time></trkpt><trkpt lat="42.43041934829194" lon="-8.074201655435477"><ele>397.0</ele><time>2026-03-23T16:09:15.999Z</time></trkpt><trkpt lat="42.430450552766594" lon="-8.07437213290737"><ele>397.0</ele><time>2026-03-23T16:09:16.999Z</time></trkpt><trkpt lat="42.43048526778912" lon="-8.074517158106486"><ele>397.0</ele><time>2026-03-23T16:09:17.999Z</time></trkpt><trkpt lat="42.430516606931505" lon="-8.074666552434097"><ele>397.0</ele><time>2026-03-23T16:09:18.999Z</time></trkpt><trkpt lat="42.430541609485594" lon="-8.07478292762862"><ele>397.0</ele><time>2026-03-23T16:09:19.999Z</time></trkpt><trkpt lat="42.430564431668635" lon="-8.074892419006105"><ele>398.1666666666667</ele><time>2026-03-23T16:09:20.999Z</time></trkpt><trkpt lat="42.430587281732" lon="-8.074974435695406"><ele>399.33333333333337</ele><time>2026-03-23T16:09:21.999Z</time></trkpt><trkpt lat="42.43061014865942" lon="-8.075070927545726"><ele>400.5</ele><time>2026-03-23T16:09:22.999Z</time></trkpt><trkpt lat="42.43062660044968" lon="-8.075161033609849"><ele>401.66666666666663</ele><time>2026-03-23T16:09:23.999Z</time></trkpt><trkpt lat="42.430674546255176" lon="-8.075219143404626"><ele>402.8333333333333</ele><time>2026-03-23T16:09:24.999Z</time></trkpt><trkpt lat="42.430652473889594" lon="-8.075325369639648"><ele>404.0</ele><time>2026-03-23T16:09:26.999Z</time></trkpt><trkpt lat="42.43050372392898" lon="-8.075384603650743"><ele>403.2</ele><time>2026-03-23T16:09:34.999Z</time></trkpt><trkpt lat="42.43043155385537" lon="-8.075411565467688"><ele>402.4</ele><time>2026-03-23T16:09:35.999Z</time></trkpt><trkpt lat="42.43035760808695" lon="-8.07542651869203"><ele>401.6</ele><time>2026-03-23T16:09:36.999Z</time></trkpt><trkpt lat="42.430269253197906" lon="-8.07542836685816"><ele>400.8</ele><time>2026-03-23T16:09:38.999Z</time></trkpt><trkpt lat="42.43015996466115" lon="-8.075200982980325"><ele>400.0</ele><time>2026-03-23T16:09:42.999Z</time></trkpt><trkpt lat="42.43014367335832" lon="-8.075108209630207"><ele>400.00000000000006</ele><time>2026-03-23T16:09:43.999Z</time></trkpt><trkpt lat="42.43012292227051" lon="-8.074990039475221"><ele>400.0</ele><time>2026-03-23T16:09:45.999Z</time></trkpt><trkpt lat="42.43025245025391" lon="-8.074921798034177"><ele>400.0</ele><time>2026-03-23T16:09:48.999Z</time></trkpt><trkpt lat="42.43030677869422" lon="-8.074877923151705"><ele>400.0</ele><time>2026-03-23T16:09:52.999Z</time></trkpt><trkpt lat="42.43032469442437" lon="-8.074823814019778"><ele>400.00000000000006</ele><time>2026-03-23T16:19:19.001Z</time></trkpt><trkpt lat="42.430387147786234" lon="-8.074812999559953"><ele>400.0</ele><time>2026-03-23T16:19:22.001Z</time></trkpt><trkpt lat="42.43047235932936" lon="-8.074700431635252"><ele>399.4</ele><time>2026-03-23T16:19:37Z</time></trkpt><trkpt lat="42.43042608333687" lon="-8.074573291869664"><ele>398.8</ele><time>2026-03-23T16:19:39Z</time></trkpt><trkpt lat="42.43041552153257" lon="-8.074473045111224"><ele>398.20000000000005</ele><time>2026-03-23T16:19:40Z</time></trkpt><trkpt lat="42.43039960229749" lon="-8.074328931906223"><ele>397.6</ele><time>2026-03-23T16:19:42Z</time></trkpt><trkpt lat="42.43036462491271" lon="-8.074167034810577"><ele>397.0</ele><time>2026-03-23T16:19:44Z</time></trkpt><trkpt lat="42.43034656744574" lon="-8.074083453673362"><ele>397.0</ele><time>2026-03-23T16:19:45Z</time></trkpt><trkpt lat="42.430323500084704" lon="-8.07397668348469"><ele>397.0</ele><time>2026-03-23T16:19:46Z</time></trkpt><trkpt lat="42.43029855598444" lon="-8.073861226659133"><ele>397.0</ele><time>2026-03-23T16:19:47Z</time></trkpt><trkpt lat="42.430270906419615" lon="-8.073733246694342"><ele>397.0</ele><time>2026-03-23T16:19:48Z</time></trkpt><trkpt lat="42.430242724877445" lon="-8.073599184595896"><ele>397.0</ele><time>2026-03-23T16:19:49Z</time></trkpt><trkpt lat="42.430213660114475" lon="-8.073462022147265"><ele>397.0</ele><time>2026-03-23T16:19:50Z</time></trkpt><trkpt lat="42.430193863172946" lon="-8.073292833794872"><ele>397.0</ele><time>2026-03-23T16:19:51Z</time></trkpt><trkpt lat="42.430151894914864" lon="-8.073168607716989"><ele>397.0</ele><time>2026-03-23T16:19:52Z</time></trkpt><trkpt lat="42.43012232814572" lon="-8.073027672191872"><ele>397.0</ele><time>2026-03-23T16:19:53Z</time></trkpt><trkpt lat="42.43009403162356" lon="-8.072892791562703"><ele>397.0</ele><time>2026-03-23T16:19:54Z</time></trkpt><trkpt lat="42.43006999775237" lon="-8.072752829611952"><ele>396.40000000000003</ele><time>2026-03-23T16:19:55Z</time></trkpt><trkpt lat="42.430044373421204" lon="-8.072624135630743"><ele>395.8</ele><time>2026-03-23T16:19:56Z</time></trkpt><trkpt lat="42.43002026915336" lon="-8.072514038436625"><ele>395.2</ele><time>2026-03-23T16:19:57Z</time></trkpt><trkpt lat="42.42998746012626" lon="-8.072390621495018"><ele>394.6</ele><time>2026-03-23T16:19:59Z</time></trkpt><trkpt lat="42.429926910178715" lon="-8.072243310177647"><ele>394.0</ele><time>2026-03-23T16:20:02Z</time></trkpt><trkpt lat="42.429926648531655" lon="-8.072113619007606"><ele>393.2</ele><time>2026-03-23T16:20:03Z</time></trkpt><trkpt lat="42.42990637688284" lon="-8.071963752507925"><ele>392.4</ele><time>2026-03-23T16:20:04Z</time></trkpt><trkpt lat="42.429862724049656" lon="-8.071816049694977"><ele>391.6</ele><time>2026-03-23T16:20:05Z</time></trkpt><trkpt lat="42.42983139461093" lon="-8.071668682438643"><ele>390.8</ele><time>2026-03-23T16:20:06Z</time></trkpt><trkpt lat="42.429802840540326" lon="-8.071534370014557"><ele>390.0</ele><time>2026-03-23T16:20:07Z</time></trkpt><trkpt lat="42.429788983936966" lon="-8.071395569734712"><ele>389.8</ele><time>2026-03-23T16:20:08Z</time></trkpt><trkpt lat="42.429756282504655" lon="-8.071272028015697"><ele>389.6</ele><time>2026-03-23T16:20:09Z</time></trkpt><trkpt lat="42.42973124163403" lon="-8.071145569445457"><ele>389.4</ele><time>2026-03-23T16:20:10Z</time></trkpt><trkpt lat="42.42970691799717" lon="-8.07102337426537"><ele>389.2</ele><time>2026-03-23T16:20:11Z</time></trkpt><trkpt lat="42.429676047848744" lon="-8.070906116704649"><ele>389.0</ele><time>2026-03-23T16:20:12Z</time></trkpt><trkpt lat="42.4296564642161" lon="-8.070788947971536"><ele>388.99999999999994</ele><time>2026-03-23T16:20:13Z</time></trkpt><trkpt lat="42.42964384007936" lon="-8.070668252136088"><ele>389.0</ele><time>2026-03-23T16:20:14Z</time></trkpt><trkpt lat="42.429639703489116" lon="-8.070550067485309"><ele>389.0</ele><time>2026-03-23T16:20:15Z</time></trkpt><trkpt lat="42.42963090523761" lon="-8.070419568570625"><ele>389.0</ele><time>2026-03-23T16:20:16Z</time></trkpt><trkpt lat="42.42962305182627" lon="-8.07029401545531"><ele>388.99999999999994</ele><time>2026-03-23T16:20:17Z</time></trkpt><trkpt lat="42.42961964799147" lon="-8.070186221660725"><ele>389.0</ele><time>2026-03-23T16:20:18Z</time></trkpt><trkpt lat="42.429616744700276" lon="-8.07007300823367"><ele>388.0</ele><time>2026-03-23T16:20:19Z</time></trkpt><trkpt lat="42.42961494398803" lon="-8.069963169835013"><ele>387.0</ele><time>2026-03-23T16:20:20Z</time></trkpt><trkpt lat="42.42961430364105" lon="-8.069841129323663"><ele>386.0</ele><time>2026-03-23T16:20:21Z</time></trkpt><trkpt lat="42.429597230259645" lon="-8.069724320880065"><ele>385.0</ele><time>2026-03-23T16:20:22Z</time></trkpt><trkpt lat="42.429597291371465" lon="-8.069593994852697"><ele>384.0</ele><time>2026-03-23T16:20:23Z</time></trkpt><trkpt lat="42.429595949753114" lon="-8.069465405130929"><ele>383.79999999999995</ele><time>2026-03-23T16:20:24Z</time></trkpt><trkpt lat="42.429594617232055" lon="-8.069334339668261"><ele>383.59999999999997</ele><time>2026-03-23T16:20:25Z</time></trkpt><trkpt lat="42.429593258323074" lon="-8.069200678824208"><ele>383.4</ele><time>2026-03-23T16:20:26Z</time></trkpt><trkpt lat="42.42959198364812" lon="-8.069070043783357"><ele>383.2</ele><time>2026-03-23T16:20:27Z</time></trkpt><trkpt lat="42.42959086580406" lon="-8.068954570547259"><ele>383.0</ele><time>2026-03-23T16:20:28Z</time></trkpt><trkpt lat="42.42960559033563" lon="-8.068849074164776"><ele>383.0</ele><time>2026-03-23T16:20:29Z</time></trkpt><trkpt lat="42.4296033898174" lon="-8.06875153217309"><ele>383.0</ele><time>2026-03-23T16:20:29.999Z</time></trkpt><trkpt lat="42.429603648348824" lon="-8.068656120134449"><ele>383.0</ele><time>2026-03-23T16:20:30.999Z</time></trkpt><trkpt lat="42.429602330552946" lon="-8.068559424909468"><ele>383.0</ele><time>2026-03-23T16:20:31.999Z</time></trkpt><trkpt lat="42.429582709583336" lon="-8.068459289729876"><ele>383.0</ele><time>2026-03-23T16:20:32.999Z</time></trkpt><trkpt lat="42.42957951833628" lon="-8.068354236496162"><ele>383.0</ele><time>2026-03-23T16:20:33.999Z</time></trkpt><trkpt lat="42.42957609075564" lon="-8.06825310526878"><ele>383.0</ele><time>2026-03-23T16:20:34.999Z</time></trkpt><trkpt lat="42.42957112651248" lon="-8.068143639406639"><ele>383.2</ele><time>2026-03-23T16:20:35.999Z</time></trkpt><trkpt lat="42.429560417296614" lon="-8.06802747045538"><ele>383.4</ele><time>2026-03-23T16:20:36.999Z</time></trkpt><trkpt lat="42.42954468743701" lon="-8.067913768271744"><ele>383.59999999999997</ele><time>2026-03-23T16:20:37.999Z</time></trkpt><trkpt lat="42.42951600446326" lon="-8.067785401870115"><ele>383.79999999999995</ele><time>2026-03-23T16:20:38.999Z</time></trkpt><trkpt lat="42.42949980463308" lon="-8.067661040280463"><ele>384.0</ele><time>2026-03-23T16:20:39.999Z</time></trkpt><trkpt lat="42.429442230643666" lon="-8.06754341182181"><ele>384.79999999999995</ele><time>2026-03-23T16:20:40.999Z</time></trkpt><trkpt lat="42.42940806815961" lon="-8.067407748995901"><ele>385.59999999999997</ele><time>2026-03-23T16:20:41.999Z</time></trkpt><trkpt lat="42.42936316534994" lon="-8.067282730059715"><ele>386.4</ele><time>2026-03-23T16:20:42.999Z</time></trkpt><trkpt lat="42.4293123259493" lon="-8.067156130681742"><ele>387.2</ele><time>2026-03-23T16:20:43.999Z</time></trkpt><trkpt lat="42.429266878897856" lon="-8.067034615309295"><ele>388.0</ele><time>2026-03-23T16:20:44.999Z</time></trkpt><trkpt lat="42.42921557822426" lon="-8.06690312878067"><ele>388.0</ele><time>2026-03-23T16:20:45.999Z</time></trkpt><trkpt lat="42.429164934129496" lon="-8.066772885560265"><ele>388.0</ele><time>2026-03-23T16:20:46.999Z</time></trkpt><trkpt lat="42.42911759217914" lon="-8.066646470156739"><ele>388.0</ele><time>2026-03-23T16:20:47.999Z</time></trkpt><trkpt lat="42.42906763344113" lon="-8.066533630790387"><ele>388.0</ele><time>2026-03-23T16:20:48.999Z</time></trkpt><trkpt lat="42.42901885571409" lon="-8.066416761052515"><ele>388.0</ele><time>2026-03-23T16:20:49.999Z</time></trkpt><trkpt lat="42.428971054102874" lon="-8.066303352873197"><ele>387.83333333333337</ele><time>2026-03-23T16:20:50.999Z</time></trkpt><trkpt lat="42.42893089924739" lon="-8.066201067408995"><ele>387.6666666666667</ele><time>2026-03-23T16:20:51.999Z</time></trkpt><trkpt lat="42.42889322922642" lon="-8.066095245819032"><ele>387.5</ele><time>2026-03-23T16:20:52.999Z</time></trkpt><trkpt lat="42.42885192807386" lon="-8.065986710246138"><ele>387.33333333333337</ele><time>2026-03-23T16:20:53.999Z</time></trkpt><trkpt lat="42.42880616838669" lon="-8.065874748084717"><ele>387.1666666666667</ele><time>2026-03-23T16:20:54.999Z</time></trkpt><trkpt lat="42.42877099354614" lon="-8.065766837915268"><ele>387.0</ele><time>2026-03-23T16:20:55.999Z</time></trkpt><trkpt lat="42.42873298838979" lon="-8.065660162426658"><ele>387.0</ele><time>2026-03-23T16:20:56.999Z</time></trkpt><trkpt lat="42.42869485809748" lon="-8.06555781092298"><ele>387.0</ele><time>2026-03-23T16:20:57.999Z</time></trkpt><trkpt lat="42.428659471465394" lon="-8.065452529170843"><ele>387.0</ele><time>2026-03-23T16:20:58.999Z</time></trkpt><trkpt lat="42.42862193909077" lon="-8.065342563165839"><ele>387.0</ele><time>2026-03-23T16:20:59.999Z</time></trkpt><trkpt lat="42.428580080452505" lon="-8.065238144104658"><ele>387.0</ele><time>2026-03-23T16:21:00.999Z</time></trkpt><trkpt lat="42.42853469285933" lon="-8.065132021967589"><ele>387.0</ele><time>2026-03-23T16:21:01.999Z</time></trkpt><trkpt lat="42.42849459268453" lon="-8.065022218231105"><ele>387.20000000000005</ele><time>2026-03-23T16:21:02.999Z</time></trkpt><trkpt lat="42.42845430758324" lon="-8.064912441071042"><ele>387.4</ele><time>2026-03-23T16:21:03.999Z</time></trkpt><trkpt lat="42.42841567076145" lon="-8.064800207491118"><ele>387.6</ele><time>2026-03-23T16:21:04.999Z</time></trkpt><trkpt lat="42.428378265724696" lon="-8.064688250190155"><ele>387.79999999999995</ele><time>2026-03-23T16:21:05.999Z</time></trkpt><trkpt lat="42.42833487677689" lon="-8.06457905152467"><ele>388.0</ele><time>2026-03-23T16:21:06.999Z</time></trkpt><trkpt lat="42.42829668936303" lon="-8.064465454006543"><ele>388.00000000000006</ele><time>2026-03-23T16:21:07.999Z</time></trkpt><trkpt lat="42.42825854779328" lon="-8.064352807655174"><ele>388.0</ele><time>2026-03-23T16:21:08.999Z</time></trkpt><trkpt lat="42.42822324486353" lon="-8.06424745020353"><ele>388.0</ele><time>2026-03-23T16:21:09.999Z</time></trkpt><trkpt lat="42.42819327293348" lon="-8.064152131031555"><ele>388.0</ele><time>2026-03-23T16:21:10.999Z</time></trkpt><trkpt lat="42.42816598024283" lon="-8.064070927427553"><ele>388.00000000000006</ele><time>2026-03-23T16:21:11.999Z</time></trkpt><trkpt lat="42.42813066162374" lon="-8.063941955586312"><ele>388.0</ele><time>2026-03-23T16:21:13.999Z</time></trkpt><trkpt lat="42.42810564300307" lon="-8.063849537577495"><ele>388.2</ele><time>2026-03-23T16:21:15.999Z</time></trkpt><trkpt lat="42.42805482916361" lon="-8.06371489678713"><ele>388.4</ele><time>2026-03-23T16:21:17.999Z</time></trkpt><trkpt lat="42.428003385115126" lon="-8.063627276899235"><ele>388.59999999999997</ele><time>2026-03-23T16:21:18.999Z</time></trkpt><trkpt lat="42.427936332520794" lon="-8.063537252413594"><ele>388.79999999999995</ele><time>2026-03-23T16:21:20Z</time></trkpt><trkpt lat="42.427883664830134" lon="-8.06342310633717"><ele>389.0</ele><time>2026-03-23T16:21:21Z</time></trkpt><trkpt lat="42.42786506102198" lon="-8.063282654195723"><ele>389.25</ele><time>2026-03-23T16:21:22Z</time></trkpt><trkpt lat="42.42785722470102" lon="-8.063121157038893"><ele>389.5</ele><time>2026-03-23T16:21:23Z</time></trkpt><trkpt lat="42.42782313611579" lon="-8.062955880625983"><ele>389.75</ele><time>2026-03-23T16:21:24Z</time></trkpt><trkpt lat="42.42774620226525" lon="-8.06280163550293"><ele>390.0</ele><time>2026-03-23T16:21:25Z</time></trkpt><trkpt lat="42.42765606965024" lon="-8.062669278032795"><ele>390.0</ele><time>2026-03-23T16:21:26Z</time></trkpt><trkpt lat="42.42755196613344" lon="-8.062536377895558"><ele>390.0</ele><time>2026-03-23T16:21:27Z</time></trkpt><trkpt lat="42.427454802575944" lon="-8.062390003773402"><ele>390.0</ele><time>2026-03-23T16:21:28Z</time></trkpt><trkpt lat="42.427364737907325" lon="-8.06223167623034"><ele>390.0</ele><time>2026-03-23T16:21:29Z</time></trkpt><trkpt lat="42.42727442920719" lon="-8.062068885811707"><ele>390.0</ele><time>2026-03-23T16:21:30Z</time></trkpt><trkpt lat="42.42718890870944" lon="-8.061899897595332"><ele>390.0</ele><time>2026-03-23T16:21:31Z</time></trkpt><trkpt lat="42.42710372025238" lon="-8.06172585885331"><ele>390.0</ele><time>2026-03-23T16:21:32Z</time></trkpt><trkpt lat="42.42701918013743" lon="-8.061556881598689"><ele>392.0</ele><time>2026-03-23T16:21:33Z</time></trkpt><trkpt lat="42.42693867936307" lon="-8.061387845157105"><ele>394.0</ele><time>2026-03-23T16:21:34Z</time></trkpt><trkpt lat="42.42686067994144" lon="-8.061218336366466"><ele>396.0</ele><time>2026-03-23T16:21:35Z</time></trkpt><trkpt lat="42.426775834898294" lon="-8.061061668406442"><ele>398.0</ele><time>2026-03-23T16:21:36Z</time></trkpt><trkpt lat="42.42669649520542" lon="-8.060911434520088"><ele>399.25</ele><time>2026-03-23T16:21:37Z</time></trkpt><trkpt lat="42.426619956269334" lon="-8.06074837846448"><ele>400.5</ele><time>2026-03-23T16:21:38Z</time></trkpt><trkpt lat="42.42655624112511" lon="-8.06057162664158"><ele>401.75</ele><time>2026-03-23T16:21:39Z</time></trkpt><trkpt lat="42.42647462715623" lon="-8.060400906306121"><ele>403.0</ele><time>2026-03-23T16:21:40Z</time></trkpt><trkpt lat="42.42639553737411" lon="-8.060234981889403"><ele>403.0</ele><time>2026-03-23T16:21:41Z</time></trkpt><trkpt lat="42.42631706515102" lon="-8.060062128729204"><ele>403.0</ele><time>2026-03-23T16:21:42Z</time></trkpt><trkpt lat="42.42621770272634" lon="-8.059904540465075"><ele>403.0</ele><time>2026-03-23T16:21:43Z</time></trkpt><trkpt lat="42.426116944775345" lon="-8.059751917468125"><ele>404.6666666666667</ele><time>2026-03-23T16:21:44Z</time></trkpt><trkpt lat="42.42606214944475" lon="-8.05951962638771"><ele>406.33333333333337</ele><time>2026-03-23T16:21:45Z</time></trkpt><trkpt lat="42.42597665970338" lon="-8.059331404548953"><ele>408.0</ele><time>2026-03-23T16:21:46Z</time></trkpt><trkpt lat="42.42589122829551" lon="-8.059144633551236"><ele>407.66666666666663</ele><time>2026-03-23T16:21:47Z</time></trkpt><trkpt lat="42.4258018522489" lon="-8.058957036690119"><ele>407.3333333333333</ele><time>2026-03-23T16:21:48Z</time></trkpt><trkpt lat="42.42571296500109" lon="-8.058768414188247"><ele>407.0</ele><time>2026-03-23T16:21:49Z</time></trkpt><trkpt lat="42.42562391946027" lon="-8.058573534086436"><ele>407.0</ele><time>2026-03-23T16:21:50Z</time></trkpt><trkpt lat="42.42553277316903" lon="-8.058377205839404"><ele>407.0</ele><time>2026-03-23T16:21:51Z</time></trkpt><trkpt lat="42.425444397433765" lon="-8.058182599439744"><ele>407.0</ele><time>2026-03-23T16:21:52Z</time></trkpt><trkpt lat="42.42535544896086" lon="-8.057980880399679"><ele>408.66666666666663</ele><time>2026-03-23T16:21:53Z</time></trkpt><trkpt lat="42.42526706587603" lon="-8.057779525729467"><ele>410.33333333333337</ele><time>2026-03-23T16:21:54Z</time></trkpt><trkpt lat="42.42517694786153" lon="-8.057577291119687"><ele>412.0</ele><time>2026-03-23T16:21:55Z</time></trkpt><trkpt lat="42.425088081914964" lon="-8.057374396895396"><ele>413.33333333333337</ele><time>2026-03-23T16:21:56Z</time></trkpt><trkpt lat="42.42500114393049" lon="-8.057171963049942"><ele>414.66666666666663</ele><time>2026-03-23T16:21:57Z</time></trkpt><trkpt lat="42.4249204169576" lon="-8.056966242062922"><ele>416.0</ele><time>2026-03-23T16:21:58Z</time></trkpt><trkpt lat="42.424841828552346" lon="-8.056753875972548"><ele>415.3333333333333</ele><time>2026-03-23T16:21:59Z</time></trkpt><trkpt lat="42.42476866517847" lon="-8.056546930037886"><ele>414.66666666666663</ele><time>2026-03-23T16:22:00Z</time></trkpt><trkpt lat="42.42469752610942" lon="-8.056334793795198"><ele>414.0</ele><time>2026-03-23T16:22:01Z</time></trkpt><trkpt lat="42.424629762588225" lon="-8.056123067400039"><ele>414.0</ele><time>2026-03-23T16:22:02Z</time></trkpt><trkpt lat="42.4245611825378" lon="-8.055913741394711"><ele>414.0</ele><time>2026-03-23T16:22:03Z</time></trkpt><trkpt lat="42.42448533245311" lon="-8.055739940783807"><ele>414.0</ele><time>2026-03-23T16:22:04Z</time></trkpt><trkpt lat="42.42443910763311" lon="-8.05556881185857"><ele>415.0</ele><time>2026-03-23T16:22:05Z</time></trkpt><trkpt lat="42.424384976318315" lon="-8.055411867370626"><ele>416.0</ele><time>2026-03-23T16:22:06Z</time></trkpt><trkpt lat="42.42433253903479" lon="-8.055262359621588"><ele>417.0</ele><time>2026-03-23T16:22:07Z</time></trkpt><trkpt lat="42.4242798960462" lon="-8.055114042709828"><ele>418.0</ele><time>2026-03-23T16:22:08Z</time></trkpt><trkpt lat="42.42421490762745" lon="-8.05496241001299"><ele>418.75</ele><time>2026-03-23T16:22:09Z</time></trkpt><trkpt lat="42.42414900245532" lon="-8.054808779220156"><ele>419.5</ele><time>2026-03-23T16:22:10Z</time></trkpt><trkpt lat="42.42408193840258" lon="-8.054653006807136"><ele>420.25</ele><time>2026-03-23T16:22:10.999Z</time></trkpt><trkpt lat="42.42401791833142" lon="-8.054493220906592"><ele>421.0</ele><time>2026-03-23T16:22:11.999Z</time></trkpt><trkpt lat="42.42394266393627" lon="-8.054327419298435"><ele>421.0</ele><time>2026-03-23T16:22:12.999Z</time></trkpt><trkpt lat="42.42387500601975" lon="-8.05416275730668"><ele>421.0</ele><time>2026-03-23T16:22:13.999Z</time></trkpt><trkpt lat="42.42380758827758" lon="-8.053995195540024"><ele>421.0</ele><time>2026-03-23T16:22:14.999Z</time></trkpt><trkpt lat="42.42371999712042" lon="-8.053832224962347"><ele>421.0</ele><time>2026-03-23T16:22:15.999Z</time></trkpt><trkpt lat="42.42365619279365" lon="-8.05365717507665"><ele>420.0</ele><time>2026-03-23T16:22:16.999Z</time></trkpt><trkpt lat="42.4236216225627" lon="-8.053455862693973"><ele>419.0</ele><time>2026-03-23T16:22:17.999Z</time></trkpt><trkpt lat="42.42358824089313" lon="-8.053263940018683"><ele>418.0</ele><time>2026-03-23T16:22:18.999Z</time></trkpt><trkpt lat="42.423566774358356" lon="-8.05305347584609"><ele>417.6666666666667</ele><time>2026-03-23T16:22:19.999Z</time></trkpt><trkpt lat="42.423551786343445" lon="-8.052840687248095"><ele>417.33333333333337</ele><time>2026-03-23T16:22:20.999Z</time></trkpt><trkpt lat="42.42351961571849" lon="-8.052630944695721"><ele>417.0</ele><time>2026-03-23T16:22:21.999Z</time></trkpt><trkpt lat="42.423481278165674" lon="-8.052406470346341"><ele>418.33333333333337</ele><time>2026-03-23T16:22:22.999Z</time></trkpt><trkpt lat="42.42341958042915" lon="-8.052204356895118"><ele>419.6666666666667</ele><time>2026-03-23T16:22:23.999Z</time></trkpt><trkpt lat="42.42332799670432" lon="-8.05201150102431"><ele>421.0</ele><time>2026-03-23T16:22:24.999Z</time></trkpt><trkpt lat="42.42321243620206" lon="-8.05183338087273"><ele>421.0</ele><time>2026-03-23T16:22:25.999Z</time></trkpt><trkpt lat="42.42308153311863" lon="-8.051670777678998"><ele>421.0</ele><time>2026-03-23T16:22:26.999Z</time></trkpt><trkpt lat="42.42294569515324" lon="-8.051525701815372"><ele>421.0</ele><time>2026-03-23T16:22:27.999Z</time></trkpt><trkpt lat="42.422804450421275" lon="-8.05138303913895"><ele>423.0</ele><time>2026-03-23T16:22:28.999Z</time></trkpt><trkpt lat="42.42266039114876" lon="-8.05124391145679"><ele>425.0</ele><time>2026-03-23T16:22:29.999Z</time></trkpt><trkpt lat="42.42252616527758" lon="-8.05111141347335"><ele>427.0</ele><time>2026-03-23T16:22:30.999Z</time></trkpt><trkpt lat="42.422403485460656" lon="-8.050980200727134"><ele>427.0</ele><time>2026-03-23T16:22:31.999Z</time></trkpt><trkpt lat="42.42232791883366" lon="-8.05080909466129"><ele>427.0</ele><time>2026-03-23T16:22:32.999Z</time></trkpt><trkpt lat="42.42226990823755" lon="-8.050654873108867"><ele>427.0</ele><time>2026-03-23T16:22:33.999Z</time></trkpt><trkpt lat="42.42224375168326" lon="-8.050501167862821"><ele>427.0</ele><time>2026-03-23T16:22:34.999Z</time></trkpt><trkpt lat="42.42222978816537" lon="-8.050346172061822"><ele>427.0</ele><time>2026-03-23T16:22:35.999Z</time></trkpt><trkpt lat="42.422230667857654" lon="-8.050201505434359"><ele>427.00000000000006</ele><time>2026-03-23T16:22:36.999Z</time></trkpt><trkpt lat="42.42222549675461" lon="-8.050063826706754"><ele>427.00000000000006</ele><time>2026-03-23T16:22:37.999Z</time></trkpt><trkpt lat="42.422222074864905" lon="-8.049929741355262"><ele>427.0</ele><time>2026-03-23T16:22:38.999Z</time></trkpt><trkpt lat="42.42221137807101" lon="-8.049797527054254"><ele>427.0</ele><time>2026-03-23T16:22:39.999Z</time></trkpt><trkpt lat="42.422199629736305" lon="-8.049680664278323"><ele>427.0</ele><time>2026-03-23T16:22:40.999Z</time></trkpt><trkpt lat="42.42219402401545" lon="-8.049580281112663"><ele>427.0</ele><time>2026-03-23T16:22:41.999Z</time></trkpt><trkpt lat="42.42218298438426" lon="-8.04945994810546"><ele>427.0</ele><time>2026-03-23T16:22:42.999Z</time></trkpt><trkpt lat="42.42218045379437" lon="-8.049356131416706"><ele>427.0</ele><time>2026-03-23T16:22:43.999Z</time></trkpt><trkpt lat="42.422172512416374" lon="-8.049260797604461"><ele>427.0</ele><time>2026-03-23T16:22:44.999Z</time></trkpt><trkpt lat="42.42216207249161" lon="-8.049171880427803"><ele>427.0</ele><time>2026-03-23T16:22:45.999Z</time></trkpt><trkpt lat="42.42215988847299" lon="-8.049085781541171"><ele>427.0</ele><time>2026-03-23T16:22:46.999Z</time></trkpt><trkpt lat="42.42214549749983" lon="-8.048933861527996"><ele>425.6666666666667</ele><time>2026-03-23T16:22:48.999Z</time></trkpt><trkpt lat="42.42213698739028" lon="-8.048807309126348"><ele>424.33333333333337</ele><time>2026-03-23T16:22:50.999Z</time></trkpt><trkpt lat="42.4221258336991" lon="-8.048693256112772"><ele>423.0</ele><time>2026-03-23T16:22:52.999Z</time></trkpt><trkpt lat="42.422112435529286" lon="-8.048536210472433"><ele>421.66666666666663</ele><time>2026-03-23T16:22:54.999Z</time></trkpt><trkpt lat="42.422108727063666" lon="-8.048439147626919"><ele>420.3333333333333</ele><time>2026-03-23T16:22:55.999Z</time></trkpt><trkpt lat="42.422103116044816" lon="-8.048334830815246"><ele>419.0</ele><time>2026-03-23T16:22:56.999Z</time></trkpt><trkpt lat="42.42209312744652" lon="-8.048219870698667"><ele>418.25</ele><time>2026-03-23T16:22:57.999Z</time></trkpt><trkpt lat="42.422083451386705" lon="-8.048094311995547"><ele>417.5</ele><time>2026-03-23T16:22:58.999Z</time></trkpt><trkpt lat="42.4220559371043" lon="-8.047962120307222"><ele>416.75</ele><time>2026-03-23T16:22:59.999Z</time></trkpt><trkpt lat="42.42204216097814" lon="-8.047802412479069"><ele>416.0</ele><time>2026-03-23T16:23:00.999Z</time></trkpt><trkpt lat="42.4220263468611" lon="-8.047613717933688"><ele>416.0</ele><time>2026-03-23T16:23:01.999Z</time></trkpt><trkpt lat="42.422027135679755" lon="-8.047423657638294"><ele>416.0</ele><time>2026-03-23T16:23:02.999Z</time></trkpt><trkpt lat="42.42199720479546" lon="-8.047236195435309"><ele>416.0</ele><time>2026-03-23T16:23:03.999Z</time></trkpt><trkpt lat="42.4219903997165" lon="-8.047029886692671"><ele>416.0</ele><time>2026-03-23T16:23:04.999Z</time></trkpt><trkpt lat="42.42196673928787" lon="-8.046831983036487"><ele>415.3333333333333</ele><time>2026-03-23T16:23:05.999Z</time></trkpt><trkpt lat="42.42194955519666" lon="-8.046626953430984"><ele>414.66666666666663</ele><time>2026-03-23T16:23:06.999Z</time></trkpt><trkpt lat="42.42193959861444" lon="-8.04642317686078"><ele>414.0</ele><time>2026-03-23T16:23:07.999Z</time></trkpt><trkpt lat="42.42194018880126" lon="-8.04620791946063"><ele>414.0</ele><time>2026-03-23T16:23:08.999Z</time></trkpt><trkpt lat="42.421955906051366" lon="-8.04600632340071"><ele>414.0</ele><time>2026-03-23T16:23:09.999Z</time></trkpt><trkpt lat="42.42198573180105" lon="-8.045806916588273"><ele>414.0</ele><time>2026-03-23T16:23:10.999Z</time></trkpt><trkpt lat="42.42202943199261" lon="-8.045615425433638"><ele>414.0</ele><time>2026-03-23T16:23:11.999Z</time></trkpt><trkpt lat="42.42206143472576" lon="-8.045435678723859"><ele>413.25</ele><time>2026-03-23T16:23:12.999Z</time></trkpt><trkpt lat="42.42208952773806" lon="-8.045245062380886"><ele>412.5</ele><time>2026-03-23T16:23:13.999Z</time></trkpt><trkpt lat="42.42212384398613" lon="-8.045063036955469"><ele>411.75</ele><time>2026-03-23T16:23:14.999Z</time></trkpt><trkpt lat="42.42214360911822" lon="-8.044873212246403"><ele>411.0</ele><time>2026-03-23T16:23:15.999Z</time></trkpt><trkpt lat="42.422119598540895" lon="-8.044686700016847"><ele>410.5</ele><time>2026-03-23T16:23:16.999Z</time></trkpt><trkpt lat="42.42208733677012" lon="-8.04450447922727"><ele>410.0</ele><time>2026-03-23T16:23:17.999Z</time></trkpt><trkpt lat="42.4220436145797" lon="-8.044328782918678"><ele>409.5</ele><time>2026-03-23T16:23:18.999Z</time></trkpt><trkpt lat="42.42198341509935" lon="-8.044155981314827"><ele>409.0</ele><time>2026-03-23T16:23:19.999Z</time></trkpt><trkpt lat="42.421907255589176" lon="-8.044001332185601"><ele>409.0</ele><time>2026-03-23T16:23:20.999Z</time></trkpt><trkpt lat="42.42182403296202" lon="-8.043837755108155"><ele>409.0</ele><time>2026-03-23T16:23:21.999Z</time></trkpt><trkpt lat="42.42173982243992" lon="-8.043677663365001"><ele>409.0</ele><time>2026-03-23T16:23:22.999Z</time></trkpt><trkpt lat="42.42165096764436" lon="-8.043514162214002"><ele>409.0</ele><time>2026-03-23T16:23:23.999Z</time></trkpt><trkpt lat="42.4215579317776" lon="-8.043346955489342"><ele>408.0</ele><time>2026-03-23T16:23:24.999Z</time></trkpt><trkpt lat="42.42146488995709" lon="-8.0431576357583"><ele>407.0</ele><time>2026-03-23T16:23:25.999Z</time></trkpt><trkpt lat="42.421358612740896" lon="-8.042989368755888"><ele>406.0</ele><time>2026-03-23T16:23:26.999Z</time></trkpt><trkpt lat="42.42125228449215" lon="-8.042822142420478"><ele>406.0</ele><time>2026-03-23T16:23:27.999Z</time></trkpt><trkpt lat="42.42112739094216" lon="-8.042685908166076"><ele>406.0</ele><time>2026-03-23T16:23:28.999Z</time></trkpt><trkpt lat="42.4210062910363" lon="-8.04254343124385"><ele>406.0</ele><time>2026-03-23T16:23:29.999Z</time></trkpt><trkpt lat="42.42088221710504" lon="-8.042410791009292"><ele>408.33333333333337</ele><time>2026-03-23T16:23:30.999Z</time></trkpt><trkpt lat="42.420750893439795" lon="-8.042294647826608"><ele>410.66666666666663</ele><time>2026-03-23T16:23:31.999Z</time></trkpt><trkpt lat="42.42061416228561" lon="-8.042192471877573"><ele>413.0</ele><time>2026-03-23T16:23:32.999Z</time></trkpt><trkpt lat="42.42047633350508" lon="-8.042101186801586"><ele>413.0</ele><time>2026-03-23T16:23:33.999Z</time></trkpt><trkpt lat="42.42033858820176" lon="-8.042019204486813"><ele>413.0</ele><time>2026-03-23T16:23:34.999Z</time></trkpt><trkpt lat="42.420200307647875" lon="-8.041947233460894"><ele>413.0</ele><time>2026-03-23T16:23:35.999Z</time></trkpt><trkpt lat="42.42005432352553" lon="-8.04187917608454"><ele>413.0</ele><time>2026-03-23T16:23:36.999Z</time></trkpt><trkpt lat="42.41990051224331" lon="-8.041818150484579"><ele>413.0</ele><time>2026-03-23T16:23:37.999Z</time></trkpt><trkpt lat="42.419745710749865" lon="-8.041751253233434"><ele>413.0</ele><time>2026-03-23T16:23:38.999Z</time></trkpt><trkpt lat="42.41958637130812" lon="-8.041701077157855"><ele>413.0</ele><time>2026-03-23T16:23:39.999Z</time></trkpt><trkpt lat="42.41941982659393" lon="-8.041641479420326"><ele>413.0</ele><time>2026-03-23T16:23:40.999Z</time></trkpt><trkpt lat="42.41925412677688" lon="-8.041582197701787"><ele>413.0</ele><time>2026-03-23T16:23:41.999Z</time></trkpt><trkpt lat="42.419089689149615" lon="-8.04152061674997"><ele>415.0</ele><time>2026-03-23T16:23:42.999Z</time></trkpt><trkpt lat="42.41893265319001" lon="-8.04145288893716"><ele>417.0</ele><time>2026-03-23T16:23:43.999Z</time></trkpt><trkpt lat="42.418783438046994" lon="-8.041377092354931"><ele>419.0</ele><time>2026-03-23T16:23:44.999Z</time></trkpt><trkpt lat="42.41864447946955" lon="-8.041287953755603"><ele>419.0</ele><time>2026-03-23T16:23:45.999Z</time></trkpt><trkpt lat="42.41852113994633" lon="-8.041169076257903"><ele>419.0</ele><time>2026-03-23T16:23:46.999Z</time></trkpt><trkpt lat="42.41839939462374" lon="-8.041031917999328"><ele>419.0</ele><time>2026-03-23T16:23:47.999Z</time></trkpt><trkpt lat="42.418282457687724" lon="-8.040900456776821"><ele>418.3333333333333</ele><time>2026-03-23T16:23:48.999Z</time></trkpt><trkpt lat="42.41815443451449" lon="-8.040796408512382"><ele>417.66666666666663</ele><time>2026-03-23T16:23:49.999Z</time></trkpt><trkpt lat="42.41804343033363" lon="-8.040649155951385"><ele>417.0</ele><time>2026-03-23T16:23:50.999Z</time></trkpt><trkpt lat="42.41792942520733" lon="-8.040517149615933"><ele>417.0</ele><time>2026-03-23T16:23:51.999Z</time></trkpt><trkpt lat="42.417815407342665" lon="-8.040382970671176"><ele>417.0</ele><time>2026-03-23T16:23:52.999Z</time></trkpt><trkpt lat="42.41774017609243" lon="-8.04019484604973"><ele>417.0</ele><time>2026-03-23T16:23:53.999Z</time></trkpt><trkpt lat="42.41767244568818" lon="-8.04001275442421"><ele>418.0</ele><time>2026-03-23T16:23:54.999Z</time></trkpt><trkpt lat="42.41761765569242" lon="-8.039839354990722"><ele>419.0</ele><time>2026-03-23T16:23:55.999Z</time></trkpt><trkpt lat="42.41757515011988" lon="-8.039681622840687"><ele>420.0</ele><time>2026-03-23T16:23:56.999Z</time></trkpt><trkpt lat="42.41752575582542" lon="-8.039523628989912"><ele>421.0</ele><time>2026-03-23T16:23:57.999Z</time></trkpt><trkpt lat="42.41747346924499" lon="-8.039361680525708"><ele>421.0</ele><time>2026-03-23T16:23:58.999Z</time></trkpt><trkpt lat="42.41742563236916" lon="-8.039204973271167"><ele>421.0</ele><time>2026-03-23T16:23:59.999Z</time></trkpt><trkpt lat="42.417373885383334" lon="-8.03905218516925"><ele>421.0</ele><time>2026-03-23T16:24:00.999Z</time></trkpt><trkpt lat="42.417319378898966" lon="-8.038894959040228"><ele>421.0</ele><time>2026-03-23T16:24:01.999Z</time></trkpt><trkpt lat="42.41726791489589" lon="-8.038738076369697"><ele>422.25</ele><time>2026-03-23T16:24:02.999Z</time></trkpt><trkpt lat="42.41721348938878" lon="-8.03859122051759"><ele>423.5</ele><time>2026-03-23T16:24:03.999Z</time></trkpt><trkpt lat="42.417158309302465" lon="-8.038454191942167"><ele>424.75</ele><time>2026-03-23T16:24:04.999Z</time></trkpt><trkpt lat="42.41710052000582" lon="-8.03831965887925"><ele>426.0</ele><time>2026-03-23T16:24:05.999Z</time></trkpt><trkpt lat="42.41704600782828" lon="-8.038207669615684"><ele>426.8</ele><time>2026-03-23T16:24:06.999Z</time></trkpt><trkpt lat="42.41698302505195" lon="-8.03810126007755"><ele>427.6</ele><time>2026-03-23T16:24:07.999Z</time></trkpt><trkpt lat="42.41691231993874" lon="-8.037997924584444"><ele>428.4</ele><time>2026-03-23T16:24:08.999Z</time></trkpt><trkpt lat="42.416843863542056" lon="-8.03788466454226"><ele>429.2</ele><time>2026-03-23T16:24:09.999Z</time></trkpt><trkpt lat="42.41676794188869" lon="-8.037768398821663"><ele>430.0</ele><time>2026-03-23T16:24:10.999Z</time></trkpt><trkpt lat="42.41668800144787" lon="-8.0376503094994"><ele>430.0</ele><time>2026-03-23T16:24:11.999Z</time></trkpt><trkpt lat="42.41659987122706" lon="-8.037525374210421"><ele>430.0</ele><time>2026-03-23T16:24:12.999Z</time></trkpt><trkpt lat="42.416512709274" lon="-8.037401949825783"><ele>430.0</ele><time>2026-03-23T16:24:13.999Z</time></trkpt><trkpt lat="42.41643137338023" lon="-8.037282987611439"><ele>430.0</ele><time>2026-03-23T16:24:14.999Z</time></trkpt><trkpt lat="42.416336482627365" lon="-8.037146040899902"><ele>431.0</ele><time>2026-03-23T16:24:15.999Z</time></trkpt><trkpt lat="42.41624893673134" lon="-8.037018805532385"><ele>432.0</ele><time>2026-03-23T16:24:16.999Z</time></trkpt><trkpt lat="42.41615143913426" lon="-8.036894078963071"><ele>433.0</ele><time>2026-03-23T16:24:17.999Z</time></trkpt><trkpt lat="42.41605597264832" lon="-8.036765454252773"><ele>434.0</ele><time>2026-03-23T16:24:18.999Z</time></trkpt><trkpt lat="42.41596946486281" lon="-8.036638142763527"><ele>434.25</ele><time>2026-03-23T16:24:19.999Z</time></trkpt><trkpt lat="42.41587972461199" lon="-8.036505083975094"><ele>434.5</ele><time>2026-03-23T16:24:20.999Z</time></trkpt><trkpt lat="42.41579701470397" lon="-8.03638052164394"><ele>434.75</ele><time>2026-03-23T16:24:21.999Z</time></trkpt><trkpt lat="42.415718632993496" lon="-8.0362535693905"><ele>435.0</ele><time>2026-03-23T16:24:22.999Z</time></trkpt><trkpt lat="42.41564408865004" lon="-8.036124912365697"><ele>435.0</ele><time>2026-03-23T16:24:23.999Z</time></trkpt><trkpt lat="42.4155807546233" lon="-8.03599331882142"><ele>435.0</ele><time>2026-03-23T16:24:24.999Z</time></trkpt><trkpt lat="42.41551841280889" lon="-8.035861683335076"><ele>435.0</ele><time>2026-03-23T16:24:25.999Z</time></trkpt><trkpt lat="42.41545608672264" lon="-8.035730095024565"><ele>435.0</ele><time>2026-03-23T16:24:26.999Z</time></trkpt><trkpt lat="42.415395693098375" lon="-8.035605449984642"><ele>434.0</ele><time>2026-03-23T16:24:27.999Z</time></trkpt><trkpt lat="42.41533686287585" lon="-8.035477945554103"><ele>433.0</ele><time>2026-03-23T16:24:28.999Z</time></trkpt><trkpt lat="42.415276994106094" lon="-8.035344665745555"><ele>432.0</ele><time>2026-03-23T16:24:29.999Z</time></trkpt><trkpt lat="42.41522038777948" lon="-8.03522101794661"><ele>431.0</ele><time>2026-03-23T16:24:30.999Z</time></trkpt><trkpt lat="42.41517585855572" lon="-8.035110932375392"><ele>430.0</ele><time>2026-03-23T16:24:31.999Z</time></trkpt><trkpt lat="42.41513251087035" lon="-8.035011438571148"><ele>429.25</ele><time>2026-03-23T16:24:32.999Z</time></trkpt><trkpt lat="42.41507480917619" lon="-8.034892214164369"><ele>428.5</ele><time>2026-03-23T16:24:33.999Z</time></trkpt><trkpt lat="42.41501030904418" lon="-8.03476304895847"><ele>427.75</ele><time>2026-03-23T16:24:34.999Z</time></trkpt><trkpt lat="42.414940138262835" lon="-8.034623084498131"><ele>427.0</ele><time>2026-03-23T16:24:35.999Z</time></trkpt><trkpt lat="42.41486578545891" lon="-8.034477450982843"><ele>427.0</ele><time>2026-03-23T16:24:36.999Z</time></trkpt><trkpt lat="42.414793262759275" lon="-8.034334401396045"><ele>427.0</ele><time>2026-03-23T16:24:37.999Z</time></trkpt><trkpt lat="42.41470992122746" lon="-8.034186939653173"><ele>427.0</ele><time>2026-03-23T16:24:38.999Z</time></trkpt><trkpt lat="42.414625049161515" lon="-8.034039092084223"><ele>427.0</ele><time>2026-03-23T16:24:39.999Z</time></trkpt><trkpt lat="42.41454242651055" lon="-8.033894792862336"><ele>425.0</ele><time>2026-03-23T16:24:40.999Z</time></trkpt><trkpt lat="42.41445748395414" lon="-8.033743012748106"><ele>423.0</ele><time>2026-03-23T16:24:41.999Z</time></trkpt><trkpt lat="42.41437126215419" lon="-8.033595940069093"><ele>421.0</ele><time>2026-03-23T16:24:42.999Z</time></trkpt><trkpt lat="42.41428385504673" lon="-8.03343980763725"><ele>419.0</ele><time>2026-03-23T16:24:43.999Z</time></trkpt><trkpt lat="42.414204302763025" lon="-8.03328297838145"><ele>418.5</ele><time>2026-03-23T16:24:44.999Z</time></trkpt><trkpt lat="42.41411896551568" lon="-8.0331246977474"><ele>418.0</ele><time>2026-03-23T16:24:45.999Z</time></trkpt><trkpt lat="42.41402137031779" lon="-8.032971262436325"><ele>417.5</ele><time>2026-03-23T16:24:46.999Z</time></trkpt><trkpt lat="42.41391935941941" lon="-8.032838668734847"><ele>417.0</ele><time>2026-03-23T16:24:47.999Z</time></trkpt><trkpt lat="42.41380977591495" lon="-8.032701188098558"><ele>415.0</ele><time>2026-03-23T16:24:48.999Z</time></trkpt><trkpt lat="42.413699788491776" lon="-8.032549264214948"><ele>413.0</ele><time>2026-03-23T16:24:49.999Z</time></trkpt><trkpt lat="42.4136055346836" lon="-8.03239267222264"><ele>411.0</ele><time>2026-03-23T16:24:50.999Z</time></trkpt><trkpt lat="42.41351187807173" lon="-8.032231312061311"><ele>410.25</ele><time>2026-03-23T16:24:51.999Z</time></trkpt><trkpt lat="42.41340019984944" lon="-8.032100310506326"><ele>409.5</ele><time>2026-03-23T16:24:52.999Z</time></trkpt><trkpt lat="42.4133113997905" lon="-8.031946700526142"><ele>408.75</ele><time>2026-03-23T16:24:53.999Z</time></trkpt><trkpt lat="42.41320962570965" lon="-8.031817002226205"><ele>408.0</ele><time>2026-03-23T16:24:54.999Z</time></trkpt><trkpt lat="42.413114536789465" lon="-8.031683820525371"><ele>407.75</ele><time>2026-03-23T16:24:55.999Z</time></trkpt><trkpt lat="42.413034718767804" lon="-8.031541125876778"><ele>407.5</ele><time>2026-03-23T16:24:56.999Z</time></trkpt><trkpt lat="42.41296395828721" lon="-8.031385294182575"><ele>407.25</ele><time>2026-03-23T16:24:57.999Z</time></trkpt><trkpt lat="42.41291687177159" lon="-8.031229458854684"><ele>407.0</ele><time>2026-03-23T16:24:58.999Z</time></trkpt><trkpt lat="42.41289287334865" lon="-8.031064571256826"><ele>406.0</ele><time>2026-03-23T16:24:59.999Z</time></trkpt><trkpt lat="42.41288027603452" lon="-8.030896401499003"><ele>405.0</ele><time>2026-03-23T16:25:00.999Z</time></trkpt><trkpt lat="42.41286280277627" lon="-8.030740596276491"><ele>404.0</ele><time>2026-03-23T16:25:01.999Z</time></trkpt><trkpt lat="42.41285229686234" lon="-8.030590379019008"><ele>403.0</ele><time>2026-03-23T16:25:02.999Z</time></trkpt><trkpt lat="42.41283872923541" lon="-8.030431380285581"><ele>402.4</ele><time>2026-03-23T16:25:03.999Z</time></trkpt><trkpt lat="42.41282205980076" lon="-8.030292289473012"><ele>401.79999999999995</ele><time>2026-03-23T16:25:04.999Z</time></trkpt><trkpt lat="42.412804724761024" lon="-8.030149144744728"><ele>401.2</ele><time>2026-03-23T16:25:05.999Z</time></trkpt><trkpt lat="42.41278541600216" lon="-8.030015797581342"><ele>400.6</ele><time>2026-03-23T16:25:06.999Z</time></trkpt><trkpt lat="42.412755302976464" lon="-8.02988298831941"><ele>400.0</ele><time>2026-03-23T16:25:07.999Z</time></trkpt><trkpt lat="42.412716408075106" lon="-8.029755673709"><ele>399.25</ele><time>2026-03-23T16:25:08.999Z</time></trkpt><trkpt lat="42.41267545209209" lon="-8.029610947810593"><ele>398.5</ele><time>2026-03-23T16:25:09.999Z</time></trkpt><trkpt lat="42.412630897757424" lon="-8.029476905946744"><ele>397.75</ele><time>2026-03-23T16:25:10.999Z</time></trkpt><trkpt lat="42.41258753062784" lon="-8.029339902109017"><ele>397.0</ele><time>2026-03-23T16:25:11.999Z</time></trkpt><trkpt lat="42.412548945323906" lon="-8.029188493262318"><ele>396.5</ele><time>2026-03-23T16:25:12.999Z</time></trkpt><trkpt lat="42.412521427735506" lon="-8.029039470542953"><ele>396.0</ele><time>2026-03-23T16:25:13.999Z</time></trkpt><trkpt lat="42.41251178550367" lon="-8.028888899395747"><ele>395.5</ele><time>2026-03-23T16:25:14.999Z</time></trkpt><trkpt lat="42.412509006314274" lon="-8.028727204181507"><ele>395.0</ele><time>2026-03-23T16:25:15.999Z</time></trkpt><trkpt lat="42.41251433213203" lon="-8.028574771007063"><ele>394.99999999999994</ele><time>2026-03-23T16:25:16.999Z</time></trkpt><trkpt lat="42.412511903776895" lon="-8.028426004275184"><ele>395.0</ele><time>2026-03-23T16:25:17.999Z</time></trkpt><trkpt lat="42.41251740531116" lon="-8.028288738998167"><ele>395.0</ele><time>2026-03-23T16:25:18.999Z</time></trkpt><trkpt lat="42.41251332440955" lon="-8.028174089739103"><ele>395.0</ele><time>2026-03-23T16:25:19.999Z</time></trkpt><trkpt lat="42.4125093563132" lon="-8.028077425261598"><ele>394.99999999999994</ele><time>2026-03-23T16:25:20.999Z</time></trkpt><trkpt lat="42.41248757554397" lon="-8.027979102709992"><ele>395.0</ele><time>2026-03-23T16:25:21.999Z</time></trkpt><trkpt lat="42.412480114936336" lon="-8.027885726848565"><ele>394.49999999999994</ele><time>2026-03-23T16:25:22.999Z</time></trkpt><trkpt lat="42.41247141091001" lon="-8.027799070730294"><ele>394.0</ele><time>2026-03-23T16:25:23.998Z</time></trkpt><trkpt lat="42.41246122407078" lon="-8.0277075749493"><ele>393.5</ele><time>2026-03-23T16:25:24.998Z</time></trkpt><trkpt lat="42.41245972229849" lon="-8.027592712574975"><ele>393.0</ele><time>2026-03-23T16:25:25.998Z</time></trkpt><trkpt lat="42.41242758609201" lon="-8.02750012775735"><ele>392.49999999999994</ele><time>2026-03-23T16:25:26.998Z</time></trkpt><trkpt lat="42.41240706596742" lon="-8.027380530065864"><ele>392.0</ele><time>2026-03-23T16:25:27.998Z</time></trkpt><trkpt lat="42.41240178657155" lon="-8.027268837281067"><ele>391.20000000000005</ele><time>2026-03-23T16:25:28.998Z</time></trkpt><trkpt lat="42.41237121422898" lon="-8.027130865700233"><ele>390.4</ele><time>2026-03-23T16:25:29.998Z</time></trkpt><trkpt lat="42.41234292783489" lon="-8.026995234588583"><ele>389.6</ele><time>2026-03-23T16:25:30.998Z</time></trkpt><trkpt lat="42.41229502461616" lon="-8.026871187703145"><ele>388.79999999999995</ele><time>2026-03-23T16:25:31.999Z</time></trkpt><trkpt lat="42.412260690570534" lon="-8.026746251745504"><ele>388.0</ele><time>2026-03-23T16:25:32.999Z</time></trkpt><trkpt lat="42.412225372217435" lon="-8.02662020656148"><ele>387.0</ele><time>2026-03-23T16:25:33.999Z</time></trkpt><trkpt lat="42.41218848025007" lon="-8.02650334978518"><ele>386.0</ele><time>2026-03-23T16:25:34.999Z</time></trkpt><trkpt lat="42.41215205256613" lon="-8.026384908663172"><ele>385.0</ele><time>2026-03-23T16:25:35.999Z</time></trkpt><trkpt lat="42.412115585321224" lon="-8.026271082671139"><ele>384.0</ele><time>2026-03-23T16:25:36.999Z</time></trkpt><trkpt lat="42.4120780064919" lon="-8.02615472587975"><ele>383.0</ele><time>2026-03-23T16:25:37.999Z</time></trkpt><trkpt lat="42.41203954185552" lon="-8.026038801641176"><ele>382.79999999999995</ele><time>2026-03-23T16:25:38.999Z</time></trkpt><trkpt lat="42.41201703784955" lon="-8.02592672436338"><ele>382.6</ele><time>2026-03-23T16:25:39.999Z</time></trkpt><trkpt lat="42.41195938473564" lon="-8.025816188572575"><ele>382.4</ele><time>2026-03-23T16:25:40.999Z</time></trkpt><trkpt lat="42.411913615187885" lon="-8.025700835568426"><ele>382.20000000000005</ele><time>2026-03-23T16:25:41.999Z</time></trkpt><trkpt lat="42.41188347859409" lon="-8.025578845168154"><ele>382.0</ele><time>2026-03-23T16:25:42.999Z</time></trkpt><trkpt lat="42.411825958478" lon="-8.02547474007701"><ele>381.16666666666663</ele><time>2026-03-23T16:25:43.999Z</time></trkpt><trkpt lat="42.41180049641877" lon="-8.025357077647474"><ele>380.3333333333333</ele><time>2026-03-23T16:25:44.999Z</time></trkpt><trkpt lat="42.4117815824177" lon="-8.025257575174011"><ele>379.5</ele><time>2026-03-23T16:25:45.999Z</time></trkpt><trkpt lat="42.41173999115893" lon="-8.0251560726357"><ele>378.6666666666667</ele><time>2026-03-23T16:25:46.999Z</time></trkpt><trkpt lat="42.41171125175712" lon="-8.025068293285136"><ele>377.83333333333337</ele><time>2026-03-23T16:25:47.999Z</time></trkpt><trkpt lat="42.41169676418983" lon="-8.024965579855136"><ele>377.0</ele><time>2026-03-23T16:25:48.999Z</time></trkpt><trkpt lat="42.4116877517418" lon="-8.024869160851338"><ele>376.40000000000003</ele><time>2026-03-23T16:25:49.999Z</time></trkpt><trkpt lat="42.41168589649911" lon="-8.024718754926395"><ele>375.8</ele><time>2026-03-23T16:25:51.999Z</time></trkpt><trkpt lat="42.41159972559674" lon="-8.02465624478241"><ele>375.2</ele><time>2026-03-23T16:25:53.999Z</time></trkpt><trkpt lat="42.41152953385512" lon="-8.02468732925914"><ele>374.6</ele><time>2026-03-23T16:25:54.999Z</time></trkpt><trkpt lat="42.41145007154004" lon="-8.024704291627417"><ele>374.0</ele><time>2026-03-23T16:25:55.999Z</time></trkpt><trkpt lat="42.41135659856281" lon="-8.024708176634375"><ele>374.0</ele><time>2026-03-23T16:25:56.999Z</time></trkpt><trkpt lat="42.41126657412059" lon="-8.02473832723316"><ele>374.0</ele><time>2026-03-23T16:25:57.999Z</time></trkpt><trkpt lat="42.41118808607928" lon="-8.02470783988438"><ele>374.0</ele><time>2026-03-23T16:25:58.999Z</time></trkpt><trkpt lat="42.41110583460533" lon="-8.024705025275084"><ele>374.0</ele><time>2026-03-23T16:25:59.999Z</time></trkpt><trkpt lat="42.41101437125115" lon="-8.024720253255616"><ele>374.0</ele><time>2026-03-23T16:26:00.999Z</time></trkpt><trkpt lat="42.41093540355626" lon="-8.02474885572888"><ele>374.0</ele><time>2026-03-23T16:26:01.999Z</time></trkpt><trkpt lat="42.410854709809364" lon="-8.024788526411399"><ele>374.0</ele><time>2026-03-23T16:26:02.999Z</time></trkpt><trkpt lat="42.410785174540536" lon="-8.02483435524933"><ele>374.0</ele><time>2026-03-23T16:26:03.999Z</time></trkpt><trkpt lat="42.410723886461426" lon="-8.024890937798576"><ele>374.0</ele><time>2026-03-23T16:26:04.999Z</time></trkpt><trkpt lat="42.41067665798056" lon="-8.024958998526502"><ele>374.0</ele><time>2026-03-23T16:26:05.999Z</time></trkpt><trkpt lat="42.4106075326091" lon="-8.025098060302073"><ele>374.0</ele><time>2026-03-23T16:26:07.999Z</time></trkpt><trkpt lat="42.41055226247717" lon="-8.025163833584571"><ele>374.0</ele><time>2026-03-23T16:26:08.999Z</time></trkpt><trkpt lat="42.41048562606976" lon="-8.025231107416353"><ele>373.4</ele><time>2026-03-23T16:26:09.999Z</time></trkpt><trkpt lat="42.410416272077164" lon="-8.025306204227132"><ele>372.79999999999995</ele><time>2026-03-23T16:26:10.999Z</time></trkpt><trkpt lat="42.410330715905665" lon="-8.025404602182002"><ele>372.20000000000005</ele><time>2026-03-23T16:26:11.999Z</time></trkpt><trkpt lat="42.410240059603574" lon="-8.025496664898153"><ele>371.6</ele><time>2026-03-23T16:26:12.999Z</time></trkpt><trkpt lat="42.41015178094013" lon="-8.025571162595428"><ele>371.0</ele><time>2026-03-23T16:26:13.999Z</time></trkpt><trkpt lat="42.41006239669148" lon="-8.025645886686117"><ele>371.0</ele><time>2026-03-23T16:26:14.999Z</time></trkpt><trkpt lat="42.40998311869384" lon="-8.0257125102032"><ele>371.0</ele><time>2026-03-23T16:26:15.999Z</time></trkpt><trkpt lat="42.409880476173576" lon="-8.025811170447371"><ele>371.0</ele><time>2026-03-23T16:26:16.999Z</time></trkpt><trkpt lat="42.4097801909877" lon="-8.025920191476601"><ele>371.0</ele><time>2026-03-23T16:26:17.999Z</time></trkpt><trkpt lat="42.409705154872924" lon="-8.025963804587759"><ele>371.0</ele><time>2026-03-23T16:26:18.999Z</time></trkpt><trkpt lat="42.40962038300056" lon="-8.026049088737883"><ele>369.33333333333337</ele><time>2026-03-23T16:26:19.999Z</time></trkpt><trkpt lat="42.4095451708976" lon="-8.026099419521035"><ele>367.6666666666667</ele><time>2026-03-23T16:26:20.999Z</time></trkpt><trkpt lat="42.40945954534774" lon="-8.026118462856646"><ele>366.0</ele><time>2026-03-23T16:26:21.999Z</time></trkpt><trkpt lat="42.40937474498457" lon="-8.026123209673454"><ele>364.3333333333333</ele><time>2026-03-23T16:26:22.999Z</time></trkpt><trkpt lat="42.409295170706756" lon="-8.026041008817039"><ele>362.66666666666663</ele><time>2026-03-23T16:26:23.999Z</time></trkpt><trkpt lat="42.409223159296005" lon="-8.025966851146785"><ele>361.0</ele><time>2026-03-23T16:26:24.999Z</time></trkpt><trkpt lat="42.40914206465152" lon="-8.025887532642678"><ele>361.0</ele><time>2026-03-23T16:26:25.999Z</time></trkpt><trkpt lat="42.409061984991425" lon="-8.02581837363574"><ele>361.0</ele><time>2026-03-23T16:26:26.999Z</time></trkpt><trkpt lat="42.40897194787177" lon="-8.025772816391665"><ele>361.0</ele><time>2026-03-23T16:26:27.999Z</time></trkpt><trkpt lat="42.408877871822455" lon="-8.025772157605767"><ele>361.0</ele><time>2026-03-23T16:26:28.999Z</time></trkpt><trkpt lat="42.40877641328688" lon="-8.025818105013975"><ele>361.0</ele><time>2026-03-23T16:26:29.999Z</time></trkpt><trkpt lat="42.40868748995313" lon="-8.025872846143626"><ele>359.6</ele><time>2026-03-23T16:26:30.999Z</time></trkpt><trkpt lat="42.40859683837662" lon="-8.025916931212215"><ele>358.20000000000005</ele><time>2026-03-23T16:26:31.999Z</time></trkpt><trkpt lat="42.40850872952379" lon="-8.025950975998652"><ele>356.79999999999995</ele><time>2026-03-23T16:26:32.999Z</time></trkpt><trkpt lat="42.40842409861802" lon="-8.02598792213284"><ele>355.4</ele><time>2026-03-23T16:26:33.999Z</time></trkpt><trkpt lat="42.40834293814617" lon="-8.026037227847995"><ele>354.0</ele><time>2026-03-23T16:26:34.999Z</time></trkpt><trkpt lat="42.40825234248304" lon="-8.026097209148382"><ele>354.0</ele><time>2026-03-23T16:26:35.999Z</time></trkpt><trkpt lat="42.40816557998638" lon="-8.02615539466689"><ele>354.0</ele><time>2026-03-23T16:26:36.999Z</time></trkpt><trkpt lat="42.4080764108991" lon="-8.026214107157374"><ele>354.0</ele><time>2026-03-23T16:26:37.999Z</time></trkpt><trkpt lat="42.407988723658654" lon="-8.02626600869543"><ele>354.0</ele><time>2026-03-23T16:26:38.999Z</time></trkpt><trkpt lat="42.4079081047169" lon="-8.026339467340602"><ele>354.0</ele><time>2026-03-23T16:26:39.999Z</time></trkpt><trkpt lat="42.40781841526156" lon="-8.02640647000045"><ele>353.6</ele><time>2026-03-23T16:26:40.999Z</time></trkpt><trkpt lat="42.407724165193116" lon="-8.026476210683656"><ele>353.2</ele><time>2026-03-23T16:26:41.999Z</time></trkpt><trkpt lat="42.40763474435352" lon="-8.02651470848159"><ele>352.8</ele><time>2026-03-23T16:26:42.999Z</time></trkpt><trkpt lat="42.407537290439535" lon="-8.026583689670801"><ele>352.40000000000003</ele><time>2026-03-23T16:26:43.999Z</time></trkpt><trkpt lat="42.407453380306556" lon="-8.026626669667271"><ele>352.0</ele><time>2026-03-23T16:26:44.999Z</time></trkpt><trkpt lat="42.407367771610474" lon="-8.026671534567521"><ele>352.6</ele><time>2026-03-23T16:26:45.999Z</time></trkpt><trkpt lat="42.407286937445136" lon="-8.026677091156884"><ele>353.20000000000005</ele><time>2026-03-23T16:26:46.999Z</time></trkpt><trkpt lat="42.40720297568683" lon="-8.026654051140794"><ele>353.8</ele><time>2026-03-23T16:26:47.999Z</time></trkpt><trkpt lat="42.40710653645565" lon="-8.026583509597371"><ele>354.4</ele><time>2026-03-23T16:26:48.999Z</time></trkpt><trkpt lat="42.407022422938525" lon="-8.026521726056165"><ele>355.0</ele><time>2026-03-23T16:26:49.999Z</time></trkpt><trkpt lat="42.40693432873507" lon="-8.026456149643243"><ele>355.0</ele><time>2026-03-23T16:26:50.999Z</time></trkpt><trkpt lat="42.40684240830088" lon="-8.0263912133894"><ele>355.0</ele><time>2026-03-23T16:26:51.999Z</time></trkpt><trkpt lat="42.40675729185839" lon="-8.026339577742284"><ele>355.0</ele><time>2026-03-23T16:26:52.999Z</time></trkpt><trkpt lat="42.40665867891046" lon="-8.026285187656738"><ele>355.0</ele><time>2026-03-23T16:26:53.999Z</time></trkpt><trkpt lat="42.40656131567502" lon="-8.026242976880747"><ele>355.0</ele><time>2026-03-23T16:26:54.999Z</time></trkpt><trkpt lat="42.40646536801157" lon="-8.026219320615494"><ele>355.0</ele><time>2026-03-23T16:26:55.999Z</time></trkpt><trkpt lat="42.406371562596114" lon="-8.02620890312211"><ele>355.0</ele><time>2026-03-23T16:26:56.999Z</time></trkpt><trkpt lat="42.40625807227504" lon="-8.026210164720185"><ele>355.0</ele><time>2026-03-23T16:26:57.999Z</time></trkpt><trkpt lat="42.40618057837805" lon="-8.026227835795424"><ele>355.0</ele><time>2026-03-23T16:26:58.999Z</time></trkpt><trkpt lat="42.406088360567836" lon="-8.02623833988072"><ele>355.0</ele><time>2026-03-23T16:26:59.999Z</time></trkpt><trkpt lat="42.40599906725928" lon="-8.026235950490365"><ele>357.0</ele><time>2026-03-23T16:27:00.999Z</time></trkpt><trkpt lat="42.40590650838335" lon="-8.026273536696099"><ele>359.0</ele><time>2026-03-23T16:27:01.999Z</time></trkpt><trkpt lat="42.40580682004829" lon="-8.026300470607778"><ele>361.0</ele><time>2026-03-23T16:27:02.999Z</time></trkpt><trkpt lat="42.405719940267325" lon="-8.02631100543892"><ele>363.0</ele><time>2026-03-23T16:27:03.999Z</time></trkpt><trkpt lat="42.40563397534891" lon="-8.02631800536555"><ele>365.0</ele><time>2026-03-23T16:27:04.999Z</time></trkpt><trkpt lat="42.40555116538812" lon="-8.026334512164055"><ele>366.33333333333337</ele><time>2026-03-23T16:27:05.999Z</time></trkpt><trkpt lat="42.405481172788576" lon="-8.026285359757962"><ele>367.6666666666667</ele><time>2026-03-23T16:27:06.999Z</time></trkpt><trkpt lat="42.405411949573214" lon="-8.02625398645885"><ele>369.0</ele><time>2026-03-23T16:27:07.999Z</time></trkpt><trkpt lat="42.40535651928777" lon="-8.026165950374759"><ele>370.3333333333333</ele><time>2026-03-23T16:27:08.999Z</time></trkpt><trkpt lat="42.405291888791616" lon="-8.026090454763354"><ele>371.66666666666663</ele><time>2026-03-23T16:27:09.999Z</time></trkpt><trkpt lat="42.405229255369754" lon="-8.025987679299677"><ele>373.0</ele><time>2026-03-23T16:27:10.999Z</time></trkpt><trkpt lat="42.405149475835366" lon="-8.025957143841568"><ele>373.0</ele><time>2026-03-23T16:27:11.999Z</time></trkpt><trkpt lat="42.4050294419649" lon="-8.025901451018827"><ele>373.0</ele><time>2026-03-23T16:27:13.999Z</time></trkpt><trkpt lat="42.404943552414984" lon="-8.025920048077655"><ele>373.0</ele><time>2026-03-23T16:27:14.999Z</time></trkpt><trkpt lat="42.40485021351823" lon="-8.025920336885985"><ele>373.0</ele><time>2026-03-23T16:27:15.999Z</time></trkpt><trkpt lat="42.40475677211058" lon="-8.02591507149355"><ele>373.0</ele><time>2026-03-23T16:27:16.999Z</time></trkpt><trkpt lat="42.404669514648795" lon="-8.025901756604968"><ele>373.8333333333333</ele><time>2026-03-23T16:27:17.999Z</time></trkpt><trkpt lat="42.40457883970225" lon="-8.025891482889973"><ele>374.66666666666663</ele><time>2026-03-23T16:27:18.999Z</time></trkpt><trkpt lat="42.404493399811656" lon="-8.025901028736097"><ele>375.5</ele><time>2026-03-23T16:27:19.999Z</time></trkpt><trkpt lat="42.40440484418924" lon="-8.025901885656824"><ele>376.3333333333333</ele><time>2026-03-23T16:27:20.999Z</time></trkpt><trkpt lat="42.40432275532337" lon="-8.025926585834252"><ele>377.1666666666667</ele><time>2026-03-23T16:27:21.999Z</time></trkpt><trkpt lat="42.4042483602842" lon="-8.025971280204184"><ele>378.0</ele><time>2026-03-23T16:27:22.999Z</time></trkpt><trkpt lat="42.404161385664324" lon="-8.026009455883006"><ele>378.0</ele><time>2026-03-23T16:27:23.999Z</time></trkpt><trkpt lat="42.40410871047496" lon="-8.026103344310009"><ele>378.0</ele><time>2026-03-23T16:27:24.999Z</time></trkpt><trkpt lat="42.40403479188787" lon="-8.026164183652282"><ele>378.0</ele><time>2026-03-23T16:27:26.999Z</time></trkpt><trkpt lat="42.40394403919285" lon="-8.026239821252288"><ele>378.0</ele><time>2026-03-23T16:27:27.999Z</time></trkpt><trkpt lat="42.40380041230117" lon="-8.02633653691805"><ele>378.0</ele><time>2026-03-23T16:27:28.999Z</time></trkpt><trkpt lat="42.40371349337974" lon="-8.026365691110096"><ele>379.1666666666667</ele><time>2026-03-23T16:27:29.999Z</time></trkpt><trkpt lat="42.40362782560864" lon="-8.026368894326621"><ele>380.33333333333337</ele><time>2026-03-23T16:27:30.999Z</time></trkpt><trkpt lat="42.40356074534931" lon="-8.026331892164498"><ele>381.5</ele><time>2026-03-23T16:27:31.999Z</time></trkpt><trkpt lat="42.40349596767408" lon="-8.026273170269834"><ele>382.6666666666667</ele><time>2026-03-23T16:27:32.999Z</time></trkpt><trkpt lat="42.403439435782126" lon="-8.026189965336004"><ele>383.83333333333337</ele><time>2026-03-23T16:27:33.999Z</time></trkpt><trkpt lat="42.4033997380819" lon="-8.026092083904215"><ele>385.0</ele><time>2026-03-23T16:27:34.999Z</time></trkpt><trkpt lat="42.40334260806749" lon="-8.026013060114286"><ele>385.0</ele><time>2026-03-23T16:27:35.999Z</time></trkpt><trkpt lat="42.403290565727964" lon="-8.025926837289802"><ele>385.0</ele><time>2026-03-23T16:27:36.999Z</time></trkpt><trkpt lat="42.403211121940124" lon="-8.02590176748726"><ele>385.0</ele><time>2026-03-23T16:27:38Z</time></trkpt><trkpt lat="42.403106428141214" lon="-8.025908366095575"><ele>385.0</ele><time>2026-03-23T16:27:39Z</time></trkpt><trkpt lat="42.40301191550234" lon="-8.025911403605757"><ele>385.0</ele><time>2026-03-23T16:27:40Z</time></trkpt><trkpt lat="42.4029061412717" lon="-8.02591188356388"><ele>385.2</ele><time>2026-03-23T16:27:41Z</time></trkpt><trkpt lat="42.402803289683725" lon="-8.025913057567406"><ele>385.4</ele><time>2026-03-23T16:27:42Z</time></trkpt><trkpt lat="42.40270369972863" lon="-8.02591256030454"><ele>385.6</ele><time>2026-03-23T16:27:43Z</time></trkpt><trkpt lat="42.402610101752785" lon="-8.025912010232734"><ele>385.8</ele><time>2026-03-23T16:27:44Z</time></trkpt><trkpt lat="42.402515867709916" lon="-8.025921912308656"><ele>386.0</ele><time>2026-03-23T16:27:45Z</time></trkpt><trkpt lat="42.402433721560776" lon="-8.025963068080292"><ele>386.0</ele><time>2026-03-23T16:27:46Z</time></trkpt><trkpt lat="42.40235847017593" lon="-8.026116649738114"><ele>386.0</ele><time>2026-03-23T16:27:48Z</time></trkpt><trkpt lat="42.4023051407262" lon="-8.02619391225688"><ele>386.0</ele><time>2026-03-23T16:27:49Z</time></trkpt><trkpt lat="42.402282661111734" lon="-8.026275501881402"><ele>386.0</ele><time>2026-03-23T16:27:50Z</time></trkpt><trkpt lat="42.40226272617423" lon="-8.026386515273957"><ele>386.0</ele><time>2026-03-23T16:27:52Z</time></trkpt><trkpt lat="42.40214304601688" lon="-8.02636701046042"><ele>385.99999999999994</ele><time>2026-03-23T16:27:53Z</time></trkpt><trkpt lat="42.40202842699861" lon="-8.02639516362227"><ele>386.0</ele><time>2026-03-23T16:27:55Z</time></trkpt><trkpt lat="42.401963981644315" lon="-8.026422481004298"><ele>386.0</ele><time>2026-03-23T16:27:57Z</time></trkpt><trkpt lat="42.40191562255369" lon="-8.02649895917793"><ele>386.0</ele><time>2026-03-23T16:27:59Z</time></trkpt><trkpt lat="42.40185934822931" lon="-8.026645456882207"><ele>385.99999999999994</ele><time>2026-03-23T16:28:01Z</time></trkpt><trkpt lat="42.401815007791534" lon="-8.026709053339346"><ele>386.0</ele><time>2026-03-23T16:28:02Z</time></trkpt><trkpt lat="42.40175859818048" lon="-8.026778848269391"><ele>386.5714285714286</ele><time>2026-03-23T16:28:03Z</time></trkpt><trkpt lat="42.401717994816885" lon="-8.026846080489754"><ele>387.14285714285717</ele><time>2026-03-23T16:28:04Z</time></trkpt><trkpt lat="42.40164433563474" lon="-8.026874047993754"><ele>387.7142857142857</ele><time>2026-03-23T16:28:05Z</time></trkpt><trkpt lat="42.4015756753802" lon="-8.026890859646189"><ele>388.28571428571433</ele><time>2026-03-23T16:28:06Z</time></trkpt><trkpt lat="42.401505734918494" lon="-8.026875436862445"><ele>388.85714285714283</ele><time>2026-03-23T16:28:07Z</time></trkpt><trkpt lat="42.40143714593277" lon="-8.026840938927217"><ele>389.42857142857144</ele><time>2026-03-23T16:28:08Z</time></trkpt><trkpt lat="42.40136904751914" lon="-8.026808994498328"><ele>390.0</ele><time>2026-03-23T16:28:09Z</time></trkpt><trkpt lat="42.40129213888793" lon="-8.02677721561503"><ele>390.0</ele><time>2026-03-23T16:28:10Z</time></trkpt><trkpt lat="42.40122467645953" lon="-8.026750847769906"><ele>390.0</ele><time>2026-03-23T16:28:11Z</time></trkpt><trkpt lat="42.401146214442974" lon="-8.026725680796309"><ele>390.0</ele><time>2026-03-23T16:28:12Z</time></trkpt><trkpt lat="42.40106291689073" lon="-8.026708412386656"><ele>390.0</ele><time>2026-03-23T16:28:13Z</time></trkpt><trkpt lat="42.400965453025655" lon="-8.026724920356287"><ele>390.0</ele><time>2026-03-23T16:28:14Z</time></trkpt><trkpt lat="42.400886056824376" lon="-8.02670901447474"><ele>390.0</ele><time>2026-03-23T16:28:15Z</time></trkpt><trkpt lat="42.40080213600716" lon="-8.02672245018976"><ele>390.0</ele><time>2026-03-23T16:28:16Z</time></trkpt><trkpt lat="42.400724620120954" lon="-8.026747784637456"><ele>390.0</ele><time>2026-03-23T16:28:17Z</time></trkpt><trkpt lat="42.400632006079555" lon="-8.026776417200269"><ele>390.0</ele><time>2026-03-23T16:28:18Z</time></trkpt><trkpt lat="42.40055744856324" lon="-8.026796738027215"><ele>390.0</ele><time>2026-03-23T16:28:19Z</time></trkpt><trkpt lat="42.40047796397291" lon="-8.026817156905128"><ele>390.0</ele><time>2026-03-23T16:28:20Z</time></trkpt><trkpt lat="42.400391311951836" lon="-8.026824028817556"><ele>390.0</ele><time>2026-03-23T16:28:21Z</time></trkpt><trkpt lat="42.40029282150922" lon="-8.026849963296682"><ele>389.3333333333333</ele><time>2026-03-23T16:28:22Z</time></trkpt><trkpt lat="42.40020436461102" lon="-8.026877489360917"><ele>388.66666666666663</ele><time>2026-03-23T16:28:23Z</time></trkpt><trkpt lat="42.400126163981994" lon="-8.026914327258801"><ele>388.0</ele><time>2026-03-23T16:28:24Z</time></trkpt><trkpt lat="42.40003536922281" lon="-8.026932564193682"><ele>387.3333333333333</ele><time>2026-03-23T16:28:25Z</time></trkpt><trkpt lat="42.39994102471789" lon="-8.02694691996478"><ele>386.66666666666663</ele><time>2026-03-23T16:28:26Z</time></trkpt><trkpt lat="42.399857796896725" lon="-8.02698168667378"><ele>386.0</ele><time>2026-03-23T16:28:27Z</time></trkpt><trkpt lat="42.39978785129418" lon="-8.02701787993719"><ele>385.99999999999994</ele><time>2026-03-23T16:28:28Z</time></trkpt><trkpt lat="42.39971498785585" lon="-8.02705762667371"><ele>386.0</ele><time>2026-03-23T16:28:29Z</time></trkpt><trkpt lat="42.39965063643986" lon="-8.027125420661093"><ele>386.0</ele><time>2026-03-23T16:28:30Z</time></trkpt><trkpt lat="42.39959565954311" lon="-8.027201534156678"><ele>386.0</ele><time>2026-03-23T16:28:31Z</time></trkpt><trkpt lat="42.39952939948512" lon="-8.02728702894063"><ele>385.99999999999994</ele><time>2026-03-23T16:28:32Z</time></trkpt><trkpt lat="42.39948779268765" lon="-8.027396024361126"><ele>386.0</ele><time>2026-03-23T16:28:33Z</time></trkpt><trkpt lat="42.39943502181482" lon="-8.027489590327018"><ele>385.6</ele><time>2026-03-23T16:28:34Z</time></trkpt><trkpt lat="42.39936317187765" lon="-8.027543319512068"><ele>385.20000000000005</ele><time>2026-03-23T16:28:35Z</time></trkpt><trkpt lat="42.39927794677842" lon="-8.027606005252471"><ele>384.79999999999995</ele><time>2026-03-23T16:28:36Z</time></trkpt><trkpt lat="42.399191440329616" lon="-8.027650077346166"><ele>384.4</ele><time>2026-03-23T16:28:37Z</time></trkpt><trkpt lat="42.39909880845349" lon="-8.027692076521916"><ele>384.0</ele><time>2026-03-23T16:28:38Z</time></trkpt><trkpt lat="42.39900407995879" lon="-8.027727289597607"><ele>384.0</ele><time>2026-03-23T16:28:39Z</time></trkpt><trkpt lat="42.39890899969886" lon="-8.027764750282854"><ele>384.0</ele><time>2026-03-23T16:28:40Z</time></trkpt><trkpt lat="42.398822391371894" lon="-8.027752639204301"><ele>384.0</ele><time>2026-03-23T16:28:41Z</time></trkpt><trkpt lat="42.398745057730764" lon="-8.027751219267445"><ele>384.0</ele><time>2026-03-23T16:28:42Z</time></trkpt><trkpt lat="42.39865775272227" lon="-8.027708094096848"><ele>384.0</ele><time>2026-03-23T16:28:43Z</time></trkpt><trkpt lat="42.39857798466759" lon="-8.027649923740201"><ele>384.0</ele><time>2026-03-23T16:28:44Z</time></trkpt><trkpt lat="42.39849947965177" lon="-8.027621010422848"><ele>383.3333333333333</ele><time>2026-03-23T16:28:45Z</time></trkpt><trkpt lat="42.39842988458217" lon="-8.027560275641648"><ele>382.6666666666667</ele><time>2026-03-23T16:28:46Z</time></trkpt><trkpt lat="42.39833404527638" lon="-8.027525497499072"><ele>382.0</ele><time>2026-03-23T16:28:47Z</time></trkpt><trkpt lat="42.3982575207937" lon="-8.027480721891084"><ele>381.33333333333337</ele><time>2026-03-23T16:28:48Z</time></trkpt><trkpt lat="42.39818684480647" lon="-8.027434377894455"><ele>380.6666666666667</ele><time>2026-03-23T16:28:49Z</time></trkpt><trkpt lat="42.398098953115635" lon="-8.02744584805754"><ele>380.0</ele><time>2026-03-23T16:28:50Z</time></trkpt><trkpt lat="42.39801172865024" lon="-8.027518483392388"><ele>379.4</ele><time>2026-03-23T16:28:51Z</time></trkpt><trkpt lat="42.39797783732701" lon="-8.027639330171683"><ele>378.8</ele><time>2026-03-23T16:28:52Z</time></trkpt><trkpt lat="42.397914277302924" lon="-8.027718433279878"><ele>378.20000000000005</ele><time>2026-03-23T16:28:53Z</time></trkpt><trkpt lat="42.39785633640557" lon="-8.027819036161837"><ele>377.6</ele><time>2026-03-23T16:28:54Z</time></trkpt><trkpt lat="42.39777989475117" lon="-8.027876448819203"><ele>377.0</ele><time>2026-03-23T16:28:55Z</time></trkpt><trkpt lat="42.39769000606658" lon="-8.027920329855997"><ele>377.0</ele><time>2026-03-23T16:28:56Z</time></trkpt><trkpt lat="42.397589472907036" lon="-8.027856669052104"><ele>377.0</ele><time>2026-03-23T16:28:57Z</time></trkpt><trkpt lat="42.397502104372116" lon="-8.027781091641621"><ele>377.0</ele><time>2026-03-23T16:28:57.999Z</time></trkpt><trkpt lat="42.397415449874856" lon="-8.027711326430346"><ele>377.0</ele><time>2026-03-23T16:28:58.999Z</time></trkpt><trkpt lat="42.39732172127308" lon="-8.027646532770053"><ele>377.0</ele><time>2026-03-23T16:28:59.999Z</time></trkpt><trkpt lat="42.39723073900159" lon="-8.027593602020303"><ele>377.0</ele><time>2026-03-23T16:29:00.999Z</time></trkpt><trkpt lat="42.39716315865945" lon="-8.027564853653821"><ele>377.0</ele><time>2026-03-23T16:29:01.999Z</time></trkpt><trkpt lat="42.39706487501938" lon="-8.0275210901145"><ele>377.0</ele><time>2026-03-23T16:29:02.999Z</time></trkpt><trkpt lat="42.39695622181634" lon="-8.027494059671852"><ele>377.0</ele><time>2026-03-23T16:29:03.999Z</time></trkpt><trkpt lat="42.39686733765169" lon="-8.02745503319262"><ele>377.0</ele><time>2026-03-23T16:29:04.999Z</time></trkpt><trkpt lat="42.396766903944844" lon="-8.027383800486842"><ele>376.8</ele><time>2026-03-23T16:29:05.999Z</time></trkpt><trkpt lat="42.39667752801881" lon="-8.02732905575055"><ele>376.6</ele><time>2026-03-23T16:29:06.999Z</time></trkpt><trkpt lat="42.39657000763977" lon="-8.027261105468126"><ele>376.40000000000003</ele><time>2026-03-23T16:29:07.999Z</time></trkpt><trkpt lat="42.39647584878141" lon="-8.027195368974738"><ele>376.20000000000005</ele><time>2026-03-23T16:29:08.999Z</time></trkpt><trkpt lat="42.39637540369453" lon="-8.02712102787041"><ele>376.0</ele><time>2026-03-23T16:29:09.999Z</time></trkpt><trkpt lat="42.39627944909674" lon="-8.027075692240897"><ele>376.0</ele><time>2026-03-23T16:29:10.999Z</time></trkpt><trkpt lat="42.39617683489484" lon="-8.027003781031619"><ele>376.0</ele><time>2026-03-23T16:29:11.999Z</time></trkpt><trkpt lat="42.39606980821691" lon="-8.026927440861087"><ele>376.0</ele><time>2026-03-23T16:29:12.999Z</time></trkpt><trkpt lat="42.39598483968922" lon="-8.026863294618561"><ele>376.0</ele><time>2026-03-23T16:29:13.999Z</time></trkpt><trkpt lat="42.3958895481963" lon="-8.026782344005738"><ele>376.0</ele><time>2026-03-23T16:29:14.999Z</time></trkpt><trkpt lat="42.39579672904328" lon="-8.026707933040496"><ele>376.25</ele><time>2026-03-23T16:29:15.999Z</time></trkpt><trkpt lat="42.39571261314421" lon="-8.026615481725704"><ele>376.5</ele><time>2026-03-23T16:29:16.999Z</time></trkpt><trkpt lat="42.39561687055451" lon="-8.026556157184487"><ele>376.75</ele><time>2026-03-23T16:29:17.999Z</time></trkpt><trkpt lat="42.39551560408705" lon="-8.026480967292025"><ele>377.0</ele><time>2026-03-23T16:29:18.999Z</time></trkpt><trkpt lat="42.39539784311998" lon="-8.02643427688187"><ele>377.0</ele><time>2026-03-23T16:29:19.999Z</time></trkpt><trkpt lat="42.39529430426755" lon="-8.026369083842903"><ele>377.0</ele><time>2026-03-23T16:29:20.999Z</time></trkpt><trkpt lat="42.39518899920481" lon="-8.026314406767396"><ele>377.0</ele><time>2026-03-23T16:29:21.999Z</time></trkpt><trkpt lat="42.39508678630431" lon="-8.026266917326396"><ele>377.0</ele><time>2026-03-23T16:29:22.999Z</time></trkpt><trkpt lat="42.39499235171411" lon="-8.026218401480387"><ele>377.0</ele><time>2026-03-23T16:29:23.999Z</time></trkpt><trkpt lat="42.394909039347894" lon="-8.026162699917643"><ele>377.0</ele><time>2026-03-23T16:29:24.999Z</time></trkpt><trkpt lat="42.39481670161073" lon="-8.026130415174102"><ele>377.0</ele><time>2026-03-23T16:29:25.999Z</time></trkpt><trkpt lat="42.39472735836132" lon="-8.02610657601165"><ele>377.0</ele><time>2026-03-23T16:29:26.999Z</time></trkpt><trkpt lat="42.3946412684391" lon="-8.026063392914182"><ele>377.0</ele><time>2026-03-23T16:29:27.999Z</time></trkpt><trkpt lat="42.39455173020678" lon="-8.02609960325915"><ele>377.0</ele><time>2026-03-23T16:29:28.999Z</time></trkpt><trkpt lat="42.39446606034823" lon="-8.02612101996658"><ele>377.5</ele><time>2026-03-23T16:29:29.999Z</time></trkpt><trkpt lat="42.39437162562246" lon="-8.026134024338477"><ele>378.0</ele><time>2026-03-23T16:29:30.999Z</time></trkpt><trkpt lat="42.394282531720854" lon="-8.026167782732143"><ele>378.5</ele><time>2026-03-23T16:29:31.999Z</time></trkpt><trkpt lat="42.39421337036833" lon="-8.026184472330359"><ele>379.0</ele><time>2026-03-23T16:29:32.999Z</time></trkpt><trkpt lat="42.39414292149703" lon="-8.026222169851255"><ele>379.5</ele><time>2026-03-23T16:29:33.999Z</time></trkpt><trkpt lat="42.394063507659936" lon="-8.02625101383044"><ele>380.0</ele><time>2026-03-23T16:29:34.999Z</time></trkpt><trkpt lat="42.39399706441727" lon="-8.026301444213871"><ele>380.0</ele><time>2026-03-23T16:29:35.999Z</time></trkpt><trkpt lat="42.3939287248141" lon="-8.02633908826353"><ele>380.0</ele><time>2026-03-23T16:29:36.999Z</time></trkpt><trkpt lat="42.393856071558965" lon="-8.026362178266012"><ele>380.0</ele><time>2026-03-23T16:29:37.999Z</time></trkpt><trkpt lat="42.39379157803331" lon="-8.026396362618105"><ele>380.0</ele><time>2026-03-23T16:29:38.999Z</time></trkpt><trkpt lat="42.393700203644144" lon="-8.026462106582096"><ele>380.0</ele><time>2026-03-23T16:29:40.999Z</time></trkpt><trkpt lat="42.393639401641586" lon="-8.026495216334698"><ele>380.0</ele><time>2026-03-23T16:29:44Z</time></trkpt><trkpt lat="42.3935632449736" lon="-8.026417011949036"><ele>379.2</ele><time>2026-03-23T16:29:47Z</time></trkpt><trkpt lat="42.39349011513299" lon="-8.026318858538428"><ele>378.4</ele><time>2026-03-23T16:29:49Z</time></trkpt><trkpt lat="42.39341610774786" lon="-8.02624536143095"><ele>377.6</ele><time>2026-03-23T16:29:51Z</time></trkpt><trkpt lat="42.3935086550177" lon="-8.02634523513435"><ele>376.8</ele><time>2026-03-23T16:29:59Z</time></trkpt><trkpt lat="42.39359436634665" lon="-8.026452169742926"><ele>376.0</ele><time>2026-03-23T16:30:01Z</time></trkpt><trkpt lat="42.39365510320611" lon="-8.026572799461317"><ele>376.0</ele><time>2026-03-23T16:30:03Z</time></trkpt><trkpt lat="42.39370034555097" lon="-8.026655142945978"><ele>376.0</ele><time>2026-03-23T16:30:04Z</time></trkpt><trkpt lat="42.39374988292268" lon="-8.026746660829243"><ele>376.0</ele><time>2026-03-23T16:30:05Z</time></trkpt><trkpt lat="42.39379855020658" lon="-8.026845253132095"><ele>376.0</ele><time>2026-03-23T16:30:06Z</time></trkpt><trkpt lat="42.39384859359416" lon="-8.026945561299106"><ele>376.0</ele><time>2026-03-23T16:30:07Z</time></trkpt><trkpt lat="42.393700380231884" lon="-8.026504165938764"><ele>384.0</ele><time>2026-03-23T16:30:08Z</time></trkpt><trkpt lat="42.39397168155848" lon="-8.027127335141687"><ele>384.0</ele><time>2026-03-23T16:30:09Z</time></trkpt><trkpt lat="42.394013195145774" lon="-8.027238298685287"><ele>384.0</ele><time>2026-03-23T16:30:10Z</time></trkpt><trkpt lat="42.394038594083156" lon="-8.027357712539441"><ele>384.0</ele><time>2026-03-23T16:30:11Z</time></trkpt><trkpt lat="42.394064525056805" lon="-8.027469718255539"><ele>384.0</ele><time>2026-03-23T16:30:12Z</time></trkpt><trkpt lat="42.39408166356864" lon="-8.02758316010859"><ele>384.0</ele><time>2026-03-23T16:30:13Z</time></trkpt><trkpt lat="42.394101513166945" lon="-8.02768962014036"><ele>384.0</ele><time>2026-03-23T16:30:14Z</time></trkpt><trkpt lat="42.39411211763456" lon="-8.027799420071402"><ele>384.2857142857143</ele><time>2026-03-23T16:30:15Z</time></trkpt><trkpt lat="42.394143331916446" lon="-8.02789007856916"><ele>384.57142857142856</ele><time>2026-03-23T16:30:16Z</time></trkpt><trkpt lat="42.39415802026882" lon="-8.02799439782809"><ele>384.8571428571429</ele><time>2026-03-23T16:30:17Z</time></trkpt><trkpt lat="42.39419656752474" lon="-8.028085364423323"><ele>385.1428571428571</ele><time>2026-03-23T16:30:18Z</time></trkpt><trkpt lat="42.39422751075875" lon="-8.028168270836243"><ele>385.42857142857144</ele><time>2026-03-23T16:30:19Z</time></trkpt><trkpt lat="42.39425943270101" lon="-8.02825859333428"><ele>385.7142857142857</ele><time>2026-03-23T16:30:20Z</time></trkpt><trkpt lat="42.39429030193872" lon="-8.028343778596916"><ele>386.0</ele><time>2026-03-23T16:30:21Z</time></trkpt><trkpt lat="42.39431580922437" lon="-8.028436886706407"><ele>386.16666666666663</ele><time>2026-03-23T16:30:22Z</time></trkpt><trkpt lat="42.394344259764885" lon="-8.028522649183644"><ele>386.3333333333333</ele><time>2026-03-23T16:30:23Z</time></trkpt><trkpt lat="42.39438492800105" lon="-8.028631080103759"><ele>386.5</ele><time>2026-03-23T16:30:24Z</time></trkpt><trkpt lat="42.3944381010934" lon="-8.028705778294569"><ele>386.66666666666663</ele><time>2026-03-23T16:30:25Z</time></trkpt><trkpt lat="42.394477839388436" lon="-8.028808176588042"><ele>386.8333333333333</ele><time>2026-03-23T16:30:26Z</time></trkpt><trkpt lat="42.39453971400371" lon="-8.028904992791052"><ele>387.0</ele><time>2026-03-23T16:30:27Z</time></trkpt><trkpt lat="42.39459733961789" lon="-8.028995256827866"><ele>387.0</ele><time>2026-03-23T16:30:28Z</time></trkpt><trkpt lat="42.394648889994336" lon="-8.02908965571846"><ele>387.0</ele><time>2026-03-23T16:30:29Z</time></trkpt><trkpt lat="42.39470734091117" lon="-8.029170693428451"><ele>387.0</ele><time>2026-03-23T16:30:30Z</time></trkpt><trkpt lat="42.39477043014583" lon="-8.029265795195247"><ele>387.0</ele><time>2026-03-23T16:30:31Z</time></trkpt><trkpt lat="42.39482606900538" lon="-8.029349820300933"><ele>387.0</ele><time>2026-03-23T16:30:32Z</time></trkpt><trkpt lat="42.39487522998351" lon="-8.029415981986736"><ele>387.0</ele><time>2026-03-23T16:30:33Z</time></trkpt><trkpt lat="42.394930350955946" lon="-8.029487596830831"><ele>386.6666666666667</ele><time>2026-03-23T16:30:34Z</time></trkpt><trkpt lat="42.39496893682067" lon="-8.029570242920391"><ele>386.33333333333337</ele><time>2026-03-23T16:30:35Z</time></trkpt><trkpt lat="42.394979416035" lon="-8.029664691476848"><ele>386.0</ele><time>2026-03-23T16:30:36Z</time></trkpt><trkpt lat="42.39495438985015" lon="-8.029763101491739"><ele>385.6666666666667</ele><time>2026-03-23T16:30:37Z</time></trkpt><trkpt lat="42.394946684338244" lon="-8.029878479927886"><ele>385.33333333333337</ele><time>2026-03-23T16:30:38Z</time></trkpt><trkpt lat="42.39492669843794" lon="-8.0300346352334"><ele>385.0</ele><time>2026-03-23T16:30:39Z</time></trkpt><trkpt lat="42.39490657714013" lon="-8.030158766286652"><ele>385.83333333333337</ele><time>2026-03-23T16:30:40Z</time></trkpt><trkpt lat="42.394877015028435" lon="-8.030311516685552"><ele>386.6666666666667</ele><time>2026-03-23T16:30:42Z</time></trkpt><trkpt lat="42.39485163808911" lon="-8.030412883885672"><ele>387.5</ele><time>2026-03-23T16:30:43Z</time></trkpt><trkpt lat="42.39483064378988" lon="-8.030516561559383"><ele>388.33333333333337</ele><time>2026-03-23T16:30:44Z</time></trkpt><trkpt lat="42.3948179310743" lon="-8.03062218148875"><ele>389.1666666666667</ele><time>2026-03-23T16:30:45Z</time></trkpt><trkpt lat="42.39481133445776" lon="-8.030727136564277"><ele>390.0</ele><time>2026-03-23T16:30:46Z</time></trkpt><trkpt lat="42.39480956301442" lon="-8.030837952829232"><ele>390.0</ele><time>2026-03-23T16:30:47Z</time></trkpt><trkpt lat="42.394822304882325" lon="-8.030946771698538"><ele>390.0</ele><time>2026-03-23T16:30:48Z</time></trkpt><trkpt lat="42.394846679963784" lon="-8.031030669606157"><ele>390.0</ele><time>2026-03-23T16:30:49Z</time></trkpt><trkpt lat="42.39488976583163" lon="-8.031137283566908"><ele>390.0</ele><time>2026-03-23T16:30:51Z</time></trkpt><trkpt lat="42.39487392857801" lon="-8.031352129037623"><ele>390.0</ele><time>2026-03-23T16:30:54Z</time></trkpt><trkpt lat="42.394874241971785" lon="-8.031485384656447"><ele>390.0</ele><time>2026-03-23T16:30:55Z</time></trkpt><trkpt lat="42.39487447186128" lon="-8.031583135267564"><ele>390.0</ele><time>2026-03-23T16:30:56Z</time></trkpt><trkpt lat="42.39486603494051" lon="-8.031672890162962"><ele>390.0</ele><time>2026-03-23T16:30:57Z</time></trkpt><trkpt lat="42.39486962022084" lon="-8.031771809216858"><ele>390.0</ele><time>2026-03-23T16:30:58Z</time></trkpt><trkpt lat="42.39486875848201" lon="-8.031910587814084"><ele>390.0</ele><time>2026-03-23T16:31:00Z</time></trkpt><trkpt lat="42.394859888941035" lon="-8.032018190645015"><ele>390.0</ele><time>2026-03-23T16:31:02Z</time></trkpt><trkpt lat="42.39483110120756" lon="-8.032199002230794"><ele>390.4</ele><time>2026-03-23T16:31:04Z</time></trkpt><trkpt lat="42.394830519553565" lon="-8.032317436195846"><ele>390.8</ele><time>2026-03-23T16:31:05Z</time></trkpt><trkpt lat="42.39484647334436" lon="-8.0324090587459"><ele>391.20000000000005</ele><time>2026-03-23T16:31:06Z</time></trkpt><trkpt lat="42.394978165467066" lon="-8.032404589064887"><ele>391.6</ele><time>2026-03-23T16:31:08Z</time></trkpt><trkpt lat="42.395105824952864" lon="-8.032467205575527"><ele>392.0</ele><time>2026-03-23T16:31:10Z</time></trkpt><trkpt lat="42.395211694664" lon="-8.032534673182592"><ele>392.0</ele><time>2026-03-23T16:31:11Z</time></trkpt><trkpt lat="42.39529934266405" lon="-8.032567372267021"><ele>392.0</ele><time>2026-03-23T16:31:12Z</time></trkpt><trkpt lat="42.3953892599644" lon="-8.032577902978439"><ele>392.0</ele><time>2026-03-23T16:31:13Z</time></trkpt><trkpt lat="42.39547510103926" lon="-8.03262616464124"><ele>392.0</ele><time>2026-03-23T16:31:14Z</time></trkpt><trkpt lat="42.39557062790885" lon="-8.032646432171758"><ele>392.0</ele><time>2026-03-23T16:31:15Z</time></trkpt><trkpt lat="42.39566854929826" lon="-8.032660714021201"><ele>392.0</ele><time>2026-03-23T16:31:16Z</time></trkpt><trkpt lat="42.39577520557633" lon="-8.032675110469073"><ele>392.0</ele><time>2026-03-23T16:31:17Z</time></trkpt><trkpt lat="42.395864622458156" lon="-8.032680062112982"><ele>392.0</ele><time>2026-03-23T16:31:18Z</time></trkpt><trkpt lat="42.395955597195986" lon="-8.03267509361786"><ele>392.0</ele><time>2026-03-23T16:31:19Z</time></trkpt><trkpt lat="42.396043362451614" lon="-8.03269220193765"><ele>392.0</ele><time>2026-03-23T16:31:19.999Z</time></trkpt><trkpt lat="42.396121651435266" lon="-8.032697491898688"><ele>391.99999999999994</ele><time>2026-03-23T16:31:20.999Z</time></trkpt><trkpt lat="42.396185889913866" lon="-8.032667800697437"><ele>392.0</ele><time>2026-03-23T16:31:21.999Z</time></trkpt><trkpt lat="42.39624977903273" lon="-8.032656855473599"><ele>392.0</ele><time>2026-03-23T16:31:22.999Z</time></trkpt><trkpt lat="42.39629447165171" lon="-8.03257332722139"><ele>392.0</ele><time>2026-03-23T16:31:23.999Z</time></trkpt><trkpt lat="42.39631786537551" lon="-8.032447578259442"><ele>391.99999999999994</ele><time>2026-03-23T16:31:24.999Z</time></trkpt><trkpt lat="42.39638100273459" lon="-8.032368474728196"><ele>392.0</ele><time>2026-03-23T16:31:25.999Z</time></trkpt><trkpt lat="42.396438168968764" lon="-8.032269650697334"><ele>392.8333333333333</ele><time>2026-03-23T16:31:26.999Z</time></trkpt><trkpt lat="42.39649949257077" lon="-8.032164127333436"><ele>393.66666666666663</ele><time>2026-03-23T16:31:27.999Z</time></trkpt><trkpt lat="42.39657378013791" lon="-8.032083372281038"><ele>394.5</ele><time>2026-03-23T16:31:28.999Z</time></trkpt><trkpt lat="42.39663951156682" lon="-8.032007372644022"><ele>395.33333333333337</ele><time>2026-03-23T16:31:29.999Z</time></trkpt><trkpt lat="42.39670044134528" lon="-8.031929372495826"><ele>396.1666666666667</ele><time>2026-03-23T16:31:30.999Z</time></trkpt><trkpt lat="42.39674756658824" lon="-8.031853512388754"><ele>397.0</ele><time>2026-03-23T16:31:31.999Z</time></trkpt><trkpt lat="42.3968154398006" lon="-8.031775882535824"><ele>397.0</ele><time>2026-03-23T16:31:32.999Z</time></trkpt><trkpt lat="42.396874306896166" lon="-8.03169813920249"><ele>397.0</ele><time>2026-03-23T16:31:33.999Z</time></trkpt><trkpt lat="42.396943408720894" lon="-8.031623801107994"><ele>397.0</ele><time>2026-03-23T16:31:34.999Z</time></trkpt><trkpt lat="42.396997078774874" lon="-8.031551376932184"><ele>397.0</ele><time>2026-03-23T16:31:35.999Z</time></trkpt><trkpt lat="42.397169352895176" lon="-8.0313261611236"><ele>397.2857142857143</ele><time>2026-03-23T16:31:38.999Z</time></trkpt><trkpt lat="42.397231283826954" lon="-8.031253919073858"><ele>397.57142857142856</ele><time>2026-03-23T16:31:39.999Z</time></trkpt><trkpt lat="42.39728404702966" lon="-8.03118087703655"><ele>397.8571428571429</ele><time>2026-03-23T16:31:40.999Z</time></trkpt><trkpt lat="42.39734547419887" lon="-8.031104517697086"><ele>398.1428571428571</ele><time>2026-03-23T16:31:41.999Z</time></trkpt><trkpt lat="42.39740157383226" lon="-8.03106048221422"><ele>398.42857142857144</ele><time>2026-03-23T16:31:42.999Z</time></trkpt><trkpt lat="42.39745187136018" lon="-8.031008788506883"><ele>398.7142857142857</ele><time>2026-03-23T16:31:43.999Z</time></trkpt><trkpt lat="42.39752355170067" lon="-8.030999462645532"><ele>399.0</ele><time>2026-03-23T16:31:44.999Z</time></trkpt><trkpt lat="42.39758551296344" lon="-8.03102361994462"><ele>399.0</ele><time>2026-03-23T16:31:45.999Z</time></trkpt><trkpt lat="42.39767881571606" lon="-8.031071811138792"><ele>399.0</ele><time>2026-03-23T16:31:47.999Z</time></trkpt><trkpt lat="42.39775562118709" lon="-8.031118651865828"><ele>399.0</ele><time>2026-03-23T16:31:50Z</time></trkpt><trkpt lat="42.39782249661155" lon="-8.031170928425414"><ele>399.0</ele><time>2026-03-23T16:31:52Z</time></trkpt><trkpt lat="42.397889850196215" lon="-8.031223623119034"><ele>399.0</ele><time>2026-03-23T16:31:55Z</time></trkpt><trkpt lat="42.39794624714028" lon="-8.031272963870986"><ele>399.0</ele><time>2026-03-23T16:31:58Z</time></trkpt><trkpt lat="42.39802277260783" lon="-8.031332866372297"><ele>398.4</ele><time>2026-03-23T16:32:22Z</time></trkpt><trkpt lat="42.3981686055708" lon="-8.031368732123811"><ele>397.79999999999995</ele><time>2026-03-23T16:32:24Z</time></trkpt><trkpt lat="42.39824860141611" lon="-8.031399994764195"><ele>397.20000000000005</ele><time>2026-03-23T16:32:25Z</time></trkpt><trkpt lat="42.398330667498044" lon="-8.031433712806072"><ele>396.6</ele><time>2026-03-23T16:32:26Z</time></trkpt><trkpt lat="42.39843093142942" lon="-8.031481430500627"><ele>396.0</ele><time>2026-03-23T16:32:27Z</time></trkpt><trkpt lat="42.39850930105283" lon="-8.031546361968617"><ele>396.0</ele><time>2026-03-23T16:32:28Z</time></trkpt><trkpt lat="42.39858620027688" lon="-8.0315654560287"><ele>396.0</ele><time>2026-03-23T16:32:29Z</time></trkpt><trkpt lat="42.398649410747254" lon="-8.03159836571481"><ele>396.0</ele><time>2026-03-23T16:32:32Z</time></trkpt><trkpt lat="42.398720036480455" lon="-8.031651094908245"><ele>396.0</ele><time>2026-03-23T16:32:59Z</time></trkpt><trkpt lat="42.39884198758242" lon="-8.03171939243174"><ele>396.0</ele><time>2026-03-23T16:33:01Z</time></trkpt><trkpt lat="42.39891521422236" lon="-8.031751577136324"><ele>396.0</ele><time>2026-03-23T16:33:02Z</time></trkpt><trkpt lat="42.39898455899926" lon="-8.031791359615744"><ele>397.0</ele><time>2026-03-23T16:33:03Z</time></trkpt><trkpt lat="42.39905490661984" lon="-8.031836655237084"><ele>398.0</ele><time>2026-03-23T16:33:04Z</time></trkpt><trkpt lat="42.39913374590648" lon="-8.031873833758658"><ele>399.0</ele><time>2026-03-23T16:33:05Z</time></trkpt><trkpt lat="42.39921400451922" lon="-8.031917123561339"><ele>400.0</ele><time>2026-03-23T16:33:06Z</time></trkpt><trkpt lat="42.399292450982614" lon="-8.031959278240508"><ele>401.0</ele><time>2026-03-23T16:33:07Z</time></trkpt><trkpt lat="42.399380348087064" lon="-8.03201428763414"><ele>402.0</ele><time>2026-03-23T16:33:08Z</time></trkpt><trkpt lat="42.39946322817753" lon="-8.032062525600761"><ele>402.0</ele><time>2026-03-23T16:33:09Z</time></trkpt><trkpt lat="42.399552597774445" lon="-8.032100841988335"><ele>402.0</ele><time>2026-03-23T16:33:10Z</time></trkpt><trkpt lat="42.39963156245697" lon="-8.032145266810721"><ele>402.0</ele><time>2026-03-23T16:33:11Z</time></trkpt><trkpt lat="42.39971329083448" lon="-8.03218993528175"><ele>402.0</ele><time>2026-03-23T16:33:12Z</time></trkpt><trkpt lat="42.39979740358101" lon="-8.032238844767825"><ele>402.0</ele><time>2026-03-23T16:33:13Z</time></trkpt><trkpt lat="42.39986585192375" lon="-8.032274745506854"><ele>402.0</ele><time>2026-03-23T16:33:13.999Z</time></trkpt><trkpt lat="42.399952813389035" lon="-8.032291380607392"><ele>403.1666666666667</ele><time>2026-03-23T16:33:14.999Z</time></trkpt><trkpt lat="42.400032864338414" lon="-8.032327875675573"><ele>404.33333333333337</ele><time>2026-03-23T16:33:15.999Z</time></trkpt><trkpt lat="42.40009498068085" lon="-8.03237621099812"><ele>405.5</ele><time>2026-03-23T16:33:16.999Z</time></trkpt><trkpt lat="42.40016796991069" lon="-8.032386782624286"><ele>406.6666666666667</ele><time>2026-03-23T16:33:17.999Z</time></trkpt><trkpt lat="42.4002700586363" lon="-8.03244475789233"><ele>407.83333333333337</ele><time>2026-03-23T16:33:19.999Z</time></trkpt><trkpt lat="42.400338928407486" lon="-8.032468677553945"><ele>409.0</ele><time>2026-03-23T16:33:21.999Z</time></trkpt><trkpt lat="42.400405949482284" lon="-8.032505306916057"><ele>410.25</ele><time>2026-03-23T16:33:25.999Z</time></trkpt><trkpt lat="42.4003419120063" lon="-8.032725832491074"><ele>411.5</ele><time>2026-03-23T16:33:26.999Z</time></trkpt><trkpt lat="42.400285570998626" lon="-8.03286869225934"><ele>412.75</ele><time>2026-03-23T16:33:27.999Z</time></trkpt><trkpt lat="42.40024352398574" lon="-8.033004744986114"><ele>414.0</ele><time>2026-03-23T16:33:28.999Z</time></trkpt><trkpt lat="42.400199559505474" lon="-8.033178541105078"><ele>414.25</ele><time>2026-03-23T16:33:29.999Z</time></trkpt><trkpt lat="42.40015759939226" lon="-8.033351059679399"><ele>414.5</ele><time>2026-03-23T16:33:30.999Z</time></trkpt><trkpt lat="42.400113529366955" lon="-8.03352212786935"><ele>414.75</ele><time>2026-03-23T16:33:31.999Z</time></trkpt><trkpt lat="42.400060924642716" lon="-8.033697692404626"><ele>415.0</ele><time>2026-03-23T16:33:32.999Z</time></trkpt><trkpt lat="42.4000131691496" lon="-8.033874388474224"><ele>415.0</ele><time>2026-03-23T16:33:33.999Z</time></trkpt><trkpt lat="42.399957813654666" lon="-8.034058117670947"><ele>415.0</ele><time>2026-03-23T16:33:34.999Z</time></trkpt><trkpt lat="42.399913589016585" lon="-8.034239821725484"><ele>415.0</ele><time>2026-03-23T16:33:35.999Z</time></trkpt><trkpt lat="42.39984095888428" lon="-8.034430479654922"><ele>415.0</ele><time>2026-03-23T16:33:36.999Z</time></trkpt><trkpt lat="42.39980427691551" lon="-8.034627288133919"><ele>414.0</ele><time>2026-03-23T16:33:37.999Z</time></trkpt><trkpt lat="42.39976221765692" lon="-8.03479922023373"><ele>413.0</ele><time>2026-03-23T16:33:38.999Z</time></trkpt><trkpt lat="42.39972272014511" lon="-8.03497255669444"><ele>412.0</ele><time>2026-03-23T16:33:39.999Z</time></trkpt><trkpt lat="42.39968877104456" lon="-8.035134911614136"><ele>411.0</ele><time>2026-03-23T16:33:40.999Z</time></trkpt><trkpt lat="42.399660563583815" lon="-8.035293966589936"><ele>410.0</ele><time>2026-03-23T16:33:41.999Z</time></trkpt><trkpt lat="42.39963322992764" lon="-8.035466763091698"><ele>409.0</ele><time>2026-03-23T16:33:42.999Z</time></trkpt><trkpt lat="42.3996047803216" lon="-8.035641764838429"><ele>408.0</ele><time>2026-03-23T16:33:43.999Z</time></trkpt><trkpt lat="42.3995602194198" lon="-8.035805437931197"><ele>407.0</ele><time>2026-03-23T16:33:44.999Z</time></trkpt><trkpt lat="42.39954006717265" lon="-8.035988281059554"><ele>407.0</ele><time>2026-03-23T16:33:45.999Z</time></trkpt><trkpt lat="42.39950043350129" lon="-8.036162249316785"><ele>407.0</ele><time>2026-03-23T16:33:46.999Z</time></trkpt><trkpt lat="42.39942804817398" lon="-8.036315776667351"><ele>407.0</ele><time>2026-03-23T16:33:47.999Z</time></trkpt><trkpt lat="42.39934647855753" lon="-8.03645938080135"><ele>407.0</ele><time>2026-03-23T16:33:48.999Z</time></trkpt><trkpt lat="42.39925075442339" lon="-8.036604639837137"><ele>406.5</ele><time>2026-03-23T16:33:49.999Z</time></trkpt><trkpt lat="42.39917422450261" lon="-8.036765463440641"><ele>406.0</ele><time>2026-03-23T16:33:50.999Z</time></trkpt><trkpt lat="42.399087417147314" lon="-8.03690963408173"><ele>405.5</ele><time>2026-03-23T16:33:51.999Z</time></trkpt><trkpt lat="42.39899718781312" lon="-8.03706119299179"><ele>405.0</ele><time>2026-03-23T16:33:52.999Z</time></trkpt><trkpt lat="42.398915424297776" lon="-8.037201676294243"><ele>405.0</ele><time>2026-03-23T16:33:53.999Z</time></trkpt><trkpt lat="42.398830493109074" lon="-8.037343711865692"><ele>405.0</ele><time>2026-03-23T16:33:54.999Z</time></trkpt><trkpt lat="42.39872964564876" lon="-8.037478254109487"><ele>405.0</ele><time>2026-03-23T16:33:56Z</time></trkpt><trkpt lat="42.398645108343175" lon="-8.037605192318503"><ele>405.0</ele><time>2026-03-23T16:33:57Z</time></trkpt><trkpt lat="42.398545266050135" lon="-8.037716972000354"><ele>405.0</ele><time>2026-03-23T16:33:58Z</time></trkpt><trkpt lat="42.39842566209428" lon="-8.037801368478524"><ele>405.0</ele><time>2026-03-23T16:33:59Z</time></trkpt><trkpt lat="42.39831475719861" lon="-8.037891932104106"><ele>405.0</ele><time>2026-03-23T16:34:00Z</time></trkpt><trkpt lat="42.39821227455574" lon="-8.037982088768697"><ele>405.0</ele><time>2026-03-23T16:34:01Z</time></trkpt><trkpt lat="42.39812519423444" lon="-8.038089433852726"><ele>405.0</ele><time>2026-03-23T16:34:02Z</time></trkpt><trkpt lat="42.398036831030005" lon="-8.038203893735666"><ele>405.0</ele><time>2026-03-23T16:34:03Z</time></trkpt><trkpt lat="42.39793797337121" lon="-8.038328725998062"><ele>405.0</ele><time>2026-03-23T16:34:04Z</time></trkpt><trkpt lat="42.39783752844484" lon="-8.038450503958853"><ele>405.0</ele><time>2026-03-23T16:34:05Z</time></trkpt><trkpt lat="42.397733528335785" lon="-8.038563823250954"><ele>405.0</ele><time>2026-03-23T16:34:06Z</time></trkpt><trkpt lat="42.397648272577364" lon="-8.038687538252468"><ele>405.0</ele><time>2026-03-23T16:34:07Z</time></trkpt><trkpt lat="42.39754849751986" lon="-8.038804256876887"><ele>405.0</ele><time>2026-03-23T16:34:08Z</time></trkpt><trkpt lat="42.397444322962976" lon="-8.03891386532245"><ele>405.0</ele><time>2026-03-23T16:34:09Z</time></trkpt><trkpt lat="42.39734218081394" lon="-8.039020696458845"><ele>405.0</ele><time>2026-03-23T16:34:10Z</time></trkpt><trkpt lat="42.39725449889171" lon="-8.039118719054011"><ele>405.0</ele><time>2026-03-23T16:34:11Z</time></trkpt><trkpt lat="42.39716636095932" lon="-8.039235829551004"><ele>405.0</ele><time>2026-03-23T16:34:12Z</time></trkpt><trkpt lat="42.39710066650404" lon="-8.039389452289095"><ele>405.0</ele><time>2026-03-23T16:34:13Z</time></trkpt><trkpt lat="42.39705268533937" lon="-8.039529989801412"><ele>404.75</ele><time>2026-03-23T16:34:14Z</time></trkpt><trkpt lat="42.39699242133252" lon="-8.039683253338048"><ele>404.5</ele><time>2026-03-23T16:34:15Z</time></trkpt><trkpt lat="42.396946324014046" lon="-8.039841373374383"><ele>404.25</ele><time>2026-03-23T16:34:16Z</time></trkpt><trkpt lat="42.396896972997766" lon="-8.040011793058369"><ele>404.0</ele><time>2026-03-23T16:34:17Z</time></trkpt><trkpt lat="42.396846381060065" lon="-8.040182512159182"><ele>404.0</ele><time>2026-03-23T16:34:18Z</time></trkpt><trkpt lat="42.39679804858438" lon="-8.040338340084642"><ele>404.0</ele><time>2026-03-23T16:34:19Z</time></trkpt><trkpt lat="42.39674914336679" lon="-8.040493454338534"><ele>404.0</ele><time>2026-03-23T16:34:20Z</time></trkpt><trkpt lat="42.396702278461476" lon="-8.040647135094673"><ele>404.0</ele><time>2026-03-23T16:34:21Z</time></trkpt><trkpt lat="42.39666084900593" lon="-8.040802831685156"><ele>403.75</ele><time>2026-03-23T16:34:22Z</time></trkpt><trkpt lat="42.396608285857845" lon="-8.040930657982308"><ele>403.5</ele><time>2026-03-23T16:34:23Z</time></trkpt><trkpt lat="42.39652098840037" lon="-8.041047444866452"><ele>403.25</ele><time>2026-03-23T16:34:24Z</time></trkpt><trkpt lat="42.39641043957901" lon="-8.0411174774659"><ele>403.0</ele><time>2026-03-23T16:34:25Z</time></trkpt><trkpt lat="42.39630616545319" lon="-8.041184829588545"><ele>403.0</ele><time>2026-03-23T16:34:26Z</time></trkpt><trkpt lat="42.3962124637156" lon="-8.041242585986318"><ele>403.0</ele><time>2026-03-23T16:34:27Z</time></trkpt><trkpt lat="42.39611883339201" lon="-8.041325914783913"><ele>403.0</ele><time>2026-03-23T16:34:28Z</time></trkpt><trkpt lat="42.396056177055684" lon="-8.0414543047777"><ele>403.0</ele><time>2026-03-23T16:34:29Z</time></trkpt><trkpt lat="42.39600039846704" lon="-8.041580128085052"><ele>403.0</ele><time>2026-03-23T16:34:30Z</time></trkpt><trkpt lat="42.3959445508472" lon="-8.041727327665619"><ele>403.25</ele><time>2026-03-23T16:34:31Z</time></trkpt><trkpt lat="42.395904908139215" lon="-8.041863153728242"><ele>403.5</ele><time>2026-03-23T16:34:32Z</time></trkpt><trkpt lat="42.3958608129623" lon="-8.04201759214211"><ele>403.75</ele><time>2026-03-23T16:34:33Z</time></trkpt><trkpt lat="42.395800830406564" lon="-8.042160003550581"><ele>404.0</ele><time>2026-03-23T16:34:34Z</time></trkpt><trkpt lat="42.39576493911581" lon="-8.042307566928873"><ele>404.5</ele><time>2026-03-23T16:34:35Z</time></trkpt><trkpt lat="42.39571485093833" lon="-8.042476171834878"><ele>405.0</ele><time>2026-03-23T16:34:36Z</time></trkpt><trkpt lat="42.39566586776533" lon="-8.042618954379908"><ele>405.5</ele><time>2026-03-23T16:34:37Z</time></trkpt><trkpt lat="42.39560962767237" lon="-8.042745573527611"><ele>406.0</ele><time>2026-03-23T16:34:38Z</time></trkpt><trkpt lat="42.39556326004892" lon="-8.042864863506638"><ele>406.00000000000006</ele><time>2026-03-23T16:34:39Z</time></trkpt><trkpt lat="42.39552207743752" lon="-8.042969647765435"><ele>406.0</ele><time>2026-03-23T16:34:40Z</time></trkpt><trkpt lat="42.395489917502495" lon="-8.043049305846512"><ele>406.0</ele><time>2026-03-23T16:34:41Z</time></trkpt><trkpt lat="42.3954884083314" lon="-8.043155525324414"><ele>406.0</ele><time>2026-03-23T16:34:43Z</time></trkpt><trkpt lat="42.395550982801026" lon="-8.043201658658973"><ele>406.00000000000006</ele><time>2026-03-23T16:34:44Z</time></trkpt><trkpt lat="42.39561319690191" lon="-8.043260952686053"><ele>406.0</ele><time>2026-03-23T16:34:45Z</time></trkpt><trkpt lat="42.39568753910621" lon="-8.043320976103212"><ele>406.4</ele><time>2026-03-23T16:34:46Z</time></trkpt><trkpt lat="42.39575889962747" lon="-8.043397349072354"><ele>406.8</ele><time>2026-03-23T16:34:47Z</time></trkpt><trkpt lat="42.39582304619443" lon="-8.043468983773517"><ele>407.2</ele><time>2026-03-23T16:34:48Z</time></trkpt><trkpt lat="42.39591575547026" lon="-8.04355808613496"><ele>407.59999999999997</ele><time>2026-03-23T16:34:49Z</time></trkpt><trkpt lat="42.3959836987322" lon="-8.04364480211966"><ele>408.0</ele><time>2026-03-23T16:34:50Z</time></trkpt><trkpt lat="42.39605229506126" lon="-8.043714254392434"><ele>408.0</ele><time>2026-03-23T16:34:51Z</time></trkpt><trkpt lat="42.39613628100396" lon="-8.043819416935666"><ele>408.0</ele><time>2026-03-23T16:34:52Z</time></trkpt><trkpt lat="42.3962161990976" lon="-8.04390467704816"><ele>408.0</ele><time>2026-03-23T16:34:53Z</time></trkpt><trkpt lat="42.39631060416398" lon="-8.043998879922752"><ele>408.0</ele><time>2026-03-23T16:34:54Z</time></trkpt><trkpt lat="42.396400879241895" lon="-8.044093557688349"><ele>408.0</ele><time>2026-03-23T16:34:55Z</time></trkpt><trkpt lat="42.396487859360555" lon="-8.04418765828764"><ele>406.5</ele><time>2026-03-23T16:34:56Z</time></trkpt><trkpt lat="42.39658609222696" lon="-8.044292994492652"><ele>405.0</ele><time>2026-03-23T16:34:57Z</time></trkpt><trkpt lat="42.39667512432241" lon="-8.0443810198037"><ele>403.5</ele><time>2026-03-23T16:34:58Z</time></trkpt><trkpt lat="42.39676613064473" lon="-8.04446967639756"><ele>402.0</ele><time>2026-03-23T16:34:59Z</time></trkpt><trkpt lat="42.3968560762076" lon="-8.044549697613142"><ele>402.0</ele><time>2026-03-23T16:35:00Z</time></trkpt><trkpt lat="42.39694938378372" lon="-8.044629097602444"><ele>402.0</ele><time>2026-03-23T16:35:01Z</time></trkpt><trkpt lat="42.397046073822715" lon="-8.044721206150475"><ele>402.0</ele><time>2026-03-23T16:35:02Z</time></trkpt><trkpt lat="42.397139989598415" lon="-8.044794009024478"><ele>402.0</ele><time>2026-03-23T16:35:03Z</time></trkpt><trkpt lat="42.39722297188631" lon="-8.044876149811238"><ele>402.0</ele><time>2026-03-23T16:35:04Z</time></trkpt><trkpt lat="42.397321420627016" lon="-8.04494767709692"><ele>399.6</ele><time>2026-03-23T16:35:05Z</time></trkpt><trkpt lat="42.39742467806986" lon="-8.04504121566105"><ele>397.20000000000005</ele><time>2026-03-23T16:35:06Z</time></trkpt><trkpt lat="42.397515586121266" lon="-8.04511462984456"><ele>394.8</ele><time>2026-03-23T16:35:07Z</time></trkpt><trkpt lat="42.397605901225646" lon="-8.04518989294162"><ele>392.4</ele><time>2026-03-23T16:35:08Z</time></trkpt><trkpt lat="42.39769224961561" lon="-8.045267697466315"><ele>390.0</ele><time>2026-03-23T16:35:09Z</time></trkpt><trkpt lat="42.3977874582957" lon="-8.045351270933057"><ele>390.0</ele><time>2026-03-23T16:35:10Z</time></trkpt><trkpt lat="42.39788349750845" lon="-8.045425841887162"><ele>390.0</ele><time>2026-03-23T16:35:11Z</time></trkpt><trkpt lat="42.397987715622726" lon="-8.045512038258023"><ele>390.0</ele><time>2026-03-23T16:35:12Z</time></trkpt><trkpt lat="42.398086042493034" lon="-8.045595064858393"><ele>390.0</ele><time>2026-03-23T16:35:13Z</time></trkpt><trkpt lat="42.39818456671765" lon="-8.045662774415332"><ele>388.4</ele><time>2026-03-23T16:35:14Z</time></trkpt><trkpt lat="42.39827583037671" lon="-8.045740646199166"><ele>386.8</ele><time>2026-03-23T16:35:15Z</time></trkpt><trkpt lat="42.39836744268666" lon="-8.045816825877228"><ele>385.20000000000005</ele><time>2026-03-23T16:35:16Z</time></trkpt><trkpt lat="42.39844422776188" lon="-8.045859869375754"><ele>383.6</ele><time>2026-03-23T16:35:17Z</time></trkpt><trkpt lat="42.39851993221893" lon="-8.045895958653134"><ele>382.0</ele><time>2026-03-23T16:35:18Z</time></trkpt><trkpt lat="42.39860525330005" lon="-8.045922572487953"><ele>381.5</ele><time>2026-03-23T16:35:18.999Z</time></trkpt><trkpt lat="42.39870532295477" lon="-8.045951677785393"><ele>381.0</ele><time>2026-03-23T16:35:19.999Z</time></trkpt><trkpt lat="42.3988239218785" lon="-8.045984064178228"><ele>380.5</ele><time>2026-03-23T16:35:20.999Z</time></trkpt><trkpt lat="42.39894719976027" lon="-8.046013583155904"><ele>380.0</ele><time>2026-03-23T16:35:21.999Z</time></trkpt><trkpt lat="42.39908307458183" lon="-8.046051850609937"><ele>378.0</ele><time>2026-03-23T16:35:22.999Z</time></trkpt><trkpt lat="42.399220100483326" lon="-8.046099588983068"><ele>376.0</ele><time>2026-03-23T16:35:23.999Z</time></trkpt><trkpt lat="42.39936363555368" lon="-8.046146244441655"><ele>374.0</ele><time>2026-03-23T16:35:24.999Z</time></trkpt><trkpt lat="42.39951275180596" lon="-8.046200723654255"><ele>372.0</ele><time>2026-03-23T16:35:25.999Z</time></trkpt><trkpt lat="42.39965839530155" lon="-8.046233300693938"><ele>371.3333333333333</ele><time>2026-03-23T16:35:26.999Z</time></trkpt><trkpt lat="42.39980757529658" lon="-8.046297534602305"><ele>370.66666666666663</ele><time>2026-03-23T16:35:27.999Z</time></trkpt><trkpt lat="42.39995011832877" lon="-8.046351078516738"><ele>370.0</ele><time>2026-03-23T16:35:28.999Z</time></trkpt><trkpt lat="42.400101484512454" lon="-8.046416857400551"><ele>370.0</ele><time>2026-03-23T16:35:29.999Z</time></trkpt><trkpt lat="42.400248637642704" lon="-8.046457658302451"><ele>370.0</ele><time>2026-03-23T16:35:30.999Z</time></trkpt><trkpt lat="42.40039222643553" lon="-8.046518410116052"><ele>370.0</ele><time>2026-03-23T16:35:31.999Z</time></trkpt><trkpt lat="42.40053233029104" lon="-8.046569030706857"><ele>370.0</ele><time>2026-03-23T16:35:32.999Z</time></trkpt><trkpt lat="42.400667500744994" lon="-8.046607878335955"><ele>370.0</ele><time>2026-03-23T16:35:33.999Z</time></trkpt><trkpt lat="42.40079823552366" lon="-8.046657506540807"><ele>370.0</ele><time>2026-03-23T16:35:34.999Z</time></trkpt><trkpt lat="42.40093802193433" lon="-8.046712904137417"><ele>370.0</ele><time>2026-03-23T16:35:35.999Z</time></trkpt><trkpt lat="42.401073466549555" lon="-8.046784116006226"><ele>370.0</ele><time>2026-03-23T16:35:36.999Z</time></trkpt><trkpt lat="42.401210406225836" lon="-8.04685441535199"><ele>369.5</ele><time>2026-03-23T16:35:37.999Z</time></trkpt><trkpt lat="42.401341161703556" lon="-8.04693013417427"><ele>369.0</ele><time>2026-03-23T16:35:38.999Z</time></trkpt><trkpt lat="42.401471274012955" lon="-8.04701394470999"><ele>368.5</ele><time>2026-03-23T16:35:39.999Z</time></trkpt><trkpt lat="42.4016174544615" lon="-8.047102836953698"><ele>368.0</ele><time>2026-03-23T16:35:40.999Z</time></trkpt><trkpt lat="42.40175885051659" lon="-8.04718768334394"><ele>368.0</ele><time>2026-03-23T16:35:41.999Z</time></trkpt><trkpt lat="42.4019036580361" lon="-8.047264684418375"><ele>368.0</ele><time>2026-03-23T16:35:42.999Z</time></trkpt><trkpt lat="42.40204595736604" lon="-8.04734057876343"><ele>368.0</ele><time>2026-03-23T16:35:43.999Z</time></trkpt><trkpt lat="42.40220374246068" lon="-8.047417997914678"><ele>369.33333333333337</ele><time>2026-03-23T16:35:44.999Z</time></trkpt><trkpt lat="42.40235038439806" lon="-8.047486633968187"><ele>370.6666666666667</ele><time>2026-03-23T16:35:45.999Z</time></trkpt><trkpt lat="42.402491993268846" lon="-8.047585260976748"><ele>372.0</ele><time>2026-03-23T16:35:46.999Z</time></trkpt><trkpt lat="42.40263729384162" lon="-8.047662404509651"><ele>372.0</ele><time>2026-03-23T16:35:47.999Z</time></trkpt><trkpt lat="42.40276691155664" lon="-8.047726387037487"><ele>372.0</ele><time>2026-03-23T16:35:48.999Z</time></trkpt><trkpt lat="42.40288632496913" lon="-8.04778768849408"><ele>372.0</ele><time>2026-03-23T16:35:49.999Z</time></trkpt><trkpt lat="42.40299390144506" lon="-8.047842784395746"><ele>372.0</ele><time>2026-03-23T16:35:50.999Z</time></trkpt><trkpt lat="42.403102669773624" lon="-8.04790922403398"><ele>373.0</ele><time>2026-03-23T16:35:51.999Z</time></trkpt><trkpt lat="42.40320417659676" lon="-8.047990996725277"><ele>374.0</ele><time>2026-03-23T16:35:52.999Z</time></trkpt><trkpt lat="42.40329274939633" lon="-8.048085816850293"><ele>375.0</ele><time>2026-03-23T16:35:53.999Z</time></trkpt><trkpt lat="42.40337890518697" lon="-8.048213983021064"><ele>376.0</ele><time>2026-03-23T16:35:54.999Z</time></trkpt><trkpt lat="42.4034491214266" lon="-8.048332667655389"><ele>376.0</ele><time>2026-03-23T16:35:55.999Z</time></trkpt><trkpt lat="42.403528620390475" lon="-8.048463838973527"><ele>376.0</ele><time>2026-03-23T16:35:56.999Z</time></trkpt><trkpt lat="42.40360641212092" lon="-8.048594330625418"><ele>376.0</ele><time>2026-03-23T16:35:57.999Z</time></trkpt><trkpt lat="42.40369294141537" lon="-8.048724139641406"><ele>376.0</ele><time>2026-03-23T16:35:58.999Z</time></trkpt><trkpt lat="42.40377081167451" lon="-8.048845834119147"><ele>376.8</ele><time>2026-03-23T16:35:59.999Z</time></trkpt><trkpt lat="42.403846305634836" lon="-8.048963959130806"><ele>377.6</ele><time>2026-03-23T16:36:00.999Z</time></trkpt><trkpt lat="42.40391440291832" lon="-8.049078733291386"><ele>378.4</ele><time>2026-03-23T16:36:02Z</time></trkpt><trkpt lat="42.403972773669906" lon="-8.049171362769245"><ele>379.2</ele><time>2026-03-23T16:36:03Z</time></trkpt><trkpt lat="42.40403895144146" lon="-8.049276075497733"><ele>380.0</ele><time>2026-03-23T16:36:04Z</time></trkpt><trkpt lat="42.40410471568064" lon="-8.049366751701477"><ele>380.0</ele><time>2026-03-23T16:36:05Z</time></trkpt><trkpt lat="42.40417186201729" lon="-8.049470468432414"><ele>380.0</ele><time>2026-03-23T16:36:06Z</time></trkpt><trkpt lat="42.4042273525934" lon="-8.049569752644112"><ele>380.0</ele><time>2026-03-23T16:36:07Z</time></trkpt><trkpt lat="42.40428271710199" lon="-8.049676405294576"><ele>380.0</ele><time>2026-03-23T16:36:08Z</time></trkpt><trkpt lat="42.40434739200235" lon="-8.049773354719576"><ele>380.0</ele><time>2026-03-23T16:36:09Z</time></trkpt><trkpt lat="42.40440887543795" lon="-8.049867590339018"><ele>380.0</ele><time>2026-03-23T16:36:10Z</time></trkpt><trkpt lat="42.40448120148821" lon="-8.049953967956114"><ele>380.0</ele><time>2026-03-23T16:36:11Z</time></trkpt><trkpt lat="42.404543907961894" lon="-8.050055685434032"><ele>380.0</ele><time>2026-03-23T16:36:12Z</time></trkpt><trkpt lat="42.40460844373219" lon="-8.050147301397837"><ele>380.0</ele><time>2026-03-23T16:36:13Z</time></trkpt><trkpt lat="42.40466472203755" lon="-8.05023715221733"><ele>380.0</ele><time>2026-03-23T16:36:14Z</time></trkpt><trkpt lat="42.40471479596765" lon="-8.05031430098721"><ele>379.6</ele><time>2026-03-23T16:36:15Z</time></trkpt><trkpt lat="42.40476165167093" lon="-8.0503833923829"><ele>379.2</ele><time>2026-03-23T16:36:16Z</time></trkpt><trkpt lat="42.40481831302901" lon="-8.050432824705297"><ele>378.79999999999995</ele><time>2026-03-23T16:36:17Z</time></trkpt><trkpt lat="42.40491400483221" lon="-8.050532760147675"><ele>378.4</ele><time>2026-03-23T16:36:19Z</time></trkpt><trkpt lat="42.40499347087719" lon="-8.050631604970038"><ele>378.0</ele><time>2026-03-23T16:36:21Z</time></trkpt><trkpt lat="42.405064890048344" lon="-8.05071441471576"><ele>377.5</ele><time>2026-03-23T16:36:23Z</time></trkpt><trkpt lat="42.4051249464496" lon="-8.05080224014589"><ele>377.0</ele><time>2026-03-23T16:36:25Z</time></trkpt><trkpt lat="42.40519458516317" lon="-8.050878478587475"><ele>376.5</ele><time>2026-03-23T16:36:27Z</time></trkpt><trkpt lat="42.405252184742245" lon="-8.050947068967277"><ele>376.0</ele><time>2026-03-23T16:36:29Z</time></trkpt><trkpt lat="42.405308576741994" lon="-8.051016290988239"><ele>375.5</ele><time>2026-03-23T16:36:31Z</time></trkpt><trkpt lat="42.40537067912658" lon="-8.051097989109548"><ele>375.0</ele><time>2026-03-23T16:36:33Z</time></trkpt><trkpt lat="42.405462534568905" lon="-8.051185396393477"><ele>374.3333333333333</ele><time>2026-03-23T16:36:35Z</time></trkpt><trkpt lat="42.40550477235464" lon="-8.051251426978489"><ele>373.6666666666667</ele><time>2026-03-23T16:36:36Z</time></trkpt><trkpt lat="42.405592509930784" lon="-8.051358040164542"><ele>373.0</ele><time>2026-03-23T16:36:38Z</time></trkpt><trkpt lat="42.405641378391124" lon="-8.051418007804749"><ele>372.33333333333337</ele><time>2026-03-23T16:36:39Z</time></trkpt><trkpt lat="42.40569395409295" lon="-8.051485497051413"><ele>371.6666666666667</ele><time>2026-03-23T16:36:40Z</time></trkpt><trkpt lat="42.405748574075986" lon="-8.051565938992002"><ele>371.0</ele><time>2026-03-23T16:36:41Z</time></trkpt><trkpt lat="42.405810006728395" lon="-8.051636763855946"><ele>370.0</ele><time>2026-03-23T16:36:42Z</time></trkpt><trkpt lat="42.40587270111449" lon="-8.051728867038479"><ele>369.0</ele><time>2026-03-23T16:36:43Z</time></trkpt><trkpt lat="42.405942632575766" lon="-8.051802936779522"><ele>368.0</ele><time>2026-03-23T16:36:44Z</time></trkpt><trkpt lat="42.40600831989797" lon="-8.051890600638997"><ele>367.0</ele><time>2026-03-23T16:36:45Z</time></trkpt><trkpt lat="42.40607745374648" lon="-8.051966457784456"><ele>366.0</ele><time>2026-03-23T16:36:46Z</time></trkpt><trkpt lat="42.406139483648936" lon="-8.052039684898418"><ele>365.0</ele><time>2026-03-23T16:36:47Z</time></trkpt><trkpt lat="42.406206361912865" lon="-8.05210680136622"><ele>365.0</ele><time>2026-03-23T16:36:48Z</time></trkpt><trkpt lat="42.40627130141544" lon="-8.052184735674365"><ele>365.0</ele><time>2026-03-23T16:36:49Z</time></trkpt><trkpt lat="42.40631087987784" lon="-8.05228006108788"><ele>365.0</ele><time>2026-03-23T16:36:50Z</time></trkpt><trkpt lat="42.406340201168085" lon="-8.052410612364486"><ele>365.0</ele><time>2026-03-23T16:36:51Z</time></trkpt><trkpt lat="42.40636923889501" lon="-8.052534817352303"><ele>365.0</ele><time>2026-03-23T16:36:52Z</time></trkpt><trkpt lat="42.40637802629212" lon="-8.052679831453023"><ele>364.2</ele><time>2026-03-23T16:36:53Z</time></trkpt><trkpt lat="42.40638545494108" lon="-8.05282340085837"><ele>363.4</ele><time>2026-03-23T16:36:54Z</time></trkpt><trkpt lat="42.40640006580686" lon="-8.052958323345042"><ele>362.6</ele><time>2026-03-23T16:36:55Z</time></trkpt><trkpt lat="42.406408984359665" lon="-8.05309829264532"><ele>361.8</ele><time>2026-03-23T16:36:56Z</time></trkpt><trkpt lat="42.406437500166234" lon="-8.053242039718906"><ele>361.0</ele><time>2026-03-23T16:36:57Z</time></trkpt><trkpt lat="42.40644526599543" lon="-8.05339140352949"><ele>360.20000000000005</ele><time>2026-03-23T16:36:58Z</time></trkpt><trkpt lat="42.40645456678283" lon="-8.05350618211009"><ele>359.40000000000003</ele><time>2026-03-23T16:36:59Z</time></trkpt><trkpt lat="42.406485426861906" lon="-8.053632974939152"><ele>358.6</ele><time>2026-03-23T16:37:00Z</time></trkpt><trkpt lat="42.406485678800344" lon="-8.053781202063783"><ele>357.8</ele><time>2026-03-23T16:37:01Z</time></trkpt><trkpt lat="42.406502874144394" lon="-8.053922645408514"><ele>357.0</ele><time>2026-03-23T16:37:02Z</time></trkpt><trkpt lat="42.406526931180885" lon="-8.054032180387537"><ele>356.8</ele><time>2026-03-23T16:37:03Z</time></trkpt><trkpt lat="42.406536830405145" lon="-8.054148144423577"><ele>356.6</ele><time>2026-03-23T16:37:04Z</time></trkpt><trkpt lat="42.406557858942065" lon="-8.054283343577188"><ele>356.40000000000003</ele><time>2026-03-23T16:37:05Z</time></trkpt><trkpt lat="42.40655021094501" lon="-8.054444349860153"><ele>356.20000000000005</ele><time>2026-03-23T16:37:06Z</time></trkpt><trkpt lat="42.40654306361115" lon="-8.054596359543515"><ele>356.0</ele><time>2026-03-23T16:37:07Z</time></trkpt><trkpt lat="42.40656016421884" lon="-8.054768559087435"><ele>356.0</ele><time>2026-03-23T16:37:08Z</time></trkpt><trkpt lat="42.40660692524385" lon="-8.054915328012557"><ele>356.0</ele><time>2026-03-23T16:37:09Z</time></trkpt><trkpt lat="42.40666094674125" lon="-8.055064790536854"><ele>356.0</ele><time>2026-03-23T16:37:10Z</time></trkpt><trkpt lat="42.40671701182951" lon="-8.05521578140728"><ele>356.0</ele><time>2026-03-23T16:37:11Z</time></trkpt><trkpt lat="42.40678320370366" lon="-8.055332185864971"><ele>354.8</ele><time>2026-03-23T16:37:12Z</time></trkpt><trkpt lat="42.406833388715896" lon="-8.055446465795518"><ele>353.6</ele><time>2026-03-23T16:37:13Z</time></trkpt><trkpt lat="42.40684155916284" lon="-8.055572261531125"><ele>352.4</ele><time>2026-03-23T16:37:14Z</time></trkpt><trkpt lat="42.40690184992736" lon="-8.055695096745058"><ele>351.2</ele><time>2026-03-23T16:37:15Z</time></trkpt><trkpt lat="42.40696096363812" lon="-8.055827706902129"><ele>350.0</ele><time>2026-03-23T16:37:16Z</time></trkpt><trkpt lat="42.40702579442847" lon="-8.05595767714415"><ele>349.25</ele><time>2026-03-23T16:37:17Z</time></trkpt><trkpt lat="42.40709382180444" lon="-8.056091261427836"><ele>348.5</ele><time>2026-03-23T16:37:18Z</time></trkpt><trkpt lat="42.40716049388529" lon="-8.05621710689014"><ele>347.75</ele><time>2026-03-23T16:37:19Z</time></trkpt><trkpt lat="42.40723060477105" lon="-8.056349672376768"><ele>347.0</ele><time>2026-03-23T16:37:19.999Z</time></trkpt><trkpt lat="42.407300729538306" lon="-8.05648468287004"><ele>345.25</ele><time>2026-03-23T16:37:20.999Z</time></trkpt><trkpt lat="42.4073636934455" lon="-8.056637600260553"><ele>343.5</ele><time>2026-03-23T16:37:21.999Z</time></trkpt><trkpt lat="42.4074481646704" lon="-8.056763178253247"><ele>341.75</ele><time>2026-03-23T16:37:22.999Z</time></trkpt><trkpt lat="42.40751676931336" lon="-8.056898545796418"><ele>340.0</ele><time>2026-03-23T16:37:23.999Z</time></trkpt><trkpt lat="42.407588575068985" lon="-8.057019398462883"><ele>340.0</ele><time>2026-03-23T16:37:24.999Z</time></trkpt><trkpt lat="42.40766293026744" lon="-8.057156722553064"><ele>340.0</ele><time>2026-03-23T16:37:25.999Z</time></trkpt><trkpt lat="42.407739423707376" lon="-8.057285912715123"><ele>340.0</ele><time>2026-03-23T16:37:26.999Z</time></trkpt><trkpt lat="42.407836067861496" lon="-8.057401658632235"><ele>340.0</ele><time>2026-03-23T16:37:27.999Z</time></trkpt><trkpt lat="42.407959178482265" lon="-8.057518324849426"><ele>339.0</ele><time>2026-03-23T16:37:28.999Z</time></trkpt><trkpt lat="42.408044451467646" lon="-8.057667465565975"><ele>338.0</ele><time>2026-03-23T16:37:29.999Z</time></trkpt><trkpt lat="42.40815431260129" lon="-8.057801012807088"><ele>337.0</ele><time>2026-03-23T16:37:30.999Z</time></trkpt><trkpt lat="42.408250631735754" lon="-8.057954760573272"><ele>336.0</ele><time>2026-03-23T16:37:31.999Z</time></trkpt><trkpt lat="42.40834101368521" lon="-8.058104469662313"><ele>336.0</ele><time>2026-03-23T16:37:32.999Z</time></trkpt><trkpt lat="42.40842739044518" lon="-8.05825974634379"><ele>336.0</ele><time>2026-03-23T16:37:33.999Z</time></trkpt><trkpt lat="42.40851203834615" lon="-8.05842461683435"><ele>336.0</ele><time>2026-03-23T16:37:34.999Z</time></trkpt><trkpt lat="42.40859045296945" lon="-8.058606787447125"><ele>336.0</ele><time>2026-03-23T16:37:35.999Z</time></trkpt><trkpt lat="42.40865818101452" lon="-8.058778154531097"><ele>336.0</ele><time>2026-03-23T16:37:36.999Z</time></trkpt><trkpt lat="42.408775610295564" lon="-8.058932858865155"><ele>336.0</ele><time>2026-03-23T16:37:37.999Z</time></trkpt><trkpt lat="42.40889892047424" lon="-8.059029012279966"><ele>336.0</ele><time>2026-03-23T16:37:38.999Z</time></trkpt><trkpt lat="42.40897168631963" lon="-8.059094494257009"><ele>336.0</ele><time>2026-03-23T16:37:39.999Z</time></trkpt><trkpt lat="42.409034788412164" lon="-8.059173865771712"><ele>338.75</ele><time>2026-03-23T16:37:40.999Z</time></trkpt><trkpt lat="42.409140732287604" lon="-8.059236093256217"><ele>341.5</ele><time>2026-03-23T16:37:41.999Z</time></trkpt><trkpt lat="42.40928496106784" lon="-8.059345191278004"><ele>344.25</ele><time>2026-03-23T16:37:42.999Z</time></trkpt><trkpt lat="42.40940197824311" lon="-8.059420806485633"><ele>347.0</ele><time>2026-03-23T16:37:43.999Z</time></trkpt><trkpt lat="42.409493265014774" lon="-8.059522178796483"><ele>347.0</ele><time>2026-03-23T16:37:44.999Z</time></trkpt><trkpt lat="42.40960073162025" lon="-8.059606240566259"><ele>347.0</ele><time>2026-03-23T16:37:45.999Z</time></trkpt><trkpt lat="42.409696971042415" lon="-8.059662254778347"><ele>347.0</ele><time>2026-03-23T16:37:46.999Z</time></trkpt><trkpt lat="42.409801664809265" lon="-8.059714527372098"><ele>347.0</ele><time>2026-03-23T16:37:47.999Z</time></trkpt><trkpt lat="42.409925186198286" lon="-8.059757979922056"><ele>349.25</ele><time>2026-03-23T16:37:48.999Z</time></trkpt><trkpt lat="42.410046462412375" lon="-8.059794129390765"><ele>351.5</ele><time>2026-03-23T16:37:49.999Z</time></trkpt><trkpt lat="42.410167055890206" lon="-8.05981594836784"><ele>353.75</ele><time>2026-03-23T16:37:50.999Z</time></trkpt><trkpt lat="42.41028706977773" lon="-8.0598289982102"><ele>356.0</ele><time>2026-03-23T16:37:51.999Z</time></trkpt><trkpt lat="42.41040778205217" lon="-8.059830807809417"><ele>357.5</ele><time>2026-03-23T16:37:52.999Z</time></trkpt><trkpt lat="42.410529152608866" lon="-8.059843099409015"><ele>359.0</ele><time>2026-03-23T16:37:53.999Z</time></trkpt><trkpt lat="42.41065084054519" lon="-8.059858382319833"><ele>360.5</ele><time>2026-03-23T16:37:54.999Z</time></trkpt><trkpt lat="42.41076457155251" lon="-8.059894113640917"><ele>362.0</ele><time>2026-03-23T16:37:55.999Z</time></trkpt><trkpt lat="42.41088538192136" lon="-8.059943345875299"><ele>364.0</ele><time>2026-03-23T16:37:56.999Z</time></trkpt><trkpt lat="42.410978320457275" lon="-8.060002135042769"><ele>366.0</ele><time>2026-03-23T16:37:57.999Z</time></trkpt><trkpt lat="42.41105969991941" lon="-8.060042241987082"><ele>368.0</ele><time>2026-03-23T16:37:58.999Z</time></trkpt><trkpt lat="42.411122491035854" lon="-8.06008172467364"><ele>370.0</ele><time>2026-03-23T16:37:59.999Z</time></trkpt><trkpt lat="42.41119105725719" lon="-8.060133608492544"><ele>372.0</ele><time>2026-03-23T16:38:01.999Z</time></trkpt><trkpt lat="42.4111408795601" lon="-8.060274358811965"><ele>372.0</ele><time>2026-03-23T16:38:03.999Z</time></trkpt><trkpt lat="42.41104846889356" lon="-8.060369241169893"><ele>372.0</ele><time>2026-03-23T16:38:05.999Z</time></trkpt><trkpt lat="42.410962435721544" lon="-8.060517534650227"><ele>372.0</ele><time>2026-03-23T16:38:08Z</time></trkpt><trkpt lat="42.410913895787964" lon="-8.060594108937527"><ele>372.0</ele><time>2026-03-23T16:38:09Z</time></trkpt><trkpt lat="42.41085668825034" lon="-8.060677806575795"><ele>372.0</ele><time>2026-03-23T16:38:10Z</time></trkpt><trkpt lat="42.41082041289745" lon="-8.060771921116604"><ele>373.0</ele><time>2026-03-23T16:38:11Z</time></trkpt><trkpt lat="42.410802043037485" lon="-8.06087407639526"><ele>374.0</ele><time>2026-03-23T16:38:12Z</time></trkpt><trkpt lat="42.410811130407076" lon="-8.060981743197933"><ele>375.0</ele><time>2026-03-23T16:38:13Z</time></trkpt><trkpt lat="42.41079854320807" lon="-8.061099014039968"><ele>376.0</ele><time>2026-03-23T16:38:14Z</time></trkpt><trkpt lat="42.41080758494975" lon="-8.061218154484015"><ele>377.0</ele><time>2026-03-23T16:38:15Z</time></trkpt><trkpt lat="42.410804623647735" lon="-8.061343098510461"><ele>378.0</ele><time>2026-03-23T16:38:16Z</time></trkpt><trkpt lat="42.41079929182279" lon="-8.061481806599858"><ele>378.6666666666667</ele><time>2026-03-23T16:38:17Z</time></trkpt><trkpt lat="42.41079465537427" lon="-8.061618014497268"><ele>379.3333333333333</ele><time>2026-03-23T16:38:18Z</time></trkpt><trkpt lat="42.41075940344623" lon="-8.061736518534703"><ele>380.0</ele><time>2026-03-23T16:38:19Z</time></trkpt><trkpt lat="42.41074478057854" lon="-8.061840911035544"><ele>380.66666666666663</ele><time>2026-03-23T16:38:20Z</time></trkpt><trkpt lat="42.41071231964218" lon="-8.061945820594683"><ele>381.3333333333333</ele><time>2026-03-23T16:38:22Z</time></trkpt><trkpt lat="42.41068930271496" lon="-8.062060290866604"><ele>382.0</ele><time>2026-03-23T16:38:23Z</time></trkpt><trkpt lat="42.410633186049104" lon="-8.062154234947789"><ele>382.0</ele><time>2026-03-23T16:38:24Z</time></trkpt><trkpt lat="42.4105951133277" lon="-8.062247841864433"><ele>382.0</ele><time>2026-03-23T16:38:25Z</time></trkpt><trkpt lat="42.41056220130405" lon="-8.062339956627845"><ele>382.0</ele><time>2026-03-23T16:38:26Z</time></trkpt><trkpt lat="42.410496865991924" lon="-8.062503278351143"><ele>382.0</ele><time>2026-03-23T16:38:28Z</time></trkpt><trkpt lat="42.41044355939191" lon="-8.062665423022697"><ele>382.0</ele><time>2026-03-23T16:38:30Z</time></trkpt><trkpt lat="42.410416454051216" lon="-8.062748337859453"><ele>380.8571428571429</ele><time>2026-03-23T16:38:31Z</time></trkpt><trkpt lat="42.410386026900085" lon="-8.06283081778082"><ele>379.71428571428567</ele><time>2026-03-23T16:38:32Z</time></trkpt><trkpt lat="42.41036078698149" lon="-8.062909635939322"><ele>378.57142857142856</ele><time>2026-03-23T16:38:33Z</time></trkpt><trkpt lat="42.41033917042139" lon="-8.062991027454087"><ele>377.42857142857144</ele><time>2026-03-23T16:38:34Z</time></trkpt><trkpt lat="42.410328984471114" lon="-8.063081886918024"><ele>376.28571428571433</ele><time>2026-03-23T16:38:35Z</time></trkpt><trkpt lat="42.410324162527765" lon="-8.063170074877362"><ele>375.1428571428571</ele><time>2026-03-23T16:38:36Z</time></trkpt><trkpt lat="42.410319921572125" lon="-8.063270255925518"><ele>374.0</ele><time>2026-03-23T16:38:37Z</time></trkpt><trkpt lat="42.41031971028656" lon="-8.063440278629995"><ele>373.2</ele><time>2026-03-23T16:38:39Z</time></trkpt><trkpt lat="42.410313936471375" lon="-8.06360886176198"><ele>372.4</ele><time>2026-03-23T16:38:41Z</time></trkpt><trkpt lat="42.4103073415286" lon="-8.06372501647282"><ele>371.6</ele><time>2026-03-23T16:38:42Z</time></trkpt><trkpt lat="42.41029993356431" lon="-8.063836693542239"><ele>370.8</ele><time>2026-03-23T16:38:43Z</time></trkpt><trkpt lat="42.410288440907415" lon="-8.063953638677617"><ele>370.0</ele><time>2026-03-23T16:38:44Z</time></trkpt><trkpt lat="42.41026255100413" lon="-8.064082470576972"><ele>369.25</ele><time>2026-03-23T16:38:45Z</time></trkpt><trkpt lat="42.410218483023506" lon="-8.06423322163006"><ele>368.5</ele><time>2026-03-23T16:38:46Z</time></trkpt><trkpt lat="42.41017128709215" lon="-8.064391982165098"><ele>367.75</ele><time>2026-03-23T16:38:47Z</time></trkpt><trkpt lat="42.4101226610096" lon="-8.064564021273242"><ele>367.0</ele><time>2026-03-23T16:38:48Z</time></trkpt><trkpt lat="42.41006867296813" lon="-8.064737660349985"><ele>367.0</ele><time>2026-03-23T16:38:49Z</time></trkpt><trkpt lat="42.410014237599476" lon="-8.064915389464435"><ele>367.0</ele><time>2026-03-23T16:38:50Z</time></trkpt><trkpt lat="42.40995446493073" lon="-8.065090690432047"><ele>367.0</ele><time>2026-03-23T16:38:51Z</time></trkpt><trkpt lat="42.40989713116653" lon="-8.06526467084446"><ele>367.0</ele><time>2026-03-23T16:38:52Z</time></trkpt><trkpt lat="42.40983704381989" lon="-8.06543373607648"><ele>366.25</ele><time>2026-03-23T16:38:53Z</time></trkpt><trkpt lat="42.40977058153248" lon="-8.06559885471115"><ele>365.5</ele><time>2026-03-23T16:38:54Z</time></trkpt><trkpt lat="42.409739148873314" lon="-8.065776891597306"><ele>364.75</ele><time>2026-03-23T16:38:55Z</time></trkpt><trkpt lat="42.40969239217541" lon="-8.065965400821925"><ele>364.0</ele><time>2026-03-23T16:38:56Z</time></trkpt><trkpt lat="42.409648831971715" lon="-8.066141022599943"><ele>363.25</ele><time>2026-03-23T16:38:57Z</time></trkpt><trkpt lat="42.40959194453307" lon="-8.066311107587207"><ele>362.5</ele><time>2026-03-23T16:38:58Z</time></trkpt><trkpt lat="42.409564586035344" lon="-8.066480677240277"><ele>361.75</ele><time>2026-03-23T16:38:59Z</time></trkpt><trkpt lat="42.40952872935357" lon="-8.06664410930594"><ele>361.0</ele><time>2026-03-23T16:39:00Z</time></trkpt><trkpt lat="42.409474653507715" lon="-8.066800527186318"><ele>359.6</ele><time>2026-03-23T16:39:01Z</time></trkpt><trkpt lat="42.409430022704534" lon="-8.066937426395185"><ele>358.20000000000005</ele><time>2026-03-23T16:39:02Z</time></trkpt><trkpt lat="42.4093834894413" lon="-8.067081905520318"><ele>356.79999999999995</ele><time>2026-03-23T16:39:03Z</time></trkpt><trkpt lat="42.40934590719072" lon="-8.067216127606093"><ele>355.4</ele><time>2026-03-23T16:39:04Z</time></trkpt><trkpt lat="42.40932588593711" lon="-8.067335011355663"><ele>354.0</ele><time>2026-03-23T16:39:05Z</time></trkpt><trkpt lat="42.40934224548059" lon="-8.067435191538525"><ele>352.25</ele><time>2026-03-23T16:39:06Z</time></trkpt><trkpt lat="42.409383955880145" lon="-8.067579352991972"><ele>350.5</ele><time>2026-03-23T16:39:07Z</time></trkpt><trkpt lat="42.40945503428072" lon="-8.067734248565241"><ele>348.75</ele><time>2026-03-23T16:39:08Z</time></trkpt><trkpt lat="42.40953481274355" lon="-8.0679126677137"><ele>347.0</ele><time>2026-03-23T16:39:09Z</time></trkpt><trkpt lat="42.40958823873146" lon="-8.068121928072639"><ele>345.33333333333337</ele><time>2026-03-23T16:39:10Z</time></trkpt><trkpt lat="42.409649080221506" lon="-8.068335088410562"><ele>343.6666666666667</ele><time>2026-03-23T16:39:11Z</time></trkpt><trkpt lat="42.409686318334344" lon="-8.068561102769666"><ele>342.0</ele><time>2026-03-23T16:39:12Z</time></trkpt><trkpt lat="42.409724049170144" lon="-8.068771242754082"><ele>342.0</ele><time>2026-03-23T16:39:13Z</time></trkpt><trkpt lat="42.40976655161373" lon="-8.06895000247584"><ele>342.0</ele><time>2026-03-23T16:39:14Z</time></trkpt><trkpt lat="42.40980526557485" lon="-8.069115121870894"><ele>342.0</ele><time>2026-03-23T16:39:15Z</time></trkpt><trkpt lat="42.409818386796935" lon="-8.069277219382053"><ele>342.0</ele><time>2026-03-23T16:39:16Z</time></trkpt><trkpt lat="42.4098492738828" lon="-8.069431987663382"><ele>342.5</ele><time>2026-03-23T16:39:17Z</time></trkpt><trkpt lat="42.40985698142964" lon="-8.069581722111295"><ele>343.0</ele><time>2026-03-23T16:39:18Z</time></trkpt><trkpt lat="42.40986302325469" lon="-8.069739038277183"><ele>343.5</ele><time>2026-03-23T16:39:19Z</time></trkpt><trkpt lat="42.40987061976111" lon="-8.069900366701248"><ele>344.0</ele><time>2026-03-23T16:39:20Z</time></trkpt><trkpt lat="42.4098797197296" lon="-8.070071044053261"><ele>345.75</ele><time>2026-03-23T16:39:21Z</time></trkpt><trkpt lat="42.4098832183334" lon="-8.070245357197102"><ele>347.5</ele><time>2026-03-23T16:39:22Z</time></trkpt><trkpt lat="42.409894482127704" lon="-8.070407729604753"><ele>349.25</ele><time>2026-03-23T16:39:23Z</time></trkpt><trkpt lat="42.40989279120885" lon="-8.070559968654562"><ele>351.0</ele><time>2026-03-23T16:39:24Z</time></trkpt><trkpt lat="42.409875401488286" lon="-8.070725838704167"><ele>353.25</ele><time>2026-03-23T16:39:25Z</time></trkpt><trkpt lat="42.4098605701351" lon="-8.070884792192139"><ele>355.5</ele><time>2026-03-23T16:39:26Z</time></trkpt><trkpt lat="42.40983407836191" lon="-8.071030752622457"><ele>357.75</ele><time>2026-03-23T16:39:27Z</time></trkpt><trkpt lat="42.409787386209196" lon="-8.071172661362949"><ele>360.0</ele><time>2026-03-23T16:39:28Z</time></trkpt><trkpt lat="42.40973227173969" lon="-8.071296119780884"><ele>360.0</ele><time>2026-03-23T16:39:29Z</time></trkpt><trkpt lat="42.40966082789535" lon="-8.071397810598924"><ele>360.0</ele><time>2026-03-23T16:39:30Z</time></trkpt><trkpt lat="42.409564258728246" lon="-8.071489037120886"><ele>360.0</ele><time>2026-03-23T16:39:30.999Z</time></trkpt><trkpt lat="42.40944940040424" lon="-8.07157543986663"><ele>360.0</ele><time>2026-03-23T16:39:31.999Z</time></trkpt><trkpt lat="42.40934338591583" lon="-8.0716680017275"><ele>359.4</ele><time>2026-03-23T16:39:32.999Z</time></trkpt><trkpt lat="42.409244986714405" lon="-8.071758070876133"><ele>358.8</ele><time>2026-03-23T16:39:33.999Z</time></trkpt><trkpt lat="42.40916219577883" lon="-8.07187786680377"><ele>358.20000000000005</ele><time>2026-03-23T16:39:34.999Z</time></trkpt><trkpt lat="42.40909228583743" lon="-8.071975866856372"><ele>357.6</ele><time>2026-03-23T16:39:35.999Z</time></trkpt><trkpt lat="42.409022529872146" lon="-8.07207808235379"><ele>357.0</ele><time>2026-03-23T16:39:36.999Z</time></trkpt><trkpt lat="42.40897381122593" lon="-8.072155475952446"><ele>357.0</ele><time>2026-03-23T16:39:37.999Z</time></trkpt><trkpt lat="42.40890336186897" lon="-8.07225630674401"><ele>357.0</ele><time>2026-03-23T16:39:38.999Z</time></trkpt><trkpt lat="42.40884721555352" lon="-8.072362966986887"><ele>357.0</ele><time>2026-03-23T16:39:39.999Z</time></trkpt><trkpt lat="42.40881448156515" lon="-8.072464275250873"><ele>357.0</ele><time>2026-03-23T16:39:40.999Z</time></trkpt><trkpt lat="42.40879395529175" lon="-8.072565111261056"><ele>357.0</ele><time>2026-03-23T16:39:41.999Z</time></trkpt><trkpt lat="42.40879190761295" lon="-8.072694076734063"><ele>356.40000000000003</ele><time>2026-03-23T16:39:42.999Z</time></trkpt><trkpt lat="42.40879051548054" lon="-8.072795767162152"><ele>355.8</ele><time>2026-03-23T16:39:43.999Z</time></trkpt><trkpt lat="42.40880954457265" lon="-8.072974801891814"><ele>355.2</ele><time>2026-03-23T16:39:45.999Z</time></trkpt><trkpt lat="42.40885420618558" lon="-8.073090089427437"><ele>354.6</ele><time>2026-03-23T16:39:46.999Z</time></trkpt><trkpt lat="42.40889846684809" lon="-8.073224318817177"><ele>354.0</ele><time>2026-03-23T16:39:47.999Z</time></trkpt><trkpt lat="42.40893777368173" lon="-8.073356373131467"><ele>356.4</ele><time>2026-03-23T16:39:48.999Z</time></trkpt><trkpt lat="42.4089671103537" lon="-8.073487532746565"><ele>358.79999999999995</ele><time>2026-03-23T16:39:49.999Z</time></trkpt><trkpt lat="42.4089951124176" lon="-8.073618472365176"><ele>361.20000000000005</ele><time>2026-03-23T16:39:50.999Z</time></trkpt><trkpt lat="42.40903252045797" lon="-8.073731878714044"><ele>363.6</ele><time>2026-03-23T16:39:51.999Z</time></trkpt><trkpt lat="42.409080432609315" lon="-8.073832145324289"><ele>366.0</ele><time>2026-03-23T16:39:52.999Z</time></trkpt><trkpt lat="42.4091233352903" lon="-8.073931514335095"><ele>366.0</ele><time>2026-03-23T16:39:53.999Z</time></trkpt><trkpt lat="42.40915721757727" lon="-8.074008126764717"><ele>366.0</ele><time>2026-03-23T16:39:54.999Z</time></trkpt><trkpt lat="42.409249949278944" lon="-8.074132439318488"><ele>366.0</ele><time>2026-03-23T16:39:56.999Z</time></trkpt><trkpt lat="42.409332095386716" lon="-8.0741479184672"><ele>366.0</ele><time>2026-03-23T16:39:57.999Z</time></trkpt><trkpt lat="42.4094366708934" lon="-8.074189377929157"><ele>366.0</ele><time>2026-03-23T16:39:58.999Z</time></trkpt><trkpt lat="42.40954638034671" lon="-8.07422363702289"><ele>366.4</ele><time>2026-03-23T16:39:59.999Z</time></trkpt><trkpt lat="42.40965450864906" lon="-8.074274131314105"><ele>366.8</ele><time>2026-03-23T16:40:00.999Z</time></trkpt><trkpt lat="42.409762024604525" lon="-8.074305093971605"><ele>367.2</ele><time>2026-03-23T16:40:01.999Z</time></trkpt><trkpt lat="42.40986668580101" lon="-8.074362521230599"><ele>367.59999999999997</ele><time>2026-03-23T16:40:02.999Z</time></trkpt><trkpt lat="42.40996970200748" lon="-8.074394474734314"><ele>368.0</ele><time>2026-03-23T16:40:03.999Z</time></trkpt><trkpt lat="42.41005614924125" lon="-8.074461521647565"><ele>370.0</ele><time>2026-03-23T16:40:04.999Z</time></trkpt><trkpt lat="42.41016481760603" lon="-8.074503176032628"><ele>372.0</ele><time>2026-03-23T16:40:05.999Z</time></trkpt><trkpt lat="42.41026096317065" lon="-8.07455520689094"><ele>374.0</ele><time>2026-03-23T16:40:06.999Z</time></trkpt><trkpt lat="42.410344208768386" lon="-8.074589444145419"><ele>376.0</ele><time>2026-03-23T16:40:07.999Z</time></trkpt><trkpt lat="42.41041439392796" lon="-8.074613693887363"><ele>378.0</ele><time>2026-03-23T16:40:08.999Z</time></trkpt><trkpt lat="42.410484088132726" lon="-8.074645012411748"><ele>380.0</ele><time>2026-03-23T16:40:09.999Z</time></trkpt><trkpt lat="42.41055872978707" lon="-8.074681754280622"><ele>382.4</ele><time>2026-03-23T16:40:10.999Z</time></trkpt><trkpt lat="42.410641431747024" lon="-8.074724159538091"><ele>384.8</ele><time>2026-03-23T16:40:11.999Z</time></trkpt><trkpt lat="42.4107347666783" lon="-8.074774791930729"><ele>387.20000000000005</ele><time>2026-03-23T16:40:12.999Z</time></trkpt><trkpt lat="42.41082529360538" lon="-8.074833227682426"><ele>389.6</ele><time>2026-03-23T16:40:14Z</time></trkpt><trkpt lat="42.410927338475716" lon="-8.07487348927983"><ele>392.0</ele><time>2026-03-23T16:40:15Z</time></trkpt><trkpt lat="42.41103003495386" lon="-8.074937034303591"><ele>392.20000000000005</ele><time>2026-03-23T16:40:16Z</time></trkpt><trkpt lat="42.411135421000594" lon="-8.074981111278206"><ele>392.4</ele><time>2026-03-23T16:40:17Z</time></trkpt><trkpt lat="42.41123925398173" lon="-8.075032331601353"><ele>392.6</ele><time>2026-03-23T16:40:18Z</time></trkpt><trkpt lat="42.4113331451201" lon="-8.075089506783838"><ele>392.79999999999995</ele><time>2026-03-23T16:40:19Z</time></trkpt><trkpt lat="42.41140754288164" lon="-8.075130753273985"><ele>393.0</ele><time>2026-03-23T16:40:20Z</time></trkpt><trkpt lat="42.411504598212446" lon="-8.075171851961505"><ele>393.0</ele><time>2026-03-23T16:40:22Z</time></trkpt><trkpt lat="42.4116262674901" lon="-8.075221813823703"><ele>393.0</ele><time>2026-03-23T16:40:24Z</time></trkpt><trkpt lat="42.41170389843424" lon="-8.075257894670212"><ele>393.0</ele><time>2026-03-23T16:40:25Z</time></trkpt><trkpt lat="42.41175948308507" lon="-8.075300493205525"><ele>393.0</ele><time>2026-03-23T16:40:26Z</time></trkpt><trkpt lat="42.41172595768401" lon="-8.075494276183978"><ele>393.0</ele><time>2026-03-23T16:40:30Z</time></trkpt><trkpt lat="42.41159758027103" lon="-8.075564852589826"><ele>393.0</ele><time>2026-03-23T16:40:32Z</time></trkpt><trkpt lat="42.41149479392746" lon="-8.0755912582037"><ele>393.0</ele><time>2026-03-23T16:40:33Z</time></trkpt><trkpt lat="42.41140359475734" lon="-8.075642597489548"><ele>393.0</ele><time>2026-03-23T16:40:34Z</time></trkpt><trkpt lat="42.41131547418624" lon="-8.075685270707629"><ele>393.0</ele><time>2026-03-23T16:40:35Z</time></trkpt><trkpt lat="42.41124593319485" lon="-8.075713725156902"><ele>393.0</ele><time>2026-03-23T16:40:37Z</time></trkpt><trkpt lat="42.4111762362004" lon="-8.075738097852868"><ele>393.0</ele><time>2026-03-23T16:40:40Z</time></trkpt><trkpt lat="42.411236326774656" lon="-8.075956749435159"><ele>393.0</ele><time>2026-03-23T16:40:53Z</time></trkpt><trkpt lat="42.411302040354805" lon="-8.076041255525967"><ele>393.0</ele><time>2026-03-23T16:40:54Z</time></trkpt><trkpt lat="42.411312084753526" lon="-8.076153305384675"><ele>393.0</ele><time>2026-03-23T16:40:56Z</time></trkpt><trkpt lat="42.41134960072231" lon="-8.07622812458857"><ele>393.0</ele><time>2026-03-23T16:40:57Z</time></trkpt><trkpt lat="42.41136288816428" lon="-8.076338466430032"><ele>393.0</ele><time>2026-03-23T16:40:58Z</time></trkpt><trkpt lat="42.4114061287124" lon="-8.076408190550001"><ele>393.0</ele><time>2026-03-23T16:40:59Z</time></trkpt><trkpt lat="42.41147426744367" lon="-8.076542582467946"><ele>394.0</ele><time>2026-03-23T16:41:01Z</time></trkpt><trkpt lat="42.411510723261706" lon="-8.07663552060166"><ele>395.0</ele><time>2026-03-23T16:41:02Z</time></trkpt><trkpt lat="42.41158247621217" lon="-8.076749808911348"><ele>396.0</ele><time>2026-03-23T16:41:04Z</time></trkpt><trkpt lat="42.4115148010613" lon="-8.076670737045152"><ele>397.0</ele><time>2026-03-23T16:41:13Z</time></trkpt><trkpt lat="42.4114887195843" lon="-8.07658582548691"><ele>398.0</ele><time>2026-03-23T16:41:14Z</time></trkpt><trkpt lat="42.41143723703136" lon="-8.07644867893033"><ele>398.0</ele><time>2026-03-23T16:41:16Z</time></trkpt><trkpt lat="42.41135983327692" lon="-8.076340255707068"><ele>398.0</ele><time>2026-03-23T16:41:18Z</time></trkpt><trkpt lat="42.41129389722108" lon="-8.076308953441863"><ele>398.0</ele><time>2026-03-23T16:41:20Z</time></trkpt><trkpt lat="42.41124869946859" lon="-8.076085940882317"><ele>398.0</ele><time>2026-03-23T16:41:22Z</time></trkpt><trkpt lat="42.41122570769833" lon="-8.075950208531566"><ele>397.16666666666663</ele><time>2026-03-23T16:41:23.999Z</time></trkpt><trkpt lat="42.411189967724624" lon="-8.07586426712407"><ele>396.3333333333333</ele><time>2026-03-23T16:41:24.999Z</time></trkpt><trkpt lat="42.41117744134553" lon="-8.075771873649463"><ele>395.5</ele><time>2026-03-23T16:41:26.999Z</time></trkpt><trkpt lat="42.41109938612631" lon="-8.07576732685256"><ele>394.66666666666663</ele><time>2026-03-23T16:44:52Z</time></trkpt><trkpt lat="42.41102917570415" lon="-8.075794467469398"><ele>393.8333333333333</ele><time>2026-03-23T16:44:55Z</time></trkpt><trkpt lat="42.410944530288155" lon="-8.07582891922652"><ele>393.0</ele><time>2026-03-23T16:44:59Z</time></trkpt><trkpt lat="42.4108712965827" lon="-8.075855082326836"><ele>393.00000000000006</ele><time>2026-03-23T16:45:03Z</time></trkpt><trkpt lat="42.41079830214853" lon="-8.07588669860446"><ele>393.0</ele><time>2026-03-23T16:45:06Z</time></trkpt><trkpt lat="42.410715831381715" lon="-8.075919099105079"><ele>393.0</ele><time>2026-03-23T16:45:09Z</time></trkpt><trkpt lat="42.41064889141412" lon="-8.075954191725888"><ele>393.0</ele><time>2026-03-23T16:45:12Z</time></trkpt><trkpt lat="42.41058881040435" lon="-8.075985323567924"><ele>393.0</ele><time>2026-03-23T16:45:16Z</time></trkpt><trkpt lat="42.410521592404244" lon="-8.076030298674826"><ele>393.00000000000006</ele><time>2026-03-23T16:45:21Z</time></trkpt><trkpt lat="42.41045926522666" lon="-8.076071452870865"><ele>393.0</ele><time>2026-03-23T16:45:24.999Z</time></trkpt><trkpt lat="42.4103988307367" lon="-8.076100322226901"><ele>391.5714285714286</ele><time>2026-03-23T16:45:32.999Z</time></trkpt><trkpt lat="42.41033463033497" lon="-8.076144563612019"><ele>390.14285714285717</ele><time>2026-03-23T16:45:47.999Z</time></trkpt><trkpt lat="42.41027003483903" lon="-8.076189694241469"><ele>388.7142857142857</ele><time>2026-03-23T16:45:51.999Z</time></trkpt><trkpt lat="42.41019610809581" lon="-8.076240242467867"><ele>387.28571428571433</ele><time>2026-03-23T16:45:54.999Z</time></trkpt><trkpt lat="42.41014051610596" lon="-8.076288548919301"><ele>385.85714285714283</ele><time>2026-03-23T16:45:56.999Z</time></trkpt><trkpt lat="42.410072953651984" lon="-8.076320389240754"><ele>384.42857142857144</ele><time>2026-03-23T16:47:37.999Z</time></trkpt><trkpt lat="42.410011640749644" lon="-8.076384523527132"><ele>383.0</ele><time>2026-03-23T16:47:40.999Z</time></trkpt><trkpt lat="42.409941557661675" lon="-8.076399987414728"><ele>383.0</ele><time>2026-03-23T16:47:44.999Z</time></trkpt><trkpt lat="42.40985543523276" lon="-8.076473516767022"><ele>383.0</ele><time>2026-03-23T16:47:47.999Z</time></trkpt><trkpt lat="42.409795867900534" lon="-8.076530853476246"><ele>383.0</ele><time>2026-03-23T16:47:49.999Z</time></trkpt><trkpt lat="42.409740105344824" lon="-8.076609157583498"><ele>383.0</ele><time>2026-03-23T16:47:52.999Z</time></trkpt><trkpt lat="42.4096568020558" lon="-8.076656114529118"><ele>383.0</ele><time>2026-03-23T16:47:54.999Z</time></trkpt><trkpt lat="42.409567311186606" lon="-8.076805108022901"><ele>382.83333333333337</ele><time>2026-03-23T16:47:57.999Z</time></trkpt><trkpt lat="42.409513375968025" lon="-8.076857952371405"><ele>382.6666666666667</ele><time>2026-03-23T16:47:58.999Z</time></trkpt><trkpt lat="42.4094628693647" lon="-8.076920008012548"><ele>382.5</ele><time>2026-03-23T16:47:59.999Z</time></trkpt><trkpt lat="42.40940934080237" lon="-8.076969931562886"><ele>382.3333333333333</ele><time>2026-03-23T16:48:00.999Z</time></trkpt><trkpt lat="42.40933956933103" lon="-8.07709040491264"><ele>382.16666666666663</ele><time>2026-03-23T16:48:02.999Z</time></trkpt><trkpt lat="42.4092975567058" lon="-8.077160190085568"><ele>382.0</ele><time>2026-03-23T16:48:04.999Z</time></trkpt><trkpt lat="42.40923059482073" lon="-8.077243137284976"><ele>382.0</ele><time>2026-03-23T16:48:07.999Z</time></trkpt><trkpt lat="42.40917712320144" lon="-8.077328772526764"><ele>382.0</ele><time>2026-03-23T16:48:08.999Z</time></trkpt><trkpt lat="42.409129630275466" lon="-8.07742188542054"><ele>382.0</ele><time>2026-03-23T16:48:09.999Z</time></trkpt><trkpt lat="42.40910752568951" lon="-8.077508716908305"><ele>382.0</ele><time>2026-03-23T16:48:10.999Z</time></trkpt><trkpt lat="42.409133883966895" lon="-8.077642133702495"><ele>382.0</ele><time>2026-03-23T16:48:12.999Z</time></trkpt><trkpt lat="42.409200237302734" lon="-8.077754075265334"><ele>382.0</ele><time>2026-03-23T16:48:14.999Z</time></trkpt><trkpt lat="42.4092305319422" lon="-8.077830071475917"><ele>382.6</ele><time>2026-03-23T16:48:15.999Z</time></trkpt><trkpt lat="42.40927695482833" lon="-8.077956839467042"><ele>383.20000000000005</ele><time>2026-03-23T16:48:17.999Z</time></trkpt><trkpt lat="42.40932447243178" lon="-8.07806676718912"><ele>383.8</ele><time>2026-03-23T16:48:19.999Z</time></trkpt><trkpt lat="42.40937224633132" lon="-8.078176017675007"><ele>384.4</ele><time>2026-03-23T16:48:22.999Z</time></trkpt><trkpt lat="42.409447201164205" lon="-8.078122556850403"><ele>385.0</ele><time>2026-03-23T16:48:23.999Z</time></trkpt><trkpt lat="42.409531116336396" lon="-8.078096999117907"><ele>385.0</ele><time>2026-03-23T16:48:24.999Z</time></trkpt><trkpt lat="42.40963191098102" lon="-8.07802779271443"><ele>385.0</ele><time>2026-03-23T16:48:25.999Z</time></trkpt><trkpt lat="42.409724195604966" lon="-8.077991302176315"><ele>385.0</ele><time>2026-03-23T16:48:26.999Z</time></trkpt><trkpt lat="42.409830042723215" lon="-8.077941762465834"><ele>385.0</ele><time>2026-03-23T16:48:27.999Z</time></trkpt><trkpt lat="42.40993759617546" lon="-8.077895893762943"><ele>385.0</ele><time>2026-03-23T16:48:28.999Z</time></trkpt><trkpt lat="42.410054356496104" lon="-8.07784852074505"><ele>386.5</ele><time>2026-03-23T16:48:29.999Z</time></trkpt><trkpt lat="42.41016950238511" lon="-8.077779081088288"><ele>388.0</ele><time>2026-03-23T16:48:30.999Z</time></trkpt><trkpt lat="42.41028768908981" lon="-8.077727125862456"><ele>389.5</ele><time>2026-03-23T16:48:31.999Z</time></trkpt><trkpt lat="42.41040829753693" lon="-8.077674632442344"><ele>391.0</ele><time>2026-03-23T16:48:32.999Z</time></trkpt><trkpt lat="42.41053346212022" lon="-8.077621420948697"><ele>392.75</ele><time>2026-03-23T16:48:33.999Z</time></trkpt><trkpt lat="42.410660557082565" lon="-8.077571925392029"><ele>394.5</ele><time>2026-03-23T16:48:34.999Z</time></trkpt><trkpt lat="42.41079094806968" lon="-8.07754719894004"><ele>396.25</ele><time>2026-03-23T16:48:35.999Z</time></trkpt><trkpt lat="42.41092281563919" lon="-8.077496338143336"><ele>398.0</ele><time>2026-03-23T16:48:36.999Z</time></trkpt><trkpt lat="42.41105071456458" lon="-8.077451153697403"><ele>397.75</ele><time>2026-03-23T16:48:38Z</time></trkpt><trkpt lat="42.411180387863716" lon="-8.077409095906235"><ele>397.5</ele><time>2026-03-23T16:48:39Z</time></trkpt><trkpt lat="42.41131540283053" lon="-8.077365150888129"><ele>397.25</ele><time>2026-03-23T16:48:40Z</time></trkpt><trkpt lat="42.4114568652439" lon="-8.0773199814875"><ele>397.0</ele><time>2026-03-23T16:48:41Z</time></trkpt><trkpt lat="42.41159584601563" lon="-8.07727876738306"><ele>398.0</ele><time>2026-03-23T16:48:42Z</time></trkpt><trkpt lat="42.41174700989895" lon="-8.077236420478187"><ele>399.0</ele><time>2026-03-23T16:48:43Z</time></trkpt><trkpt lat="42.41187318544304" lon="-8.077196609100875"><ele>400.0</ele><time>2026-03-23T16:48:44Z</time></trkpt><trkpt lat="42.411987888727495" lon="-8.07716302712974"><ele>401.0</ele><time>2026-03-23T16:48:45Z</time></trkpt><trkpt lat="42.41209703327432" lon="-8.077130228686602"><ele>402.0</ele><time>2026-03-23T16:48:46Z</time></trkpt><trkpt lat="42.41220712858509" lon="-8.077100901544231"><ele>403.0</ele><time>2026-03-23T16:48:47Z</time></trkpt><trkpt lat="42.41231436171181" lon="-8.07706809068788"><ele>404.0</ele><time>2026-03-23T16:48:48Z</time></trkpt><trkpt lat="42.41241257706455" lon="-8.07704000055512"><ele>405.0</ele><time>2026-03-23T16:48:49Z</time></trkpt><trkpt lat="42.41260967689089" lon="-8.076974212248368"><ele>405.0</ele><time>2026-03-23T16:48:51Z</time></trkpt><trkpt lat="42.41271004007041" lon="-8.076939936066625"><ele>405.0</ele><time>2026-03-23T16:48:52Z</time></trkpt><trkpt lat="42.41280449751301" lon="-8.076912795193731"><ele>405.0</ele><time>2026-03-23T16:48:53Z</time></trkpt><trkpt lat="42.41290471044558" lon="-8.076888238214918"><ele>405.0</ele><time>2026-03-23T16:48:54Z</time></trkpt><trkpt lat="42.41300482811675" lon="-8.076858302473843"><ele>405.0</ele><time>2026-03-23T16:48:55Z</time></trkpt><trkpt lat="42.41309784626987" lon="-8.076826930135343"><ele>405.6</ele><time>2026-03-23T16:48:56Z</time></trkpt><trkpt lat="42.41320241530767" lon="-8.076788738569228"><ele>406.2</ele><time>2026-03-23T16:48:57Z</time></trkpt><trkpt lat="42.41330831522518" lon="-8.076750505312631"><ele>406.79999999999995</ele><time>2026-03-23T16:48:58Z</time></trkpt><trkpt lat="42.413415899251156" lon="-8.076711972359599"><ele>407.4</ele><time>2026-03-23T16:48:59Z</time></trkpt><trkpt lat="42.413524944490725" lon="-8.076671373911655"><ele>408.0</ele><time>2026-03-23T16:49:00Z</time></trkpt><trkpt lat="42.41363256750343" lon="-8.076633324467625"><ele>408.0</ele><time>2026-03-23T16:49:01Z</time></trkpt><trkpt lat="42.41374340559652" lon="-8.076593617622857"><ele>408.0</ele><time>2026-03-23T16:49:02Z</time></trkpt><trkpt lat="42.41385408087223" lon="-8.076553866368002"><ele>408.0</ele><time>2026-03-23T16:49:03Z</time></trkpt><trkpt lat="42.41396633541193" lon="-8.07651739091412"><ele>408.0</ele><time>2026-03-23T16:49:04Z</time></trkpt><trkpt lat="42.41408152838107" lon="-8.076476403343959"><ele>408.0</ele><time>2026-03-23T16:49:05Z</time></trkpt><trkpt lat="42.41419361624157" lon="-8.076431609572023"><ele>408.0</ele><time>2026-03-23T16:49:06Z</time></trkpt><trkpt lat="42.41431123755159" lon="-8.076391206290799"><ele>408.0</ele><time>2026-03-23T16:49:07Z</time></trkpt><trkpt lat="42.41443042374619" lon="-8.076352371896283"><ele>408.0</ele><time>2026-03-23T16:49:08Z</time></trkpt><trkpt lat="42.4145487437656" lon="-8.076312123401053"><ele>407.5</ele><time>2026-03-23T16:49:09Z</time></trkpt><trkpt lat="42.41466557686907" lon="-8.076264978427353"><ele>407.0</ele><time>2026-03-23T16:49:10Z</time></trkpt><trkpt lat="42.41478749934261" lon="-8.076240469330743"><ele>406.5</ele><time>2026-03-23T16:49:11Z</time></trkpt><trkpt lat="42.414906898988825" lon="-8.076211096987985"><ele>406.0</ele><time>2026-03-23T16:49:12Z</time></trkpt><trkpt lat="42.4150339223637" lon="-8.076174049410241"><ele>406.0</ele><time>2026-03-23T16:49:13Z</time></trkpt><trkpt lat="42.41515412318655" lon="-8.076143931144355"><ele>406.0</ele><time>2026-03-23T16:49:14Z</time></trkpt><trkpt lat="42.415267603077936" lon="-8.076124489888702"><ele>406.0</ele><time>2026-03-23T16:49:15Z</time></trkpt><trkpt lat="42.41538375072308" lon="-8.076107405211424"><ele>406.0</ele><time>2026-03-23T16:49:16Z</time></trkpt><trkpt lat="42.41550263448638" lon="-8.076092871775952"><ele>406.0</ele><time>2026-03-23T16:49:17Z</time></trkpt><trkpt lat="42.415616486442055" lon="-8.076078498810507"><ele>406.0</ele><time>2026-03-23T16:49:18Z</time></trkpt><trkpt lat="42.41573516889617" lon="-8.076064668559106"><ele>406.0</ele><time>2026-03-23T16:49:19Z</time></trkpt><trkpt lat="42.41585479411123" lon="-8.07605142595259"><ele>406.0</ele><time>2026-03-23T16:49:20Z</time></trkpt><trkpt lat="42.41597748047697" lon="-8.07603962483039"><ele>406.0</ele><time>2026-03-23T16:49:21Z</time></trkpt><trkpt lat="42.41610387365054" lon="-8.076032229406575"><ele>406.0</ele><time>2026-03-23T16:49:22Z</time></trkpt><trkpt lat="42.41622555558916" lon="-8.076028179135644"><ele>406.0</ele><time>2026-03-23T16:49:23Z</time></trkpt><trkpt lat="42.41634562949762" lon="-8.07603452542574"><ele>406.0</ele><time>2026-03-23T16:49:24Z</time></trkpt><trkpt lat="42.416468531940964" lon="-8.07604401721171"><ele>406.5</ele><time>2026-03-23T16:49:25Z</time></trkpt><trkpt lat="42.41659003252415" lon="-8.076057725930891"><ele>407.0</ele><time>2026-03-23T16:49:26Z</time></trkpt><trkpt lat="42.41669923838882" lon="-8.076078069646977"><ele>407.5</ele><time>2026-03-23T16:49:27Z</time></trkpt><trkpt lat="42.41681529135588" lon="-8.076104155971475"><ele>408.0</ele><time>2026-03-23T16:49:28Z</time></trkpt><trkpt lat="42.416928067667016" lon="-8.076123101648818"><ele>408.0</ele><time>2026-03-23T16:49:29Z</time></trkpt><trkpt lat="42.417036928738675" lon="-8.076147282554263"><ele>408.0</ele><time>2026-03-23T16:49:30Z</time></trkpt><trkpt lat="42.417126973414305" lon="-8.07615132355339"><ele>408.0</ele><time>2026-03-23T16:49:31Z</time></trkpt><trkpt lat="42.41719920979367" lon="-8.076121586953608"><ele>408.0</ele><time>2026-03-23T16:49:32Z</time></trkpt><trkpt lat="42.41724761336421" lon="-8.076018745485685"><ele>408.0</ele><time>2026-03-23T16:49:33Z</time></trkpt><trkpt lat="42.41733179539829" lon="-8.075971424171513"><ele>408.2</ele><time>2026-03-23T16:49:34Z</time></trkpt><trkpt lat="42.41740872718238" lon="-8.075928285548049"><ele>408.4</ele><time>2026-03-23T16:49:35Z</time></trkpt><trkpt lat="42.41748541847076" lon="-8.075893847263025"><ele>408.59999999999997</ele><time>2026-03-23T16:49:36Z</time></trkpt><trkpt lat="42.417572465838255" lon="-8.075918566907857"><ele>408.79999999999995</ele><time>2026-03-23T16:49:37Z</time></trkpt><trkpt lat="42.41767132810871" lon="-8.075918303739396"><ele>409.0</ele><time>2026-03-23T16:49:38Z</time></trkpt><trkpt lat="42.41777688108095" lon="-8.075912607904618"><ele>409.0</ele><time>2026-03-23T16:49:39Z</time></trkpt><trkpt lat="42.41788516300593" lon="-8.07591026911704"><ele>409.0</ele><time>2026-03-23T16:49:40Z</time></trkpt><trkpt lat="42.41799764055682" lon="-8.075894726960486"><ele>409.0</ele><time>2026-03-23T16:49:40.999Z</time></trkpt><trkpt lat="42.418107251544804" lon="-8.075883340878159"><ele>409.0</ele><time>2026-03-23T16:49:41.999Z</time></trkpt><trkpt lat="42.41821847457644" lon="-8.075875869151725"><ele>409.0</ele><time>2026-03-23T16:49:42.999Z</time></trkpt><trkpt lat="42.418327048508154" lon="-8.075841457375653"><ele>408.79999999999995</ele><time>2026-03-23T16:49:43.999Z</time></trkpt><trkpt lat="42.41843789570295" lon="-8.075822989079969"><ele>408.59999999999997</ele><time>2026-03-23T16:49:44.999Z</time></trkpt><trkpt lat="42.418547274372" lon="-8.075802894754641"><ele>408.4</ele><time>2026-03-23T16:49:45.999Z</time></trkpt><trkpt lat="42.418645247578546" lon="-8.075785230699134"><ele>408.2</ele><time>2026-03-23T16:49:46.999Z</time></trkpt><trkpt lat="42.418761539522926" lon="-8.075772664918745"><ele>408.0</ele><time>2026-03-23T16:49:47.999Z</time></trkpt><trkpt lat="42.41886107993975" lon="-8.075730590294295"><ele>409.2</ele><time>2026-03-23T16:49:48.999Z</time></trkpt><trkpt lat="42.41895936270373" lon="-8.075685987966361"><ele>410.4</ele><time>2026-03-23T16:49:49.999Z</time></trkpt><trkpt lat="42.419050543956224" lon="-8.075630264143253"><ele>411.59999999999997</ele><time>2026-03-23T16:49:50.999Z</time></trkpt><trkpt lat="42.41911460322051" lon="-8.075539190091986"><ele>412.79999999999995</ele><time>2026-03-23T16:49:51.999Z</time></trkpt><trkpt lat="42.41918814950597" lon="-8.075430484096676"><ele>414.0</ele><time>2026-03-23T16:49:52.999Z</time></trkpt><trkpt lat="42.41926179066864" lon="-8.075313596830448"><ele>414.0</ele><time>2026-03-23T16:49:53.999Z</time></trkpt><trkpt lat="42.41934539359725" lon="-8.075202432502106"><ele>414.0</ele><time>2026-03-23T16:49:54.999Z</time></trkpt><trkpt lat="42.41943204892509" lon="-8.075057181949397"><ele>414.0</ele><time>2026-03-23T16:49:55.999Z</time></trkpt><trkpt lat="42.419526206413636" lon="-8.074893595665237"><ele>414.0</ele><time>2026-03-23T16:49:56.999Z</time></trkpt><trkpt lat="42.41961863755902" lon="-8.074741008120018"><ele>413.33333333333337</ele><time>2026-03-23T16:49:57.999Z</time></trkpt><trkpt lat="42.41972479300956" lon="-8.07459295771242"><ele>412.6666666666667</ele><time>2026-03-23T16:49:58.999Z</time></trkpt><trkpt lat="42.41984302698802" lon="-8.074446630083056"><ele>412.0</ele><time>2026-03-23T16:49:59.999Z</time></trkpt><trkpt lat="42.41995472104648" lon="-8.074288916208074"><ele>412.0</ele><time>2026-03-23T16:50:00.999Z</time></trkpt><trkpt lat="42.42007164250351" lon="-8.074163597724626"><ele>412.0</ele><time>2026-03-23T16:50:01.999Z</time></trkpt><trkpt lat="42.4201820366906" lon="-8.074063259232323"><ele>412.0</ele><time>2026-03-23T16:50:02.999Z</time></trkpt><trkpt lat="42.42024230851246" lon="-8.073961191989135"><ele>412.0</ele><time>2026-03-23T16:50:03.999Z</time></trkpt><trkpt lat="42.4203012259733" lon="-8.073873295387656"><ele>411.6666666666667</ele><time>2026-03-23T16:50:04.999Z</time></trkpt><trkpt lat="42.42034640395427" lon="-8.07380333503627"><ele>411.33333333333337</ele><time>2026-03-23T16:50:05.999Z</time></trkpt><trkpt lat="42.42040387286941" lon="-8.073701256494465"><ele>411.0</ele><time>2026-03-23T16:50:07.999Z</time></trkpt><trkpt lat="42.42031315571521" lon="-8.073626031642167"><ele>410.66666666666663</ele><time>2026-03-23T16:50:08.999Z</time></trkpt><trkpt lat="42.420274147713975" lon="-8.07352994386315"><ele>410.3333333333333</ele><time>2026-03-23T16:50:09.999Z</time></trkpt><trkpt lat="42.420252386764446" lon="-8.073424158721613"><ele>410.0</ele><time>2026-03-23T16:50:10.999Z</time></trkpt><trkpt lat="42.420240238436755" lon="-8.073319200850575"><ele>409.0</ele><time>2026-03-23T16:50:11.999Z</time></trkpt><trkpt lat="42.42025253277549" lon="-8.07322453092291"><ele>408.0</ele><time>2026-03-23T16:50:12.999Z</time></trkpt><trkpt lat="42.420258613329956" lon="-8.073127491115347"><ele>407.0</ele><time>2026-03-23T16:50:13.999Z</time></trkpt><trkpt lat="42.42029728523139" lon="-8.072957846625034"><ele>406.0</ele><time>2026-03-23T16:50:15.999Z</time></trkpt><trkpt lat="42.42034262102263" lon="-8.07280561546838"><ele>405.0</ele><time>2026-03-23T16:50:17.999Z</time></trkpt><trkpt lat="42.4203713216691" lon="-8.072729584581783"><ele>405.0</ele><time>2026-03-23T16:50:18.999Z</time></trkpt><trkpt lat="42.42040740424683" lon="-8.07264924735629"><ele>405.0</ele><time>2026-03-23T16:50:19.999Z</time></trkpt><trkpt lat="42.42045388524895" lon="-8.072564384192342"><ele>405.0</ele><time>2026-03-23T16:50:20.999Z</time></trkpt><trkpt lat="42.42051416825316" lon="-8.072478834452316"><ele>405.0</ele><time>2026-03-23T16:50:21.999Z</time></trkpt><trkpt lat="42.42059060806425" lon="-8.072427738706198"><ele>405.0</ele><time>2026-03-23T16:50:22.999Z</time></trkpt><trkpt lat="42.420653816124506" lon="-8.072361796732814"><ele>405.0</ele><time>2026-03-23T16:50:23.999Z</time></trkpt><trkpt lat="42.42071417425715" lon="-8.072292575945877"><ele>406.0</ele><time>2026-03-23T16:50:24.999Z</time></trkpt><trkpt lat="42.4207769752603" lon="-8.07221798004088"><ele>407.0</ele><time>2026-03-23T16:50:25.999Z</time></trkpt><trkpt lat="42.42083546799265" lon="-8.07215723144974"><ele>408.0</ele><time>2026-03-23T16:50:26.999Z</time></trkpt><trkpt lat="42.42089168699036" lon="-8.07210306436365"><ele>409.0</ele><time>2026-03-23T16:50:28.999Z</time></trkpt><trkpt lat="42.42098889386419" lon="-8.072016027600421"><ele>410.0</ele><time>2026-03-23T16:50:33.999Z</time></trkpt><trkpt lat="42.421062404009724" lon="-8.071981609031017"><ele>411.0</ele><time>2026-03-23T16:50:34.999Z</time></trkpt><trkpt lat="42.42112935810238" lon="-8.071900045656763"><ele>411.0</ele><time>2026-03-23T16:50:35.999Z</time></trkpt><trkpt lat="42.42119427981192" lon="-8.071845435681556"><ele>411.0</ele><time>2026-03-23T16:50:36.999Z</time></trkpt><trkpt lat="42.421258099870656" lon="-8.071788096031927"><ele>411.0</ele><time>2026-03-23T16:50:37.999Z</time></trkpt><trkpt lat="42.42133046469967" lon="-8.07172307929895"><ele>411.0</ele><time>2026-03-23T16:50:38.999Z</time></trkpt><trkpt lat="42.421395539580566" lon="-8.071663749492503"><ele>411.0</ele><time>2026-03-23T16:50:39.999Z</time></trkpt><trkpt lat="42.421459877883365" lon="-8.07160393158345"><ele>411.0</ele><time>2026-03-23T16:50:40.999Z</time></trkpt><trkpt lat="42.42152270760593" lon="-8.071543571296095"><ele>411.8</ele><time>2026-03-23T16:50:41.999Z</time></trkpt><trkpt lat="42.42158517246059" lon="-8.071505501711659"><ele>412.6</ele><time>2026-03-23T16:50:42.999Z</time></trkpt><trkpt lat="42.42165347705527" lon="-8.071423760967706"><ele>413.4</ele><time>2026-03-23T16:50:45Z</time></trkpt><trkpt lat="42.42172204213778" lon="-8.071352328294125"><ele>414.2</ele><time>2026-03-23T16:50:51Z</time></trkpt><trkpt lat="42.421806046585395" lon="-8.071201631511553"><ele>415.0</ele><time>2026-03-23T16:50:53Z</time></trkpt><trkpt lat="42.42186079990832" lon="-8.071112144446099"><ele>415.00000000000006</ele><time>2026-03-23T16:50:54Z</time></trkpt><trkpt lat="42.42192005734045" lon="-8.071017504741691"><ele>415.0</ele><time>2026-03-23T16:50:55Z</time></trkpt><trkpt lat="42.42196417119961" lon="-8.070924780769543"><ele>415.0</ele><time>2026-03-23T16:50:56Z</time></trkpt><trkpt lat="42.42199325113405" lon="-8.070828353183545"><ele>415.0</ele><time>2026-03-23T16:50:57Z</time></trkpt><trkpt lat="42.422040678526216" lon="-8.07076002986398"><ele>415.00000000000006</ele><time>2026-03-23T16:50:58Z</time></trkpt><trkpt lat="42.4220810713477" lon="-8.070672376030648"><ele>415.0</ele><time>2026-03-23T16:51:00Z</time></trkpt><trkpt lat="42.42211586488351" lon="-8.070591554098675"><ele>415.6</ele><time>2026-03-23T16:51:04Z</time></trkpt><trkpt lat="42.42225603874085" lon="-8.070706565864604"><ele>416.2</ele><time>2026-03-23T16:51:05Z</time></trkpt><trkpt lat="42.422312273514514" lon="-8.070776877553776"><ele>416.79999999999995</ele><time>2026-03-23T16:51:06Z</time></trkpt><trkpt lat="42.42236284788856" lon="-8.070832974058739"><ele>417.4</ele><time>2026-03-23T16:51:07Z</time></trkpt><trkpt lat="42.42244330390597" lon="-8.070923778323053"><ele>418.0</ele><time>2026-03-23T16:51:09Z</time></trkpt><trkpt lat="42.42250700523585" lon="-8.07100339159182"><ele>418.00000000000006</ele><time>2026-03-23T16:51:11Z</time></trkpt><trkpt lat="42.42255564787892" lon="-8.071069133023155"><ele>418.0</ele><time>2026-03-23T16:51:13Z</time></trkpt><trkpt lat="42.42264452425995" lon="-8.07098762489039"><ele>418.0</ele><time>2026-03-23T16:51:18.999Z</time></trkpt><trkpt lat="42.4226377703127" lon="-8.070879695178363"><ele>418.0</ele><time>2026-03-23T16:51:21.999Z</time></trkpt><trkpt lat="42.422670056371054" lon="-8.07080368091355"><ele>418.00000000000006</ele><time>2026-03-23T16:51:24.999Z</time></trkpt><trkpt lat="42.42271916499912" lon="-8.070744048053625"><ele>418.0</ele><time>2026-03-23T16:51:27.999Z</time></trkpt><trkpt lat="42.422792081195205" lon="-8.070680230468534"><ele>418.00000000000006</ele><time>2026-03-23T16:51:30.999Z</time></trkpt><trkpt lat="42.422887646214576" lon="-8.070571791867266"><ele>418.0</ele><time>2026-03-23T16:51:33.999Z</time></trkpt><trkpt lat="42.422936418611336" lon="-8.070512862570798"><ele>418.0</ele><time>2026-03-23T16:51:34.999Z</time></trkpt><trkpt lat="42.42299970221157" lon="-8.070443621232666"><ele>418.0</ele><time>2026-03-23T16:51:36.999Z</time></trkpt><trkpt lat="42.422952858747" lon="-8.07035979665144"><ele>418.00000000000006</ele><time>2026-03-23T16:56:29.999Z</time></trkpt><trkpt lat="42.42291176800727" lon="-8.07026306337376"><ele>418.0</ele><time>2026-03-23T16:56:33.999Z</time></trkpt><trkpt lat="42.42287050379041" lon="-8.070166009381726"><ele>418.00000000000006</ele><time>2026-03-23T16:56:37.999Z</time></trkpt><trkpt lat="42.42282551438854" lon="-8.070094773139173"><ele>418.0</ele><time>2026-03-23T16:56:40.999Z</time></trkpt><trkpt lat="42.422769767863905" lon="-8.070019052538203"><ele>418.0</ele><time>2026-03-23T16:56:43.999Z</time></trkpt><trkpt lat="42.42272549610268" lon="-8.069952247172862"><ele>418.0</ele><time>2026-03-23T16:56:46.999Z</time></trkpt><trkpt lat="42.422782174003736" lon="-8.069892445528293"><ele>418.00000000000006</ele><time>2026-03-23T16:56:49.999Z</time></trkpt><trkpt lat="42.42286099774094" lon="-8.069837611021565"><ele>418.0</ele><time>2026-03-23T16:56:50.999Z</time></trkpt><trkpt lat="42.42294174171825" lon="-8.069805866718445"><ele>419.0</ele><time>2026-03-23T16:56:51.999Z</time></trkpt><trkpt lat="42.42299687611247" lon="-8.069718806074963"><ele>420.0</ele><time>2026-03-23T16:56:52.999Z</time></trkpt><trkpt lat="42.42305626451999" lon="-8.069684135436445"><ele>421.0</ele><time>2026-03-23T16:56:54.999Z</time></trkpt><trkpt lat="42.42311445960287" lon="-8.06964331441299"><ele>422.0</ele><time>2026-03-23T16:58:49.999Z</time></trkpt><trkpt lat="42.423170785780144" lon="-8.069601279292156"><ele>423.0</ele><time>2026-03-23T16:59:00.999Z</time></trkpt><trkpt lat="42.42304337115254" lon="-8.069287639460716"><ele>423.0</ele><time>2026-03-23T16:59:24.999Z</time></trkpt><trkpt lat="42.42309068489129" lon="-8.069377300074931"><ele>423.0</ele><time>2026-03-23T16:59:34.999Z</time></trkpt><trkpt lat="42.42313937782165" lon="-8.069480743979899"><ele>423.0</ele><time>2026-03-23T16:59:37.999Z</time></trkpt><trkpt lat="42.423174537300945" lon="-8.0695605148531"><ele>423.0</ele><time>2026-03-23T16:59:42.999Z</time></trkpt><trkpt lat="42.42320301863748" lon="-8.069643749268533"><ele>423.0</ele><time>2026-03-23T17:00:04.999Z</time></trkpt><trkpt lat="42.423137805977454" lon="-8.069673045920034"><ele>423.0</ele><time>2026-03-23T17:00:59.999Z</time></trkpt><trkpt lat="42.42306739552284" lon="-8.06971705572625"><ele>423.0</ele><time>2026-03-23T17:01:01.999Z</time></trkpt><trkpt lat="42.4229913102729" lon="-8.06976393450388"><ele>423.0</ele><time>2026-03-23T17:01:04.999Z</time></trkpt><trkpt lat="42.42290652930418" lon="-8.069804786066134"><ele>423.0</ele><time>2026-03-23T17:01:07.999Z</time></trkpt><trkpt lat="42.42283055283761" lon="-8.069839749958618"><ele>423.0</ele><time>2026-03-23T17:01:10.999Z</time></trkpt><trkpt lat="42.42276350472458" lon="-8.069887564348901"><ele>423.0</ele><time>2026-03-23T17:01:13.999Z</time></trkpt><trkpt lat="42.422873292534526" lon="-8.07015130773552"><ele>422.1666666666667</ele><time>2026-03-23T17:01:20.999Z</time></trkpt><trkpt lat="42.42291774910769" lon="-8.07023999254331"><ele>421.33333333333337</ele><time>2026-03-23T17:01:22.999Z</time></trkpt><trkpt lat="42.42294802919066" lon="-8.070322545475397"><ele>420.5</ele><time>2026-03-23T17:01:24.999Z</time></trkpt><trkpt lat="42.42297769077534" lon="-8.070401061628518"><ele>419.6666666666667</ele><time>2026-03-23T17:01:26.999Z</time></trkpt><trkpt lat="42.42294104993613" lon="-8.070305853318773"><ele>418.83333333333337</ele><time>2026-03-23T17:01:38.999Z</time></trkpt><trkpt lat="42.42289122474487" lon="-8.070196246780498"><ele>418.0</ele><time>2026-03-23T17:01:39.999Z</time></trkpt><trkpt lat="42.4228278775773" lon="-8.07010050164001"><ele>418.0</ele><time>2026-03-23T17:01:40.999Z</time></trkpt><trkpt lat="42.42277001848816" lon="-8.069995509295309"><ele>418.0</ele><time>2026-03-23T17:01:41.999Z</time></trkpt><trkpt lat="42.422746745673344" lon="-8.069904005705983"><ele>418.0</ele><time>2026-03-23T17:01:44.999Z</time></trkpt><trkpt lat="42.42283156087666" lon="-8.069835225233218"><ele>418.0</ele><time>2026-03-23T17:01:47Z</time></trkpt><trkpt lat="42.4229089997792" lon="-8.069761578239312"><ele>418.0</ele><time>2026-03-23T17:01:48Z</time></trkpt><trkpt lat="42.4230293315793" lon="-8.069724622281088"><ele>418.83333333333337</ele><time>2026-03-23T17:01:49Z</time></trkpt><trkpt lat="42.42311874914357" lon="-8.069640113209775"><ele>419.6666666666667</ele><time>2026-03-23T17:01:50Z</time></trkpt><trkpt lat="42.42318736776855" lon="-8.06958497421803"><ele>420.5</ele><time>2026-03-23T17:01:51Z</time></trkpt><trkpt lat="42.42325737218303" lon="-8.06954223152438"><ele>421.33333333333337</ele><time>2026-03-23T17:01:52Z</time></trkpt><trkpt lat="42.42332535279004" lon="-8.069509710783866"><ele>422.1666666666667</ele><time>2026-03-23T17:01:53Z</time></trkpt><trkpt lat="42.42341640746991" lon="-8.069493584163984"><ele>423.0</ele><time>2026-03-23T17:01:55Z</time></trkpt><trkpt lat="42.42352147670212" lon="-8.06947275317816"><ele>423.0</ele><time>2026-03-23T17:01:57Z</time></trkpt><trkpt lat="42.423629296364155" lon="-8.069451462877407"><ele>423.0</ele><time>2026-03-23T17:01:59Z</time></trkpt><trkpt lat="42.42369625860482" lon="-8.069418511686631"><ele>423.0</ele><time>2026-03-23T17:02:02Z</time></trkpt><trkpt lat="42.42377587973971" lon="-8.069425102968589"><ele>423.0</ele><time>2026-03-23T17:03:03.999Z</time></trkpt><trkpt lat="42.423845306953915" lon="-8.06941306384622"><ele>423.0</ele><time>2026-03-23T17:03:05.999Z</time></trkpt><trkpt lat="42.42392552785582" lon="-8.069400474926605"><ele>423.0</ele><time>2026-03-23T17:03:57Z</time></trkpt><trkpt lat="42.424020925721216" lon="-8.069393465326929"><ele>422.57142857142856</ele><time>2026-03-23T17:04:00Z</time></trkpt><trkpt lat="42.42408499279755" lon="-8.069393712022043"><ele>422.14285714285717</ele><time>2026-03-23T17:04:02Z</time></trkpt><trkpt lat="42.424156996275634" lon="-8.06936782367681"><ele>421.7142857142857</ele><time>2026-03-23T17:04:06Z</time></trkpt><trkpt lat="42.4242472398896" lon="-8.069372636893286"><ele>421.2857142857143</ele><time>2026-03-23T17:04:09Z</time></trkpt><trkpt lat="42.42432332499554" lon="-8.069335824513155"><ele>420.8571428571429</ele><time>2026-03-23T17:04:12Z</time></trkpt><trkpt lat="42.424397629045096" lon="-8.06933058579841"><ele>420.42857142857144</ele><time>2026-03-23T17:04:15Z</time></trkpt><trkpt lat="42.42445229120503" lon="-8.069286358046543"><ele>420.0</ele><time>2026-03-23T17:04:18Z</time></trkpt><trkpt lat="42.42453162723527" lon="-8.069262684028137"><ele>420.0</ele><time>2026-03-23T17:04:20Z</time></trkpt></trkseg><trkseg><trkpt lat="42.42959317945068" lon="-8.069192920689467"><ele>383.0</ele><time>2026-03-23T17:13:50.001Z</time></trkpt><trkpt lat="42.42959179917334" lon="-8.069050987457086"><ele>383.0</ele><time>2026-03-23T17:13:51.001Z</time></trkpt><trkpt lat="42.4295903897532" lon="-8.068905396277334"><ele>383.0</ele><time>2026-03-23T17:13:52.001Z</time></trkpt><trkpt lat="42.42958877607324" lon="-8.068762388040769"><ele>383.0</ele><time>2026-03-23T17:13:53.001Z</time></trkpt><trkpt lat="42.42958736348693" lon="-8.06863119411336"><ele>383.0</ele><time>2026-03-23T17:13:54.001Z</time></trkpt><trkpt lat="42.42958432289201" lon="-8.068512398470242"><ele>383.0</ele><time>2026-03-23T17:13:55.001Z</time></trkpt><trkpt lat="42.42958158804712" lon="-8.06842236958216"><ele>383.0</ele><time>2026-03-23T17:13:56.001Z</time></trkpt><trkpt lat="42.42957896057003" lon="-8.06833587509973"><ele>383.0</ele><time>2026-03-23T17:13:57.001Z</time></trkpt><trkpt lat="42.42957212977042" lon="-8.068165762143577"><ele>383.0</ele><time>2026-03-23T17:13:59.001Z</time></trkpt><trkpt lat="42.42956530699926" lon="-8.068059018310601"><ele>383.0</ele><time>2026-03-23T17:14:00.001Z</time></trkpt><trkpt lat="42.42954920868894" lon="-8.067942131620498"><ele>383.0</ele><time>2026-03-23T17:14:01.001Z</time></trkpt><trkpt lat="42.42952113936743" lon="-8.067802384004077"><ele>383.25</ele><time>2026-03-23T17:14:02.001Z</time></trkpt><trkpt lat="42.42947865225425" lon="-8.067648043989958"><ele>383.5</ele><time>2026-03-23T17:14:03.001Z</time></trkpt><trkpt lat="42.42942677236603" lon="-8.067497782147107"><ele>383.75</ele><time>2026-03-23T17:14:04.001Z</time></trkpt><trkpt lat="42.42937187943212" lon="-8.06734544300253"><ele>384.0</ele><time>2026-03-23T17:14:05.001Z</time></trkpt><trkpt lat="42.429319456261055" lon="-8.067205025884792"><ele>384.79999999999995</ele><time>2026-03-23T17:14:06.001Z</time></trkpt><trkpt lat="42.42927383116256" lon="-8.067084719809479"><ele>385.59999999999997</ele><time>2026-03-23T17:14:07Z</time></trkpt><trkpt lat="42.429222745144415" lon="-8.066952100989706"><ele>386.4</ele><time>2026-03-23T17:14:08Z</time></trkpt><trkpt lat="42.42917393539273" lon="-8.066825391326358"><ele>387.2</ele><time>2026-03-23T17:14:09Z</time></trkpt><trkpt lat="42.42912956605442" lon="-8.066711611487255"><ele>388.0</ele><time>2026-03-23T17:14:10Z</time></trkpt><trkpt lat="42.42908700117841" lon="-8.06660269790364"><ele>388.4</ele><time>2026-03-23T17:14:11Z</time></trkpt><trkpt lat="42.429044979249696" lon="-8.066495173467743"><ele>388.79999999999995</ele><time>2026-03-23T17:14:12Z</time></trkpt><trkpt lat="42.429006205413295" lon="-8.066395960239353"><ele>389.2</ele><time>2026-03-23T17:14:13Z</time></trkpt><trkpt lat="42.42896850681862" lon="-8.066299498217065"><ele>389.6</ele><time>2026-03-23T17:14:14Z</time></trkpt><trkpt lat="42.42893477940675" lon="-8.066213197637461"><ele>390.0</ele><time>2026-03-23T17:14:15Z</time></trkpt><trkpt lat="42.428874644740766" lon="-8.066058587649712"><ele>390.0</ele><time>2026-03-23T17:14:17Z</time></trkpt><trkpt lat="42.428843175979466" lon="-8.065977182159347"><ele>390.0</ele><time>2026-03-23T17:14:18Z</time></trkpt><trkpt lat="42.42880846637155" lon="-8.065887392889872"><ele>390.0</ele><time>2026-03-23T17:14:19Z</time></trkpt><trkpt lat="42.42880853349721" lon="-8.065727324589004"><ele>390.0</ele><time>2026-03-23T17:14:20Z</time></trkpt><trkpt lat="42.42874797502742" lon="-8.065588191493791"><ele>390.0</ele><time>2026-03-23T17:14:21Z</time></trkpt><trkpt lat="42.42869101995973" lon="-8.065436628014288"><ele>389.5</ele><time>2026-03-23T17:14:22Z</time></trkpt><trkpt lat="42.42863642861309" lon="-8.065280016326756"><ele>389.0</ele><time>2026-03-23T17:14:23Z</time></trkpt><trkpt lat="42.42853787033863" lon="-8.0651652062856"><ele>388.5</ele><time>2026-03-23T17:14:24Z</time></trkpt><trkpt lat="42.42848562122355" lon="-8.065024248175447"><ele>388.0</ele><time>2026-03-23T17:14:25Z</time></trkpt><trkpt lat="42.428440870331926" lon="-8.064902033355189"><ele>388.0</ele><time>2026-03-23T17:14:26Z</time></trkpt><trkpt lat="42.42840004827061" lon="-8.064790548208187"><ele>388.0</ele><time>2026-03-23T17:14:27Z</time></trkpt><trkpt lat="42.42836158003281" lon="-8.064685491358421"><ele>388.0</ele><time>2026-03-23T17:14:28Z</time></trkpt><trkpt lat="42.42832188321335" lon="-8.064572461494693"><ele>388.0</ele><time>2026-03-23T17:14:29Z</time></trkpt><trkpt lat="42.42828504951114" lon="-8.064466763302601"><ele>388.0</ele><time>2026-03-23T17:14:30Z</time></trkpt><trkpt lat="42.428302298912214" lon="-8.064339767104657"><ele>388.00000000000006</ele><time>2026-03-23T17:14:31Z</time></trkpt><trkpt lat="42.42826825401244" lon="-8.064246620776668"><ele>388.0</ele><time>2026-03-23T17:14:32Z</time></trkpt><trkpt lat="42.42823767625486" lon="-8.064158274274616"><ele>388.0</ele><time>2026-03-23T17:14:33Z</time></trkpt><trkpt lat="42.42820644625871" lon="-8.064065249534305"><ele>388.0</ele><time>2026-03-23T17:14:34Z</time></trkpt><trkpt lat="42.42818080715497" lon="-8.063986280612566"><ele>388.00000000000006</ele><time>2026-03-23T17:14:35Z</time></trkpt><trkpt lat="42.428153423454376" lon="-8.063857073773296"><ele>388.0</ele><time>2026-03-23T17:14:37Z</time></trkpt><trkpt lat="42.42811764592498" lon="-8.06375543027266"><ele>388.2</ele><time>2026-03-23T17:14:40Z</time></trkpt><trkpt lat="42.42804717466684" lon="-8.063627815423231"><ele>388.4</ele><time>2026-03-23T17:14:44Z</time></trkpt><trkpt lat="42.42798474955317" lon="-8.063553001983422"><ele>388.59999999999997</ele><time>2026-03-23T17:14:45Z</time></trkpt><trkpt lat="42.427932369282125" lon="-8.063457090255804"><ele>388.79999999999995</ele><time>2026-03-23T17:14:46Z</time></trkpt><trkpt lat="42.427905060574545" lon="-8.063335615233083"><ele>389.0</ele><time>2026-03-23T17:14:47Z</time></trkpt><trkpt lat="42.42790327342276" lon="-8.063210912394283"><ele>389.2</ele><time>2026-03-23T17:14:48Z</time></trkpt><trkpt lat="42.42793169432461" lon="-8.06308533296815"><ele>389.4</ele><time>2026-03-23T17:14:49Z</time></trkpt><trkpt lat="42.42798700244417" lon="-8.062988184997213"><ele>389.6</ele><time>2026-03-23T17:14:50Z</time></trkpt><trkpt lat="42.428061636071455" lon="-8.062928137573248"><ele>389.8</ele><time>2026-03-23T17:14:51Z</time></trkpt><trkpt lat="42.42815372001549" lon="-8.062898853516899"><ele>390.0</ele><time>2026-03-23T17:14:52Z</time></trkpt><trkpt lat="42.428242202099774" lon="-8.062908986694582"><ele>390.0</ele><time>2026-03-23T17:14:53Z</time></trkpt><trkpt lat="42.4283334318454" lon="-8.062958797997391"><ele>390.0</ele><time>2026-03-23T17:14:54Z</time></trkpt><trkpt lat="42.4284034768569" lon="-8.063050185952045"><ele>390.0</ele><time>2026-03-23T17:14:55Z</time></trkpt><trkpt lat="42.42845318750248" lon="-8.063159528892923"><ele>390.0</ele><time>2026-03-23T17:14:56Z</time></trkpt><trkpt lat="42.42847902616568" lon="-8.06329226931823"><ele>390.0</ele><time>2026-03-23T17:14:57Z</time></trkpt><trkpt lat="42.428507932721885" lon="-8.063421010245465"><ele>389.8</ele><time>2026-03-23T17:14:58Z</time></trkpt><trkpt lat="42.4285366892799" lon="-8.063522633529866"><ele>389.6</ele><time>2026-03-23T17:14:59Z</time></trkpt><trkpt lat="42.428579800602236" lon="-8.063632970270142"><ele>389.4</ele><time>2026-03-23T17:15:00Z</time></trkpt><trkpt lat="42.428631648037474" lon="-8.063745184562645"><ele>389.2</ele><time>2026-03-23T17:15:01Z</time></trkpt><trkpt lat="42.42868464185887" lon="-8.063857713581834"><ele>389.0</ele><time>2026-03-23T17:15:02Z</time></trkpt><trkpt lat="42.42873862963155" lon="-8.063969685041961"><ele>389.0</ele><time>2026-03-23T17:15:03Z</time></trkpt><trkpt lat="42.42879047605054" lon="-8.064078722854292"><ele>389.0</ele><time>2026-03-23T17:15:04Z</time></trkpt><trkpt lat="42.42883640351686" lon="-8.064175300113687"><ele>389.0</ele><time>2026-03-23T17:15:05Z</time></trkpt><trkpt lat="42.42888451920724" lon="-8.064274829944917"><ele>389.0</ele><time>2026-03-23T17:15:06Z</time></trkpt><trkpt lat="42.4289361417747" lon="-8.064383063849595"><ele>389.0</ele><time>2026-03-23T17:15:07Z</time></trkpt><trkpt lat="42.428991380457475" lon="-8.064500270926588"><ele>389.75</ele><time>2026-03-23T17:15:08Z</time></trkpt><trkpt lat="42.4290474774265" lon="-8.064628304456793"><ele>390.5</ele><time>2026-03-23T17:15:09Z</time></trkpt><trkpt lat="42.42909832549725" lon="-8.064758537516795"><ele>391.25</ele><time>2026-03-23T17:15:10Z</time></trkpt><trkpt lat="42.42916155957096" lon="-8.064895325404551"><ele>392.0</ele><time>2026-03-23T17:15:11Z</time></trkpt><trkpt lat="42.42921829369862" lon="-8.06502753454729"><ele>392.0</ele><time>2026-03-23T17:15:12Z</time></trkpt><trkpt lat="42.42927681203588" lon="-8.065162979907912"><ele>392.0</ele><time>2026-03-23T17:15:13Z</time></trkpt><trkpt lat="42.42933070704582" lon="-8.065283758877845"><ele>392.0</ele><time>2026-03-23T17:15:14Z</time></trkpt><trkpt lat="42.429380270142424" lon="-8.065398324873454"><ele>392.0</ele><time>2026-03-23T17:15:15Z</time></trkpt><trkpt lat="42.429430235876964" lon="-8.065508871884159"><ele>392.0</ele><time>2026-03-23T17:15:16Z</time></trkpt><trkpt lat="42.42947732652308" lon="-8.065612368177677"><ele>391.99999999999994</ele><time>2026-03-23T17:15:17Z</time></trkpt><trkpt lat="42.42951826887854" lon="-8.06570606365152"><ele>392.0</ele><time>2026-03-23T17:15:18Z</time></trkpt><trkpt lat="42.42956676470053" lon="-8.065815643614597"><ele>392.0</ele><time>2026-03-23T17:15:18.999Z</time></trkpt><trkpt lat="42.42961377635856" lon="-8.065924866400554"><ele>392.0</ele><time>2026-03-23T17:15:19.999Z</time></trkpt><trkpt lat="42.42965906871847" lon="-8.066026582335885"><ele>391.99999999999994</ele><time>2026-03-23T17:15:20.999Z</time></trkpt><trkpt lat="42.42969724822492" lon="-8.066116086249744"><ele>392.0</ele><time>2026-03-23T17:15:21.999Z</time></trkpt><trkpt lat="42.42973560288985" lon="-8.06620099292567"><ele>392.3333333333333</ele><time>2026-03-23T17:15:22.999Z</time></trkpt><trkpt lat="42.42977365885358" lon="-8.06627456183154"><ele>392.66666666666663</ele><time>2026-03-23T17:15:23.999Z</time></trkpt><trkpt lat="42.42980967023357" lon="-8.066347516159327"><ele>393.0</ele><time>2026-03-23T17:15:24.999Z</time></trkpt><trkpt lat="42.4298466116395" lon="-8.066438260445146"><ele>393.33333333333337</ele><time>2026-03-23T17:15:25.999Z</time></trkpt><trkpt lat="42.429892310063" lon="-8.066530156467078"><ele>393.6666666666667</ele><time>2026-03-23T17:15:26.999Z</time></trkpt><trkpt lat="42.42993595385935" lon="-8.066632499893071"><ele>394.0</ele><time>2026-03-23T17:15:27.999Z</time></trkpt><trkpt lat="42.42997691443677" lon="-8.06673165355915"><ele>394.0</ele><time>2026-03-23T17:15:28.999Z</time></trkpt><trkpt lat="42.430014625274126" lon="-8.066826600806452"><ele>394.0</ele><time>2026-03-23T17:15:29.999Z</time></trkpt><trkpt lat="42.430048986115764" lon="-8.066909814910359"><ele>394.0</ele><time>2026-03-23T17:15:30.999Z</time></trkpt><trkpt lat="42.4301034803872" lon="-8.067041324059321"><ele>394.0</ele><time>2026-03-23T17:15:32.999Z</time></trkpt><trkpt lat="42.43015798538454" lon="-8.067171177862877"><ele>394.0</ele><time>2026-03-23T17:15:34.999Z</time></trkpt><trkpt lat="42.430209880709405" lon="-8.0672829243429"><ele>394.0</ele><time>2026-03-23T17:15:36.999Z</time></trkpt><trkpt lat="42.43025852273653" lon="-8.067343429775846"><ele>394.0</ele><time>2026-03-23T17:15:38.999Z</time></trkpt><trkpt lat="42.430327553326656" lon="-8.067366519190436"><ele>394.0</ele><time>2026-03-23T17:15:42.999Z</time></trkpt><trkpt lat="42.43043842002802" lon="-8.067303805624967"><ele>394.0</ele><time>2026-03-23T17:15:47.999Z</time></trkpt><trkpt lat="42.43033405771435" lon="-8.067407219627949"><ele>394.0</ele><time>2026-03-23T17:15:59Z</time></trkpt><trkpt lat="42.430275191511456" lon="-8.067458355625162"><ele>395.0</ele><time>2026-03-23T17:16:04Z</time></trkpt><trkpt lat="42.43054952961375" lon="-8.067837647040879"><ele>396.0</ele><time>2026-03-23T17:16:10Z</time></trkpt><trkpt lat="42.43058455826349" lon="-8.067746635149987"><ele>396.0</ele><time>2026-03-23T17:16:12Z</time></trkpt><trkpt lat="42.43064899356864" lon="-8.067780676013163"><ele>396.0</ele><time>2026-03-23T17:16:15Z</time></trkpt><trkpt lat="42.43069102094754" lon="-8.067863600713142"><ele>396.0</ele><time>2026-03-23T17:17:12.999Z</time></trkpt><trkpt lat="42.4307142653065" lon="-8.068010792335631"><ele>396.0</ele><time>2026-03-23T17:17:39.999Z</time></trkpt><trkpt lat="42.43085667569502" lon="-8.068355325793094"><ele>396.0</ele><time>2026-03-23T17:24:37.563Z</time></trkpt><trkpt lat="42.430869913321175" lon="-8.068456477147688"><ele>396.0</ele><time>2026-03-23T17:24:39.996Z</time></trkpt><trkpt lat="42.430809165818985" lon="-8.06851723690515"><ele>396.0</ele><time>2026-03-23T17:24:43.001Z</time></trkpt><trkpt lat="42.430771649322054" lon="-8.068610520803695"><ele>396.0</ele><time>2026-03-23T17:24:45.001Z</time></trkpt><trkpt lat="42.43067300085712" lon="-8.068660177324933"><ele>396.0</ele><time>2026-03-23T17:24:47.001Z</time></trkpt><trkpt lat="42.430604108900354" lon="-8.068680511609957"><ele>396.0</ele><time>2026-03-23T17:24:48.001Z</time></trkpt><trkpt lat="42.43046495284722" lon="-8.068749070176755"><ele>394.8333333333333</ele><time>2026-03-23T17:24:50.001Z</time></trkpt><trkpt lat="42.43037493619591" lon="-8.068776711686285"><ele>393.66666666666663</ele><time>2026-03-23T17:24:51.001Z</time></trkpt><trkpt lat="42.430297893461216" lon="-8.068780208594907"><ele>392.5</ele><time>2026-03-23T17:24:52.001Z</time></trkpt><trkpt lat="42.43020245198798" lon="-8.068824697533794"><ele>391.3333333333333</ele><time>2026-03-23T17:24:53.001Z</time></trkpt><trkpt lat="42.430126804830614" lon="-8.068838809683019"><ele>390.16666666666663</ele><time>2026-03-23T17:24:54.001Z</time></trkpt><trkpt lat="42.43003985143837" lon="-8.06886232131692"><ele>389.0</ele><time>2026-03-23T17:24:55.001Z</time></trkpt><trkpt lat="42.429952249284014" lon="-8.068882049087593"><ele>389.0</ele><time>2026-03-23T17:24:56.001Z</time></trkpt><trkpt lat="42.42986045150452" lon="-8.068903572560776"><ele>389.0</ele><time>2026-03-23T17:24:57Z</time></trkpt><trkpt lat="42.429761895677785" lon="-8.06893020450493"><ele>389.0</ele><time>2026-03-23T17:24:58Z</time></trkpt><trkpt lat="42.42967498364865" lon="-8.06896043456868"><ele>389.0</ele><time>2026-03-23T17:24:59Z</time></trkpt><trkpt lat="42.429605798837514" lon="-8.06903991303012"><ele>389.0</ele><time>2026-03-23T17:25:01Z</time></trkpt><trkpt lat="42.42962757932307" lon="-8.069216614944292"><ele>387.5</ele><time>2026-03-23T17:25:03Z</time></trkpt><trkpt lat="42.42963292696581" lon="-8.069381190461009"><ele>386.0</ele><time>2026-03-23T17:25:04Z</time></trkpt><trkpt lat="42.42963609207639" lon="-8.06956477007924"><ele>384.5</ele><time>2026-03-23T17:25:05Z</time></trkpt><trkpt lat="42.42963013232378" lon="-8.06972298869336"><ele>383.0</ele><time>2026-03-23T17:25:06Z</time></trkpt><trkpt lat="42.429637655374684" lon="-8.069865794718345"><ele>383.1666666666667</ele><time>2026-03-23T17:25:07Z</time></trkpt><trkpt lat="42.42964069749455" lon="-8.069996416012797"><ele>383.33333333333337</ele><time>2026-03-23T17:25:08Z</time></trkpt><trkpt lat="42.429632749366526" lon="-8.07013742307026"><ele>383.5</ele><time>2026-03-23T17:25:10Z</time></trkpt><trkpt lat="42.42957915876772" lon="-8.070183390155421"><ele>383.6666666666667</ele><time>2026-03-23T17:25:12Z</time></trkpt><trkpt lat="42.4296428933882" lon="-8.070162511588986"><ele>383.8333333333333</ele><time>2026-03-23T17:25:13Z</time></trkpt><trkpt lat="42.42964658999347" lon="-8.07025633780985"><ele>384.0</ele><time>2026-03-23T17:25:21Z</time></trkpt><trkpt lat="42.42974763654101" lon="-8.070224564892404"><ele>385.0</ele><time>2026-03-23T17:32:42.999Z</time></trkpt><trkpt lat="42.42972943936762" lon="-8.070315349224057"><ele>386.0</ele><time>2026-03-23T17:33:24Z</time></trkpt><trkpt lat="42.429716645686696" lon="-8.0704034185411"><ele>387.0</ele><time>2026-03-23T17:33:25Z</time></trkpt><trkpt lat="42.42970709549044" lon="-8.070587042476145"><ele>388.0</ele><time>2026-03-23T17:33:33Z</time></trkpt><trkpt lat="42.42972389615185" lon="-8.070730765903622"><ele>389.0</ele><time>2026-03-23T17:33:34Z</time></trkpt><trkpt lat="42.42974803914972" lon="-8.070879707259488"><ele>389.0</ele><time>2026-03-23T17:33:35Z</time></trkpt><trkpt lat="42.429777975043365" lon="-8.071047124014466"><ele>389.0</ele><time>2026-03-23T17:33:36Z</time></trkpt><trkpt lat="42.429831366674364" lon="-8.071220635779625"><ele>389.0</ele><time>2026-03-23T17:33:37Z</time></trkpt><trkpt lat="42.4298663083828" lon="-8.07139226970275"><ele>389.0</ele><time>2026-03-23T17:33:38Z</time></trkpt><trkpt lat="42.42988819771547" lon="-8.071529828903227"><ele>389.2</ele><time>2026-03-23T17:33:39Z</time></trkpt><trkpt lat="42.429908329318685" lon="-8.071674541634044"><ele>389.4</ele><time>2026-03-23T17:33:40Z</time></trkpt><trkpt lat="42.42993554616956" lon="-8.071780312600136"><ele>389.6</ele><time>2026-03-23T17:33:41Z</time></trkpt><trkpt lat="42.42995318642948" lon="-8.07191325457034"><ele>389.8</ele><time>2026-03-23T17:33:42Z</time></trkpt><trkpt lat="42.42995861708471" lon="-8.072041680145063"><ele>390.0</ele><time>2026-03-23T17:33:43Z</time></trkpt><trkpt lat="42.429990294346496" lon="-8.072152186491108"><ele>390.0</ele><time>2026-03-23T17:33:44Z</time></trkpt><trkpt lat="42.4299927088536" lon="-8.072240536439537"><ele>390.0</ele><time>2026-03-23T17:33:45Z</time></trkpt><trkpt lat="42.43001104980956" lon="-8.072380892337977"><ele>390.0</ele><time>2026-03-23T17:33:47Z</time></trkpt><trkpt lat="42.430043075966985" lon="-8.072487741129809"><ele>390.0</ele><time>2026-03-23T17:33:49Z</time></trkpt><trkpt lat="42.43009160494951" lon="-8.072674946164561"><ele>390.0</ele><time>2026-03-23T17:33:51Z</time></trkpt><trkpt lat="42.43010697095136" lon="-8.072784564093066"><ele>390.6666666666667</ele><time>2026-03-23T17:33:52Z</time></trkpt><trkpt lat="42.43012953798845" lon="-8.07287563644559"><ele>391.33333333333337</ele><time>2026-03-23T17:33:53Z</time></trkpt><trkpt lat="42.430143355907276" lon="-8.072960215266663"><ele>392.0</ele><time>2026-03-23T17:33:54Z</time></trkpt><trkpt lat="42.43015020498853" lon="-8.073054334197618"><ele>392.6666666666667</ele><time>2026-03-23T17:33:55Z</time></trkpt><trkpt lat="42.430167132302" lon="-8.07314296461375"><ele>393.33333333333337</ele><time>2026-03-23T17:33:56Z</time></trkpt><trkpt lat="42.43020200912454" lon="-8.073274584173658"><ele>394.0</ele><time>2026-03-23T17:33:58Z</time></trkpt><trkpt lat="42.43022561961286" lon="-8.073399036173953"><ele>394.6</ele><time>2026-03-23T17:34:00Z</time></trkpt><trkpt lat="42.430251274111676" lon="-8.073548070694395"><ele>395.2</ele><time>2026-03-23T17:34:02Z</time></trkpt><trkpt lat="42.43030089840115" lon="-8.073677199641024"><ele>395.8</ele><time>2026-03-23T17:34:04Z</time></trkpt><trkpt lat="42.430347072006036" lon="-8.073808869730316"><ele>396.40000000000003</ele><time>2026-03-23T17:34:06Z</time></trkpt><trkpt lat="42.430360047513815" lon="-8.073943696611755"><ele>397.0</ele><time>2026-03-23T17:34:08Z</time></trkpt><trkpt lat="42.43038333685416" lon="-8.074034765117766"><ele>397.00000000000006</ele><time>2026-03-23T17:34:10.999Z</time></trkpt><trkpt lat="42.43040310182222" lon="-8.074141542887434"><ele>397.0</ele><time>2026-03-23T17:34:16.999Z</time></trkpt><trkpt lat="42.430422969510346" lon="-8.07423794851687"><ele>397.0</ele><time>2026-03-23T17:34:17.999Z</time></trkpt><trkpt lat="42.43043861389977" lon="-8.074345701074984"><ele>397.0</ele><time>2026-03-23T17:34:18.999Z</time></trkpt><trkpt lat="42.43046003698755" lon="-8.074457601090721"><ele>397.00000000000006</ele><time>2026-03-23T17:34:19.999Z</time></trkpt><trkpt lat="42.430474540785234" lon="-8.074560011755315"><ele>397.0</ele><time>2026-03-23T17:34:20.999Z</time></trkpt><trkpt lat="42.43051088343709" lon="-8.074653272424605"><ele>397.57142857142856</ele><time>2026-03-23T17:34:21.999Z</time></trkpt><trkpt lat="42.430525961232696" lon="-8.074744817113316"><ele>398.1428571428571</ele><time>2026-03-23T17:34:22.999Z</time></trkpt><trkpt lat="42.430542044784" lon="-8.074830337487741"><ele>398.7142857142857</ele><time>2026-03-23T17:34:23.999Z</time></trkpt><trkpt lat="42.430571584289844" lon="-8.074908667369767"><ele>399.2857142857143</ele><time>2026-03-23T17:34:24.999Z</time></trkpt><trkpt lat="42.43058034659633" lon="-8.075000196418463"><ele>399.8571428571429</ele><time>2026-03-23T17:34:25.999Z</time></trkpt><trkpt lat="42.43060185088582" lon="-8.075087575498168"><ele>400.42857142857144</ele><time>2026-03-23T17:34:26.999Z</time></trkpt><trkpt lat="42.43063612066965" lon="-8.075221595820077"><ele>401.0</ele><time>2026-03-23T17:34:28.999Z</time></trkpt><trkpt lat="42.43065390367736" lon="-8.075327563456655"><ele>400.8</ele><time>2026-03-23T17:34:31.999Z</time></trkpt><trkpt lat="42.43052523327919" lon="-8.075375209152131"><ele>400.6</ele><time>2026-03-23T17:34:34.999Z</time></trkpt><trkpt lat="42.43045698446647" lon="-8.07537530129767"><ele>400.4</ele><time>2026-03-23T17:34:35.999Z</time></trkpt><trkpt lat="42.43035347124411" lon="-8.075406814046369"><ele>400.2</ele><time>2026-03-23T17:34:37.999Z</time></trkpt><trkpt lat="42.430282428939314" lon="-8.075430001660207"><ele>400.0</ele><time>2026-03-23T17:34:39.999Z</time></trkpt><trkpt lat="42.430172050649794" lon="-8.075269807444977"><ele>400.0</ele><time>2026-03-23T17:34:46.999Z</time></trkpt><trkpt lat="42.4301533558119" lon="-8.075163347837137"><ele>400.0</ele><time>2026-03-23T17:34:49.999Z</time></trkpt><trkpt lat="42.43014783187659" lon="-8.075036590894532"><ele>400.0</ele><time>2026-03-23T17:34:53.999Z</time></trkpt><trkpt lat="42.430223206393414" lon="-8.074928770166718"><ele>397.0</ele><time>2026-03-23T17:34:57.999Z</time></trkpt><trkpt lat="42.430290274069264" lon="-8.074921303675358"><ele>397.0</ele><time>2026-03-23T17:35:00.999Z</time></trkpt></trkseg><trkseg><trkpt lat="42.422406980765444" lon="-8.072526216804045"><ele>414.0</ele><time>2026-03-23T18:02:10.999Z</time></trkpt><trkpt lat="42.422309989753685" lon="-8.072537236080533"><ele>414.0</ele><time>2026-03-23T18:02:12.999Z</time></trkpt><trkpt lat="42.42221359140227" lon="-8.072578759675572"><ele>414.0</ele><time>2026-03-23T18:02:17.999Z</time></trkpt><trkpt lat="42.42214534711095" lon="-8.07261152107647"><ele>414.0</ele><time>2026-03-23T18:02:19.999Z</time></trkpt><trkpt lat="42.42198465337061" lon="-8.072519353622454"><ele>414.0</ele><time>2026-03-23T18:02:23.999Z</time></trkpt><trkpt lat="42.42192436846956" lon="-8.07246992709109"><ele>414.2</ele><time>2026-03-23T18:02:24.999Z</time></trkpt><trkpt lat="42.4218445149321" lon="-8.072437714196592"><ele>414.4</ele><time>2026-03-23T18:02:25.999Z</time></trkpt><trkpt lat="42.421711703082806" lon="-8.072433625576831"><ele>414.6</ele><time>2026-03-23T18:02:26.999Z</time></trkpt><trkpt lat="42.42161349891098" lon="-8.072402257883999"><ele>414.8</ele><time>2026-03-23T18:02:27.999Z</time></trkpt><trkpt lat="42.42151091026146" lon="-8.072412206934619"><ele>415.0</ele><time>2026-03-23T18:02:28.999Z</time></trkpt><trkpt lat="42.42142119737961" lon="-8.072406694897632"><ele>414.83333333333337</ele><time>2026-03-23T18:02:29.999Z</time></trkpt><trkpt lat="42.421333966639565" lon="-8.072473877319371"><ele>414.6666666666667</ele><time>2026-03-23T18:02:30.999Z</time></trkpt><trkpt lat="42.421264161365826" lon="-8.072546583377493"><ele>414.5</ele><time>2026-03-23T18:02:31.999Z</time></trkpt><trkpt lat="42.42119791558521" lon="-8.072589198879696"><ele>414.33333333333337</ele><time>2026-03-23T18:02:32.999Z</time></trkpt><trkpt lat="42.4211211217311" lon="-8.07268317722329"><ele>414.1666666666667</ele><time>2026-03-23T18:02:36.999Z</time></trkpt><trkpt lat="42.42105845094653" lon="-8.072712312285967"><ele>414.0</ele><time>2026-03-23T18:02:44.999Z</time></trkpt><trkpt lat="42.42098668301445" lon="-8.072784585628186"><ele>414.0</ele><time>2026-03-23T18:04:55.999Z</time></trkpt><trkpt lat="42.420930471952865" lon="-8.072831790939636"><ele>414.0</ele><time>2026-03-23T18:04:56.999Z</time></trkpt><trkpt lat="42.4208614449898" lon="-8.07287907086747"><ele>414.0</ele><time>2026-03-23T18:04:57.999Z</time></trkpt><trkpt lat="42.42078921455987" lon="-8.072947880438003"><ele>414.0</ele><time>2026-03-23T18:04:58.999Z</time></trkpt><trkpt lat="42.42072438439044" lon="-8.073004744410543"><ele>414.0</ele><time>2026-03-23T18:04:59.999Z</time></trkpt><trkpt lat="42.42063103650472" lon="-8.073101057463969"><ele>414.0</ele><time>2026-03-23T18:05:01.999Z</time></trkpt><trkpt lat="42.42052794884235" lon="-8.073171933353251"><ele>413.2</ele><time>2026-03-23T18:05:03.999Z</time></trkpt><trkpt lat="42.420434778116665" lon="-8.073245879176177"><ele>412.4</ele><time>2026-03-23T18:05:05.999Z</time></trkpt><trkpt lat="42.420338316900185" lon="-8.073320612419154"><ele>411.6</ele><time>2026-03-23T18:05:07.999Z</time></trkpt><trkpt lat="42.42027700393284" lon="-8.073346486167836"><ele>410.8</ele><time>2026-03-23T18:05:09.999Z</time></trkpt><trkpt lat="42.4203154885229" lon="-8.073536240918987"><ele>410.0</ele><time>2026-03-23T18:05:10.999Z</time></trkpt><trkpt lat="42.42034793741831" lon="-8.07361909912062"><ele>410.0</ele><time>2026-03-23T18:05:11.999Z</time></trkpt><trkpt lat="42.420407869308974" lon="-8.073749584201796"><ele>410.0</ele><time>2026-03-23T18:05:13.999Z</time></trkpt><trkpt lat="42.420331510852776" lon="-8.073938845212997"><ele>410.0</ele><time>2026-03-23T18:05:15.998Z</time></trkpt><trkpt lat="42.42023654938189" lon="-8.07404203064258"><ele>410.0</ele><time>2026-03-23T18:05:16.998Z</time></trkpt><trkpt lat="42.42014140342436" lon="-8.074152512413862"><ele>410.5</ele><time>2026-03-23T18:05:17.998Z</time></trkpt><trkpt lat="42.420039737549764" lon="-8.074274378391733"><ele>411.0</ele><time>2026-03-23T18:05:18.998Z</time></trkpt><trkpt lat="42.419944522952555" lon="-8.074381755787693"><ele>411.5</ele><time>2026-03-23T18:05:19.998Z</time></trkpt><trkpt lat="42.41985317640633" lon="-8.074482973918789"><ele>412.0</ele><time>2026-03-23T18:05:20.998Z</time></trkpt><trkpt lat="42.41977694372639" lon="-8.074594204047774"><ele>412.00000000000006</ele><time>2026-03-23T18:05:21.998Z</time></trkpt><trkpt lat="42.4197057406753" lon="-8.074676010037708"><ele>412.0</ele><time>2026-03-23T18:05:22.998Z</time></trkpt><trkpt lat="42.41964749733587" lon="-8.07473945084324"><ele>412.0</ele><time>2026-03-23T18:05:23.998Z</time></trkpt><trkpt lat="42.419588346225616" lon="-8.074822109638054"><ele>412.0</ele><time>2026-03-23T18:05:24.998Z</time></trkpt><trkpt lat="42.419517472374594" lon="-8.07493116996363"><ele>412.00000000000006</ele><time>2026-03-23T18:05:26.998Z</time></trkpt><trkpt lat="42.4194811638634" lon="-8.075015567018156"><ele>412.0</ele><time>2026-03-23T18:05:29.998Z</time></trkpt><trkpt lat="42.41931828886994" lon="-8.074935886511076"><ele>413.0</ele><time>2026-03-23T18:05:34Z</time></trkpt><trkpt lat="42.419283749898504" lon="-8.07485589521848"><ele>413.0</ele><time>2026-03-23T18:05:37Z</time></trkpt></trkseg></trk></gpx>